     2              OBSERVATION DATA    GPS                 RINEX VERSION / TYPE
teqc 1997Jul24 19970902 21:17:21UTC                         PGM / RUN BY / DATE
                                                            COMMENT
BIT 2 OF LLI FLAGS DATA COLLECTED UNDER A-S CONDITION       COMMENT
BIT 2 OF LLI FLAGS DATA COLLECTED UNDER A-S CONDITION       COMMENT
Original Marker Name: 55496.YUMA                            COMMENT
Campaign Name: Salt. Tr. Crust. Monit. May-Jun 1986         COMMENT
4-Character Station Name: YUMA                              COMMENT
6-Character Antenna Code: TI4100                            COMMENT
Vertical Measurement Point: PAE                             COMMENT
Vertical Offset to Rinex Ref. Point: 0.0000                 COMMENT
Radial Measurement Point: RRP                               COMMENT
Radial Offset to Rinex Ref. Point: 0.0000                   COMMENT
Antenna Height from Field Measurement: 1.4170 m             COMMENT
Original XYZ: -2084240.0746 -4690980.3933 3272536.7281      COMMENT
New XYZ position is based on association with SCEC monument COMMENT
E1C9S0R6+0011. Position of that monument is believed to be  COMMENT
valid to within 1 m horizontally; vertical accuracy         COMMENT
should be no worse than 3-times this value.                 COMMENT
                                                            COMMENT
Revised Rinex header created by UCSD GPS archive for        COMMENT
GSAC on 12-Apr-1999 (1999:102) 01:29:35 GMT                 COMMENT
For assistance contact dagnew@ucsd.edu or hjohnson@ucsd.edu COMMENT
                                                            COMMENT
YUMA NCMN 1983                                              MARKER NAME
5 NATIONAL GEODETIC SURVEY                                  OBSERVER / AGENCY
UT04 TI 4100 1.0                                            REC # / TYPE / VERS
108 TI 4100                                                 ANT # / TYPE
 -2196778.0000 -4887337.0000  3448425.0000                  APPROX POSITION XYZ
        1.4170        0.0000        0.0000                  ANTENNA: DELTA H/E/N
     1     1     0                                          WAVELENGTH FACT L1/2
     4    P1    P2    L1    L2                              # / TYPES OF OBSERV
     6                                                      INTERVAL
  1986     6    19     0    59   47.000000                  TIME OF FIRST OBS
  1986     6    19     2    48   11.000000                  TIME OF LAST OBS
     0                                                      # OF SATELLITES
                                                            END OF HEADER
 86  6 19  0 59 47.0800000  0  4G 6G13G 9G11
  21026275.809    21026279.370    39487752.428 9 -47057551.403 8
  21296222.505    21296226.430      925788.898 9  -1596902.343 8
  20198632.888    20198637.805    23388544.266 8 -59239747.767 7
  21490250.969    21490255.757    39951799.235 8 -42043016.909 7
 86  6 19  0 59 53.0800000  0  4G 6G13G 9G11
  21028577.830    21028581.795    39499848.667 9 -47048125.763 8
  21294151.000    21294155.484      914903.422 8  -1605384.528 8
  20197476.688    20197481.450    23382470.151 7 -59244480.845 7
  21492641.652    21492647.206    39964367.043 8 -42033223.818 8
 86  6 19  0 59 59.0800000  0  4G 6G13G 9G11
  21030883.296    21030887.058    39511966.173 9 -47038683.550 8
  21292083.675    21292086.826      904036.698 9  -1613852.093 8
  20196324.901    20196330.004    23376418.427 6 -59249196.470 7
  21495036.324    21495039.849    39976945.952 8 -42023422.055 8
 86  6 19  1  0  5.0800000  0  4G 6G13G 9G11
  21033193.375    21033198.276    39524104.970 8 -47029224.747 7
  21290018.969    21290023.186      893188.777 8  -1622305.018 8
  20195178.077    20195181.707    23370389.008 7 -59253894.724 7
  21497432.141    21497434.824    39989536.016 9 -42013611.625 8
 86  6 19  1  0 11.0800000  0  4G 6G13G 9G11
  21035506.739    21035511.589    39536265.150 9 -47019749.294 8
  21287958.428    21287962.916      882359.683 8  -1630743.267 8
  20194034.599    20194039.872    23364382.146 7 -59258575.396 7
  21499829.516    21499833.825    40002137.256 8 -42003792.482 8
 86  6 19  1  0 17.0800000  0  4G 6G13G 9G11
  21037826.453    21037829.937    39548446.609 8 -47010257.261 8
  21285901.306    21285906.194      871549.377 9  -1639166.887 8
  20192895.554    20192900.147    23358397.691 7 -59263238.609 8
  21502229.361    21502233.623    40014749.592 8 -41993964.675 8
 86  6 19  1  0 23.0800000  0  4G 6G13G 9G11
  21040147.646    21040150.525    39560649.416 8 -47000748.571 7
  21283848.207    21283851.493      860757.804 8  -1647575.903 7
  20191761.105    20191765.904    23352435.681 8 -59267884.324 7
  21504631.651    21504635.882    40027372.997 8 -41984128.257 7
 86  6 19  1  0 29.0800000  0  4G 6G13G 9G11
  21042473.202    21042476.770    39572873.472 8 -46991223.328 8
  21281797.304    21281802.430      849984.974 8  -1655970.303 9
  20190631.048    20190635.197    23346496.056 6 -59272512.604 7
  21507036.688    21507042.384    40040007.393 9 -41974283.280 8
 86  6 19  1  0 35.0800000  0  4G 6G13G 9G11
  21044804.445    21044807.281    39585118.762 9 -46981681.545 7
  21279750.958    21279754.766      839230.854 9  -1664350.133 8
  20189505.714    20189507.685    23340578.830 7 -59277123.424 6
  21509441.972    21509447.657    40052652.761 8 -41964429.748 8
 86  6 19  1  0 41.0800000  0  4G 6G13G 9G11
  21047137.887    21047141.918    39597385.228 8 -46972123.273 8
  21277708.579    21277712.236      828495.462 8  -1672715.359 7
  20188384.100    20188387.988    23334684.091 8 -59281716.740 6
  21511852.127    21511855.397    40065309.093 8 -41954567.674 8
 86  6 19  1  0 47.0800000  0  4G 6G13G 9G11
  21049475.961    21049480.611    39609672.867 8 -46962548.489 7
  21275668.506    21275673.737      817778.889 8  -1681065.936 8
  20187266.397    20187269.943    23328811.820 7 -59286292.560 8
  21514262.414    21514266.324    40077976.410 8 -41944697.044 7
 86  6 19  1  0 53.0800000  0  4G 6G13G 9G11
  21051818.513    21051822.334    39621981.779 9 -46952957.138 8
  21273633.289    21273637.634      807081.124 9  -1689401.845 7
  20186151.828    20186156.693    23322962.022 7 -59290850.819 7
  21516674.737    21516678.046    40090654.714 8 -41934817.841 8
 86  6 19  1  0 59.0800000  0  4G 6G13G 9G11
  21054165.021    21054169.370    39634311.932 9 -46943349.232 8
  21271601.638    21271605.924      796402.215 8  -1697723.079 8
  20185043.828    20185046.040    23317134.845 7 -59295391.466 7
  21519089.013    21519093.425    40103343.970 8 -41924930.117 9
 86  6 19  1  1  5.0800000  0  4G 6G13G 9G11
  21056515.499    21056519.905    39646663.362 9 -46933724.745 7
  21269571.470    21269577.292      785742.108 8  -1706029.661 9
  20183938.511    20183942.042    23311330.252 7 -59299914.530 8
  21521505.431    21521510.881    40116044.198 8 -41915033.830 8
 86  6 19  1  1 11.0800000  0  4G 6G13G 9G11
  21058870.398    21058874.509    39659036.055 8 -46924083.695 8
  21267548.003    21267552.599      775100.861 9  -1714321.522 7
  20182839.184    20182843.193    23305548.252 6 -59304419.971 7
  21523924.078    21523927.829    40128755.369 8 -41905129.023 8
 86  6 19  1  1 17.0800000  0  4G 6G13G 9G11
  21061228.746    21061232.732    39671430.024 9 -46914426.059 7
  21265525.648    21265530.710      764478.468 8  -1722598.710 8
  20181743.357    20181748.027    23299788.899 7 -59308907.807 7
  21526346.138    21526349.512    40141477.508 8 -41895215.679 7
 86  6 19  1  1 23.0800000  0  4G 6G13G 9G11
  21063591.054    21063594.235    39683845.170 9 -46904751.924 7
  21263509.381    21263512.351      753874.887 8  -1730861.239 9
  20180651.486    20180655.010    23294052.149 7 -59313377.975 7
  21528767.516    21528773.279    40154210.521 8 -41885293.846 8
 86  6 19  1  1 29.0800000  0  4G 6G13G 9G11
  21065958.562    21065960.685    39696281.575 8 -46895061.221 8
  21261493.248    21261498.670      743290.091 8  -1739109.135 8
  20179563.912    20179568.052    23288338.071 6 -59317830.517 7
  21531193.301    21531197.027    40166954.448 9 -41875363.524 8
 86  6 19  1  1 35.0800000  0  4G 6G13G 9G11
  21068328.366    21068332.235    39708739.200 9 -46885353.995 7
  21259484.733    21259487.690      732724.086 8  -1747342.366 9
  20178480.759    20178485.731    23282646.800 7 -59322265.263 8
  21533620.719    21533625.922    40179709.296 8 -41865424.672 8
 86  6 19  1  1 41.0800000  0  4G 6G13G 9G11
  21070702.809    21070706.076    39721218.082 9 -46875630.173 7
  21257475.955    21257481.045      722177.074 9  -1755560.814 7
  20177404.089    20177406.537    23276978.121 7 -59326682.424 7
  21536048.766    21536055.011    40192475.050 9 -41855477.327 8
 86  6 19  1  1 47.0800000  0  4G 6G13G 9G11
  21073081.493    21073085.807    39733718.156 8 -46865889.878 7
  21255473.074    21255478.161      711648.847 8  -1763764.629 8
  20176328.751    20176331.949    23271332.174 7 -59331081.868 7
  21538481.227    21538485.768    40205251.559 9 -41845521.615 9
 86  6 19  1  1 53.0800000  0  4G 6G13G 9G11
  21075463.707    21075468.527    39746239.328 8 -46856133.128 8
  21253472.660    21253477.484      701139.391 8  -1771953.806 8
  20175257.749    20175262.677    23265708.858 7 -59335463.671 7
  21540913.664    21540919.392    40218038.784 8 -41835557.543 8
 86  6 19  1  1 59.0800000  0  4G 6G13G 9G11
  21077849.818    21077855.351    39758781.565 8 -46846359.953 8
  21251477.297    21251480.121      690648.642 8  -1780128.423 8
  20174193.039    20174195.649    23260108.141 7 -59339827.867 7
  21543349.517    21543354.037    40230836.676 9 -41825585.159 9
 86  6 19  1  2  5.0800000  0  4G 6G13G 9G11
  21080240.506    21080245.216    39771344.878 8 -46836570.385 8
  21249483.314    21249488.524      680176.632 9  -1788288.429 8
  20173131.237    20173134.794    23254530.095 7 -59344174.397 7
  21545787.294    21545791.474    40243645.233 9 -41815604.471 8
 86  6 19  1  2 11.0800000  0  4G 6G13G 9G11
  21082636.529    21082640.316    39783929.216 9 -46826764.413 8
  21247494.882    21247499.239      669723.246 8  -1796433.913 8
  20172074.047    20172078.479    23248974.691 8 -59348503.279 7
  21548225.919    21548231.233    40256464.309 8 -41805615.580 8
 86  6 19  1  2 17.0800000  0  4G 6G13G 9G11
  21085035.234    21085038.597    39796534.526 9 -46816942.079 8
  21245509.923    21245513.482      659288.486 9  -1804564.898 8
  20171021.351    20171025.663    23243441.770 7 -59352814.648 7
  21550667.634    21550673.592    40269293.952 9 -41795618.458 8
 86  6 19  1  2 23.0800000  0  4G 6G13G 9G11
  21087437.492    21087440.888    39809160.796 9 -46807103.427 7
  21243527.429    21243531.892      648872.461 8  -1812681.261 8
  20169974.013    20169975.803    23237931.585 7 -59357108.304 7
  21553111.614    21553116.854    40282134.176 8 -41785613.094 7
 86  6 19  1  2 29.0800000  0  4G 6G13G 9G11
  21089843.644    21089848.496    39821808.155 9 -46797248.350 8
  21241548.881    21241552.862      638475.207 8  -1820783.026 7
  20168928.182    20168931.399    23232444.261 7 -59361384.137 7
  21555556.649    21555561.233    40294984.966 9 -41775599.497 9
 86  6 19  1  2 35.0800000  0  4G 6G13G 9G11
  21092253.833    21092259.411    39834476.564 8 -46787376.881 8
  21239573.235    21239577.628      628096.747 8  -1828870.134 7
  20167889.108    20167891.302    23226979.576 7 -59365642.326 7
  21558004.324    21558009.776    40307846.331 9 -41765577.642 7
 86  6 19  1  2 41.0800000  0  4G 6G13G 9G11
  21094669.969    21094672.527    39847166.023 9 -46777488.992 8
  21237601.805    21237605.965      617737.131 8  -1836942.548 9
  20166853.415    20166856.059    23221537.665 8 -59369882.775 8
  21560453.560    21560459.462    40320718.225 9 -41755547.598 8
 86  6 19  1  2 47.0800000  0  4G 6G13G 9G11
  21097087.873    21097093.251    39859876.587 8 -46767584.653 7
  21235634.296    21235639.336      607396.375 8  -1845000.280 8
  20165822.929    20165825.177    23216118.656 7 -59374105.392 7
  21562904.987    21562909.629    40333600.742 8 -41745509.271 8
 86  6 19  1  2 53.0800000  0  4G 6G13G 9G11
  21099511.329    21099515.124    39872608.295 8 -46757663.850 8
  21233670.629    21233674.825      597074.405 8  -1853043.369 8
  20164795.539    20164798.469    23210722.457 8 -59378310.199 7
  21565358.703    21565364.228    40346493.908 8 -41735462.650 8
 86  6 19  1  2 59.0800000  0  4G 6G13G 9G11
  21101938.464    21101942.059    39885361.079 8 -46747726.607 7
  21231709.415    21231715.027      586771.296 8  -1861071.765 7
  20163772.565    20163776.830    23205349.331 7 -59382497.079 7
  21567814.945    21567818.888    40359397.701 8 -41725407.745 8
 86  6 19  1  3  5.0800000  0  4G 6G13G 9G11
  21104369.045    21104372.507    39898135.030 9 -46737772.900 7
  21229752.669    21229755.250      576487.043 8  -1869085.458 8
  20162754.139    20162758.611    23199999.038 7 -59386666.127 8
  21570271.864    21570277.362    40372312.112 8 -41715344.572 8
 86  6 19  1  3 11.0800000  0  4G 6G13G 9G11
  21106804.206    21106808.277    39910930.156 8 -46727802.674 8
  21227799.555    21227803.438      566221.730 7  -1877084.396 8
  20161741.750    20161744.043    23194671.785 7 -59390817.220 8
  21572731.510    21572737.182    40385237.150 8 -41705273.110 7
 86  6 19  1  3 17.0800000  0  4G 6G13G 9G11
  21109242.604    21109246.562    39923746.451 8 -46717815.951 7
  21225849.990    21225853.787      555975.284 8  -1885068.652 8
  20160730.284    20160735.645    23189367.588 7 -59394950.377 6
  21575193.190    21575198.286    40398172.760 9 -41695193.417 8
 86  6 19  1  3 23.0800000  0  4G 6G13G 9G11
  21111685.526    21111689.828    39936583.882 9 -46707812.765 8
  21223903.085    21223907.787      545747.855 8  -1893038.059 8
  20159726.515    20159729.850    23184086.299 6 -59399065.663 7
  21577656.689    21577661.836    40411118.940 8 -41685105.490 8
 86  6 19  1  3 29.0800000  0  4G 6G13G 9G11
  21114131.924    21114136.163    39949442.366 9 -46697793.160 8
  21221960.514    21221964.003      535539.382 8  -1900992.716 8
  20158725.764    20158728.849    23178828.237 7 -59403162.862 6
  21580122.018    21580126.872    40424075.665 8 -41675009.335 8
 86  6 19  1  3 35.0800000  0  4G 6G13G 9G11
  21116583.341    21116587.214    39962321.954 8 -46687757.128 7
  21220020.797    21220026.084      525349.756 9  -1908932.688 8
  20157729.421    20157733.697    23173593.232 7 -59407242.074 7
  21582589.948    21582594.816    40437042.852 9 -41664905.046 8
 86  6 19  1  3 41.0800000  0  4G 6G13G 9G11
  21119038.397    21119041.866    39975222.550 8 -46677704.723 7
  21218086.320    21218090.215      515178.965 8  -1916857.970 7
  20156737.690    20156740.844    23168381.179 7 -59411303.433 7
  21585058.799    21585063.008    40450020.455 9 -41654792.629 8
 86  6 19  1  3 47.0800000  0  4G 6G13G 9G11
  21121496.640    21121502.661    39988144.183 8 -46667635.918 8
  21216153.738    21216158.958      505027.054 8  -1924768.555 8
  20155748.479    20155753.172    23163192.002 7 -59415346.941 8
  21587530.855    21587535.511    40463008.437 8 -41644672.131 8
 86  6 19  1  3 53.0800000  0  4G 6G13G 9G11
  21123960.595    21123964.496    40001086.712 9 -46657550.835 7
  21214225.942    21214229.965      494893.914 9  -1932664.481 8
  20154766.013    20154770.261    23158025.848 7 -59419372.513 7
  21590004.943    21590008.968    40476006.745 8 -41634543.573 8
 86  6 19  1  3 59.0800000  0  4G 6G13G 9G11
  21126427.213    21126430.708    40014050.102 8 -46647449.504 8
  21212301.381    21212304.719      484779.573 9  -1940545.799 8
  20153787.432    20153791.954    23152882.615 7 -59423380.235 8
  21592480.263    21592485.897    40489015.281 8 -41624407.057 8
 86  6 19  1  4  5.0800000  0  4G 6G13G 9G11
  21128897.291    21128900.827    40027034.351 9 -46637331.908 8
  21210379.504    21210384.730      474683.916 9  -1948412.539 7
  20152812.931    20152818.601    23147762.436 6 -59427369.980 7
  21594957.860    21594962.103    40502034.047 9 -41614262.558 8
 86  6 19  1  4 11.0800000  0  4G 6G13G 9G11
  21131372.651    21131376.741    40040039.499 9 -46627198.026 8
  21208461.951    21208467.526      464606.993 9  -1956264.687 8
  20151844.392    20151847.356    23142665.157 6 -59431341.899 7
  21597437.070    21597441.191    40515063.057 8 -41604110.085 8
 86  6 19  1  4 17.0800000  0  4G 6G13G 9G11
  21133851.779    21133855.879    40053065.458 8 -46617047.931 8
  21206549.474    21206553.394      454548.812 9  -1964102.224 8
  20150878.576    20150882.315    23137590.869 6 -59435295.882 7
  21599918.668    21599922.464    40528102.315 8 -41593949.634 8
 86  6 19  1  4 23.0800000  0  4G 6G13G 9G11
  21136333.486    21136338.810    40066112.325 8 -46606881.561 8
  21204638.518    21204642.789      444509.448 8  -1971925.105 8
  20149915.068    20149921.282    23132539.524 7 -59439232.002 7
  21602401.467    21602405.047    40541151.713 9 -41583781.276 9
 86  6 19  1  4 29.0800000  0  4G 6G13G 9G11
  21138820.853    21138824.947    40079180.069 8 -46596698.907 8
  21202730.572    21202735.301      434488.899 8  -1979733.315 8
  20148958.669    20148964.631    23127511.324 7 -59443150.082 7
  21604887.473    21604890.851    40554211.282 8 -41573604.977 8
 86  6 19  1  4 35.0800000  0  4G 6G13G 9G11
  21141310.245    21141315.031    40092268.753 7 -46586499.945 8
  21200827.977    21200832.713      424487.265 8  -1987526.796 8
  20148008.175    20148012.789    23122506.293 7 -59447050.102 7
  21607374.261    21607377.931    40567281.113 8 -41563420.688 9
 86  6 19  1  4 41.0800000  0  4G 6G13G 9G11
  21143805.188    21143810.035    40105378.324 8 -46576284.684 8
  21198928.305    21198931.962      414504.405 8  -1995305.648 8
  20147060.687    20147064.529    23117524.336 6 -59450932.149 7
  21609863.167    21609866.727    40580361.170 9 -41553228.441 8
 86  6 19  1  4 47.0800000  0  4G 6G13G 9G11
  21146304.809    21146308.085    40118508.879 8 -46566053.099 9
  21197032.059    21197036.402      404540.424 8  -2003069.786 7
  20146115.440    20146118.947    23112565.656 7 -59454796.057 7
  21612353.648    21612358.024    40593451.440 9 -41543028.234 8
 86  6 19  1  4 53.0800000  0  4G 6G13G 9G11
  21148806.825    21148812.818    40131660.384 9 -46555805.173 8
  21195138.218    21195143.475      394595.360 9  -2010819.182 7
  20145174.880    20145181.800    23107630.185 7 -59458641.881 7
  21614846.934    21614851.174    40606552.017 9 -41532819.995 8
 86  6 19  1  4 59.0800000  0  4G 6G13G 9G11
  21151313.081    21151318.476    40144832.889 8 -46545540.888 8
  21193251.179    21193255.109      384669.202 9  -2018553.852 8
  20144241.520    20144245.301    23102718.039 7 -59462469.515 7
  21617341.323    21617346.219    40619662.818 9 -41522603.795 8
 86  6 19  1  5  5.0800000  0  4G 6G13G 9G11
  21153823.408    21153828.251    40158026.299 9 -46535260.320 8
  21191365.256    21191369.630      374761.918 9  -2026273.810 8
  20143311.685    20143316.359    23097829.090 7 -59466279.104 7
  21619839.589    21619842.706    40632783.726 9 -41512379.709 8
 86  6 19  1  5 11.0800000  0  4G 6G13G 9G11
  21156339.207    21156342.846    40171240.617 8 -46524963.455 8
  21189483.176    21189487.670      364873.490 8  -2033979.077 8
  20142384.674    20142390.388    23092963.487 6 -59470070.480 7
  21622337.309    21622341.510    40645914.820 9 -41502147.682 8
 86  6 19  1  5 17.0800000  0  4G 6G13G 9G11
  21158858.391    21158861.489    40184475.814 9 -46514650.321 8
  21187604.914    21187609.510      355003.984 9  -2041669.599 8
  20141463.963    20141467.898    23088121.182 7 -59473843.709 7
  21624838.928    21624842.613    40659056.043 8 -41491907.781 8
 86  6 19  1  5 23.0800000  0  4G 6G13G 9G11
  21161381.283    21161384.084    40197731.957 8 -46504320.859 7
  21185730.775    21185736.015      345153.381 8  -2049345.397 8
  20140545.275    20140550.861    23083302.079 7 -59477598.863 7
  21627340.101    21627344.604    40672207.367 9 -41481659.976 8
 86  6 19  1  5 29.0800000  0  4G 6G13G 9G11
  21163905.800    21163911.267    40211008.938 8 -46493975.168 8
  21183859.692    21183864.228      335321.660 9  -2057006.461 8
  20139635.239    20139640.252    23078506.310 6 -59481335.822 8
  21629845.510    21629849.457    40685368.759 8 -41471404.349 8
 86  6 19  1  5 35.0800000  0  4G 6G13G 9G11
  21166436.994    21166441.755    40224306.756 9 -46483613.217 8
  21181992.523    21181996.174      325508.827 9  -2064652.831 7
  20138725.976    20138730.701    23073733.853 8 -59485054.623 7
  21632352.314    21632354.816    40698540.247 9 -41461140.860 8
 86  6 19  1  5 41.0800000  0  4G 6G13G 9G11
  21168971.057    21168975.748    40237625.540 8 -46473234.969 8
  21180129.572    21180134.102      315714.937 9  -2072284.427 8
  20137822.725    20137826.198    23068984.847 7 -59488755.137 7
  21634858.722    21634864.087    40711721.829 8 -41450869.499 8
 86  6 19  1  5 47.0800000  0  4G 6G13G 9G11
  21171510.608    21171514.978    40250965.130 9 -46462840.488 8
  21178268.179    21178274.018      305939.936 9  -2079901.303 7
  20136923.238    20136927.035    23064259.088 8 -59492437.549 6
  21637370.290    21637374.551    40724913.446 8 -41440590.313 7
 86  6 19  1  5 53.0800000  0  4G 6G13G 9G11
  21174052.383    21174056.144    40264325.515 8 -46452429.799 8
  21176412.723    21176417.181      296183.767 8  -2087503.518 8
  20136029.296    20136032.541    23059556.726 7 -59496101.733 8
  21639881.941    21639887.468    40738115.065 8 -41430303.337 8
 86  6 19  1  5 59.0800000  0  4G 6G13G 9G11
  21176599.958    21176602.781    40277706.687 8 -46442002.909 7
  21174558.988    21174563.139      286446.442 9  -2095091.033 8
  20135137.033    20135142.574    23054877.793 7 -59499747.657 7
  21642396.733    21642401.137    40751326.656 8 -41420008.605 7
 86  6 19  1  6  5.0800000  0  4G 6G13G 9G11
  21179150.104    21179153.307    40291108.644 9 -46431559.831 8
  21172709.497    21172714.697      276727.948 8  -2102663.878 8
  20134252.580    20134255.324    23050222.182 6 -59503375.404 7
  21644912.276    21644916.539    40764548.156 9 -41409706.128 8
 86  6 19  1  6 11.0800000  0  4G 6G13G 9G11
  21181703.293    21181707.094    40304531.331 9 -46421100.601 7
  21170863.663    21170868.721      267028.333 9  -2110222.021 8
  20133371.399    20133375.434    23045589.802 7 -59506985.045 7
  21647430.402    21647434.526    40777779.455 8 -41399396.023 8
 86  6 19  1  6 17.0800000  0  4G 6G13G 9G11
  21184261.307    21184265.091    40317974.626 8 -46410625.303 8
  21169022.941    21169026.510      257347.484 8  -2117765.528 8
  20132493.794    20132497.354    23040980.760 7 -59510576.514 7
  21649950.531    21649954.810    40791020.552 9 -41389078.295 9
 86  6 19  1  6 23.0800000  0  4G 6G13G 9G11
  21186823.323    21186828.078    40331438.523 8 -46400133.961 8
  21167183.859    21167188.069      247685.368 9  -2125294.461 8
  20131622.244    20131624.129    23036394.872 7 -59514149.923 7
  21652472.326    21652475.658    40804271.420 8 -41378752.943 8
 86  6 19  1  6 29.0800000  0  4G 6G13G 9G11
  21189389.896    21189393.995    40344923.045 9 -46389626.553 8
  21165348.521    21165352.756      238042.000 8  -2132808.761 8
  20130753.090    20130756.123    23031832.360 7 -59517705.132 7
  21654993.434    21654998.642    40817531.975 9 -41368420.046 7
 86  6 19  1  6 35.0800000  0  4G 6G13G 9G11
  21191958.924    21191963.708    40358428.227 9 -46379103.049 8
  21163516.932    21163522.308      228417.383 8  -2140308.459 8
  20129889.494    20129892.803    23027293.172 7 -59521242.149 6
  21657520.221    21657524.652    40830802.253 8 -41358079.574 8
 86  6 19  1  6 41.0800000  0  4G 6G13G 9G11
  21194533.399    21194537.268    40371954.094 8 -46368563.405 9
  21161688.814    21161692.719      218811.638 8  -2147793.456 8
  20129028.636    20129034.652    23022777.460 7 -59524760.894 8
  21660047.686    21660050.960    40844082.380 9 -41347731.421 9
 86  6 19  1  6 47.0800000  0  4G 6G13G 9G11
  21197112.018    21197115.759    40385500.779 9 -46358007.569 8
  21159864.188    21159869.215      209224.745 8  -2155263.750 7
  20128175.461    20128178.874    23018285.220 7 -59528261.343 7
  21662577.249    21662581.032    40857372.288 8 -41337375.646 7
 86  6 19  1  6 53.0800000  0  4G 6G13G 9G11
  21199694.680    21199698.410    40399068.241 9 -46347435.516 8
  21158044.179    21158048.788      199656.764 8  -2162719.319 7
  20127325.401    20127328.141    23013816.586 7 -59531743.390 7
  21665106.484    21665111.166    40870672.073 9 -41327012.180 7
 86  6 19  1  6 59.0800000  0  4G 6G13G 9G11
  21202278.819    21202283.452    40412656.447 8 -46336847.313 7
  21156226.673    21156230.587      190107.784 8  -2170160.073 8
  20126479.243    20126483.487    23009371.513 7 -59535207.071 7
  21667640.632    21667644.789    40883981.739 9 -41316641.026 7
 86  6 19  1  7  5.0800000  0  4G 6G13G 9G11
  21204868.478    21204872.042    40426265.472 8 -46326242.877 8
  21154412.873    21154416.029      180577.726 8  -2177586.093 8
  20125638.328    20125641.467    23004950.101 6 -59538652.338 7
  21670173.948    21670178.427    40897301.256 8 -41306262.174 7
 86  6 19  1  7 11.0800000  0  4G 6G13G 9G11
  21207463.360    21207466.126    40439895.313 8 -46315622.227 7
  21152602.388    21152606.920      171066.631 8  -2184997.321 8
  20124800.806    20124805.178    23000552.384 6 -59542079.136 7
  21672711.147    21672715.231    40910630.526 9 -41295875.733 8
 86  6 19  1  7 17.0800000  0  4G 6G13G 9G11
  21210059.767    21210062.804    40453545.825 9 -46304985.467 8
  21150796.400    21150801.390      161574.537 8  -2192393.763 8
  20123968.880    20123971.837    22996178.287 6 -59545487.522 7
  21675248.880    21675254.156    40923969.526 8 -41285481.711 8
 86  6 19  1  7 23.0800000  0  4G 6G13G 9G11
  21212661.814    21212664.614    40467217.035 9 -46294332.589 8
  21148993.598    21148999.199      152101.284 8  -2199775.523 7
  20123140.373    20123145.535    22991827.672 6 -59548877.595 7
  21677789.307    21677793.020    40937318.243 8 -41275080.101 8
 86  6 19  1  7 29.0800000  0  4G 6G13G 9G11
  21215268.027    21215271.481    40480908.935 8 -46283663.579 8
  21147195.563    21147198.940      142646.888 8  -2207142.579 9
  20122316.208    20122320.051    22987500.754 8 -59552249.227 7
  21680330.268    21680335.534    40950676.620 8 -41264670.990 8
 86  6 19  1  7 35.0800000  0  4G 6G13G 9G11
  21217876.433    21217879.993    40494621.340 8 -46272978.591 9
  21145399.686    21145404.316      133211.340 8  -2214494.942 8
  20121498.385    20121503.746    22983197.353 7 -59555602.520 8
  21682874.587    21682879.585    40964044.548 9 -41254254.422 8
 86  6 19  1  7 41.0800000  0  4G 6G13G 9G11
  21220489.792    21220493.533    40508354.300 8 -46262277.589 8
  21143607.341    21143612.095      123794.577 9  -2221832.685 8
  20120683.851    20120687.299    22978917.503 7 -59558937.465 7
  21685420.684    21685424.306    40977422.083 8 -41243830.369 8
 86  6 19  1  7 47.0800000  0  4G 6G13G 9G11
  21223106.828    21223111.227    40522107.891 9 -46251560.514 8
  21141819.918    21141823.324      114396.593 8  -2229155.773 7
  20119874.906    20119876.757    22974661.242 7 -59562254.036 8
  21687968.076    21687972.830    40990809.130 9 -41233398.913 8
 86  6 19  1  7 53.0800000  0  4G 6G13G 9G11
  21225727.792    21225732.240    40535882.051 8 -46240827.411 8
  21140035.124    21140039.059      105017.391 8  -2236464.248 8
  20119069.003    20119071.048    22970428.558 6 -59565552.232 7
  21690517.654    21690522.847    41004205.749 9 -41222959.989 8
 86  6 19  1  7 59.0800000  0  4G 6G13G 9G11
  21228353.507    21228356.724    40549676.794 9 -46230078.260 8
  21138253.569    21138258.019       95657.013 8  -2243758.049 8
  20118267.117    20118271.692    22966219.511 7 -59568831.990 7
  21693070.048    21693072.430    41017611.886 8 -41212513.648 8
 86  6 19  1  8  5.0800000  0  4G 6G13G 9G11
  21230982.754    21230986.232    40563492.068 8 -46219313.111 8
  21136476.654    21136479.394       86315.453 8  -2251037.173 7
  20117470.855    20117475.854    22962034.144 7 -59572093.330 8
  21695621.669    21695625.507    41031027.550 9 -41202059.891 7
 86  6 19  1  8 11.0800000  0  4G 6G13G 9G11
  21233614.914    21233619.414    40577327.916 8 -46208531.948 7
  21134701.757    21134705.417       76992.685 8  -2258301.673 8
  20116678.705    20116683.338    22957872.343 7 -59575336.292 7
  21698176.232    21698180.460    41044452.693 9 -41191598.743 8
 86  6 19  1  8 17.0800000  0  4G 6G13G 9G11
  21236250.929    21236256.130    40591184.256 9 -46197734.806 7
  21132930.386    21132935.538       67688.810 8  -2265551.439 8
  20115891.231    20115895.870    22953734.361 7 -59578560.697 7
  21700732.804    21700737.090    41057887.308 8 -41181130.218 8
 86  6 19  1  8 23.0800000  0  4G 6G13G 9G11
  21238892.807    21238896.683    40605061.160 8 -46186921.635 8
  21131164.550    21131169.268       58403.791 8  -2272786.517 8
  20115108.172    20115114.744    22949620.053 6 -59581766.655 7
  21703291.333    21703294.449    41071331.405 8 -41170654.296 8
 86  6 19  1  8 29.0800000  0  4G 6G13G 9G11
  21241537.908    21241542.150    40618958.651 9 -46176092.434 8
  21129400.938    21129405.397       49137.767 8  -2280006.797 7
  20114330.113    20114334.104    22945529.519 7 -59584954.065 7
  21705850.842    21705854.631    41084785.074 8 -41160170.919 8
 86  6 19  1  8 35.0800000  0  4G 6G13G 9G11
  21244185.452    21244189.626    40632876.795 8 -46165247.135 8
  21127641.199    21127646.899       39890.733 9  -2287212.268 7
  20113555.801    20113561.793    22941462.785 7 -59588122.961 7
  21708413.224    21708417.835    41098248.244 8 -41149680.133 8
 86  6 19  1  8 41.0800000  0  4G 6G13G 9G11
  21246838.335    21246842.041    40646815.529 8 -46154385.791 8
  21125884.602    21125889.542       30662.691 8  -2294402.955 8
  20112786.275    20112790.991    22937419.810 7 -59591273.329 8
  21710976.028    21710980.946    41111720.947 8 -41139181.936 7
 86  6 19  1  8 47.0800000  0  4G 6G13G 9G11
  21249494.528    21249499.082    40660774.798 9 -46143508.437 8
  21124132.421    21124136.487       21453.506 8  -2301578.937 8
  20112022.068    20112026.282    22933400.759 7 -59594405.068 7
  21713542.794    21713546.945    41125203.076 9 -41128676.380 8
 86  6 19  1  8 53.0800000  0  4G 6G13G 9G11
  21252154.962    21252159.460    40674754.517 8 -46132615.158 8
  21122382.014    21122387.335       12263.211 7  -2308740.207 7
  20111261.744    20111265.514    22929405.471 7 -59597518.269 7
  21716108.832    21716114.257    41138694.592 9 -41118163.522 8
 86  6 19  1  8 59.0800000  0  4G 6G13G 9G11
  21254818.727    21254822.742    40688754.719 9 -46121705.912 8
  21120639.020    21120642.304        3091.734 8  -2315886.805 8
  20110504.950    20110510.103    22925433.942 7 -59600612.971 7
  21718678.408    21718682.992    41152195.439 9 -41107643.377 8
 86  6 19  1  9  5.0800000  0  4G 6G13G 9G11
  21257486.457    21257491.208    40702775.449 8 -46110780.680 8
  21118896.495    21118902.276       -6060.824 8  -2323018.665 8
  20109755.775    20109759.105    22921486.259 7 -59603689.082 8
  21721250.779    21721254.876    41165705.677 9 -41097115.919 8
 86  6 19  1  9 11.0800000  0  4G 6G13G 9G11
  21260159.809    21260162.904    40716816.677 8 -46099839.471 8
  21117157.762    21117162.794      -15194.521 9  -2330135.819 7
  20109006.870    20109012.657    22917562.391 6 -59606746.642 7
  21723821.853    21723827.334    41179225.225 8 -41086581.211 8
 86  6 19  1  9 17.0800000  0  4G 6G13G 9G11
  21262835.201    21262839.980    40730878.291 9 -46088882.370 8
  21115423.717    21115428.440      -24309.434 8  -2337238.360 7
  20108265.218    20108269.734    22913662.424 7 -59609785.597 8
  21726396.529    21726401.009    41192754.018 7 -41076039.300 8
 86  6 19  1  9 23.0800000  0  4G 6G13G 9G11
  21265514.798    21265518.872    40744960.263 9 -46077909.418 8
  21113692.966    21113698.300      -33405.532 8  -2344326.216 8
  20107526.278    20107532.301    22909786.193 7 -59612806.026 7
  21728972.849    21728977.329    41206292.021 8 -41065490.202 8
 86  6 19  1  9 29.0800000  0  4G 6G13G 9G11
  21268198.945    21268202.156    40759062.560 9 -46066920.605 7
  21111966.351    21111970.980      -42482.723 8  -2351399.362 8
  20106795.664    20106799.873    22905933.773 8 -59615807.920 7
  21731550.929    21731555.779    41219839.207 8 -41054933.957 8
 86  6 19  1  9 35.0800000  0  4G 6G13G 9G11
  21270886.141    21270889.911    40773185.276 8 -46055915.901 8
  21110242.494    21110246.268      -51541.142 8  -2358457.856 8
  20106066.489    20106072.470    22902105.139 8 -59618791.264 7
  21734129.990    21734135.249    41233395.542 8 -41044370.593 8
 86  6 19  1  9 41.0800000  0  4G 6G13G 9G11
  21273578.079    21273580.297    40787328.378 8 -46044895.307 7
  21108521.989    21108527.441      -60580.762 7  -2365501.711 8
  20105342.998    20105346.795    22898300.384 7 -59621756.006 7
  21736712.451    21736716.139    41246961.033 8 -41033800.072 9
 86  6 19  1  9 47.0800000  0  4G 6G13G 9G11
  21276272.866    21276275.857    40801491.854 9 -46033858.835 8
  21106805.086    21106810.418      -69601.608 8  -2372530.946 8
  20104623.348    20104626.825    22894519.524 7 -59624702.137 7
  21739294.951    21739299.621    41260535.725 8 -41023222.392 8
 86  6 19  1  9 53.0800000  0  4G 6G13G 9G11
  21278971.414    21278974.988    40815675.738 8 -46022806.470 8
  21105091.859    21105097.722      -78603.535 8  -2379545.421 7
  20103907.144    20103913.471    22890762.630 6 -59627629.589 8
  21741879.706    21741884.949    41274119.660 8 -41012637.519 7
 86  6 19  1  9 59.0800000  0  4G 6G13G 9G11
  21281675.604    21281678.207    40829880.041 8 -46011738.189 8
  21103384.001    21103387.945      -87586.600 9  -2386545.208 7
  20103198.679    20103202.449    22887029.661 7 -59630538.390 8
  21744466.688    21744470.734    41287712.763 8 -41002045.491 8
 86  6 19  1 10  5.0800000  0  4G 6G13G 9G11
  21284381.383    21284385.056    40844104.699 9 -46000654.042 8
  21101676.038    21101681.172      -96550.806 7  -2393530.298 8
  20102493.209    20102497.094    22883320.709 7 -59633428.475 8
  21747054.678    21747060.003    41301314.991 8 -40991446.358 8
 86  6 19  1 10 11.0800000  0  4G 6G13G 9G11
  21287092.428    21287095.196    40858349.731 8 -45989554.028 8
  21099975.076    21099980.068     -105496.198 8  -2400500.722 8
  20101791.315    20101795.166    22879635.763 7 -59636299.861 7
  21749645.310    21749648.683    41314926.356 8 -40980840.091 8
 86  6 19  1 10 17.0800000  0  4G 6G13G 9G11
  21289807.441    21289810.945    40872615.175 8 -45978438.104 8
  21098277.115    21098280.454     -114422.702 7  -2407456.459 7
  20101095.051    20101098.707    22875974.804 8 -59639152.567 7
  21752237.175    21752242.620    41328546.923 8 -40970226.682 8
 86  6 19  1 10 23.0800000  0  4G 6G13G 9G11
  21292526.273    21292528.828    40886901.023 9 -45967306.281 8
  21096580.744    21096585.899     -123330.296 8  -2414397.426 8
  20100402.618    20100406.389    22872337.894 8 -59641986.526 7
  21754831.038    21754835.459    41342176.625 8 -40959606.132 7
 86  6 19  1 10 29.0800000  0  4G 6G13G 9G11
  21295248.321    21295251.036    40901207.219 9 -45956158.600 8
  21094889.476    21094894.404     -132218.971 8  -2421323.667 8
  20099714.097    20099719.244    22868725.048 8 -59644801.726 7
  21757426.507    21757430.658    41355815.499 9 -40948978.436 7
 86  6 19  1 10 35.0800000  0  4G 6G13G 9G11
  21297974.690    21297977.425    40915533.706 9 -45944995.099 7
  21093201.874    21093206.602     -141088.815 8  -2428235.234 8
  20099031.103    20099037.613    22865136.306 8 -59647598.150 7
  21760022.917    21760028.604    41369463.467 8 -40938343.660 8
 86  6 19  1 10 41.0800000  0  4G 6G13G 9G11
  21300705.069    21300707.870    40929880.549 9 -45933815.750 8
  21091518.091    21091521.748     -149939.825 8  -2435132.117 8
  20098353.685    20098357.333    22861571.624 8 -59650375.819 8
  21762621.790    21762626.262    41383120.455 9 -40927701.860 8
 86  6 19  1 10 47.0800000  0  4G 6G13G 9G11
  21303437.799    21303441.845    40944247.739 9 -45922620.538 8
  21089836.385    21089841.881     -158771.874 8  -2442014.228 8
  20097680.421    20097684.157    22858030.923 7 -59653134.793 7
  21765222.504    21765227.638    41396786.507 9 -40917052.992 8
 86  6 19  1 10 53.0800000  0  4G 6G13G 9G11
  21306176.029    21306179.948    40958635.250 9 -45911409.496 8
  21088160.582    21088164.811     -167585.060 8  -2448881.647 8
  20097010.769    20097015.090    22854514.363 7 -59655874.979 8
  21767824.362    21767829.687    41410461.588 8 -40906397.077 8
 86  6 19  1 10 59.0800000  0  4G 6G13G 9G11
  21308917.740    21308922.099    40973042.957 9 -45900182.726 8
  21086486.730    21086491.430     -176379.471 9  -2455734.442 7
  20096346.795    20096350.165    22851022.002 7 -59658596.296 7
  21770429.281    21770433.183    41424145.637 9 -40895734.176 8
 86  6 19  1 11  5.0800000  0  4G 6G13G 9G11
  21311663.248    21311667.671    40987470.942 9 -45888940.141 8
  21084816.303    21084820.862     -185154.954 7  -2462572.463 8
  20095685.808    20095690.584    22847553.560 8 -59661298.987 7
  21773033.355    21773039.200    41437838.649 8 -40885064.323 8
 86  6 19  1 11 11.0800000  0  4G 6G13G 9G11
  21314412.792    21314415.086    41001919.125 8 -45877681.836 8
  21083150.212    21083155.244     -193911.543 8  -2469395.799 8
  20095032.083    20095035.076    22844109.256 7 -59663982.851 7
  21775640.563    21775646.202    41451540.500 8 -40874387.554 8
 86  6 19  1 11 17.0800000  0  4G 6G13G 9G11
  21317166.042    21317169.503    41016387.472 9 -45866407.783 8
  21081486.296    21081492.000     -202649.400 8  -2476204.508 8
  20094380.794    20094383.258    22840689.044 6 -59666647.948 7
  21778250.921    21778255.479    41465251.225 8 -40863703.878 8
 86  6 19  1 11 23.0800000  0  4G 6G13G 9G11
  21319923.026    21319926.957    41030876.033 9 -45855118.007 8
  21079828.013    21079832.850     -211368.408 8  -2482998.539 8
  20093734.358    20093736.774    22837292.970 7 -59669294.233 8
  21780861.169    21780866.401    41478970.790 9 -40853013.298 9
 86  6 19  1 11 29.0800000  0  4G 6G13G 9G11
  21322683.479    21322687.072    41045384.825 8 -45843812.469 8
  21078172.738    21078176.933     -220068.618 8  -2489777.921 8
  20093092.174    20093095.509    22833921.040 8 -59671921.724 8
  21783473.655    21783479.156    41492699.217 8 -40842315.836 8
 86  6 19  1 11 35.0800000  0  4G 6G13G 9G11
  21325447.729    21325453.266    41059913.810 9 -45832491.179 8
  21076519.461    21076525.507     -228750.016 8  -2496542.636 8
  20092456.186    20092458.900    22830573.262 8 -59674530.362 7
  21786089.343    21786092.855    41506436.486 8 -40831611.449 8
 86  6 19  1 11 41.0800000  0  4G 6G13G 9G11
  21328216.991    21328220.688    41074462.955 9 -45821154.189 8
  21074871.534    21074876.609     -237412.618 7  -2503292.706 9
  20091821.793    20091825.955    22827249.648 8 -59677120.201 7
  21788703.472    21788709.143    41520182.634 8 -40820900.191 8
 86  6 19  1 11 47.0800000  0  4G 6G13G 9G11
  21330990.061    21330992.929    41089032.314 9 -45809801.451 8
  21073227.461    21073231.502     -246056.386 8  -2510028.102 8
  20091195.300    20091196.744    22823950.204 7 -59679691.184 7
  21791321.848    21791326.524    41533937.588 8 -40810182.038 8
 86  6 19  1 11 53.0800000  0  4G 6G13G 9G11
  21333765.307    21333769.659    41103621.854 9 -45798432.970 8
  21071585.445    21071590.806     -254681.339 8  -2516748.860 8
  20090571.055    20090575.249    22820674.971 7 -59682243.315 8
  21793941.122    21793944.679    41547701.334 8 -40799457.051 8
 86  6 19  1 11 59.0800000  0  4G 6G13G 9G11
  21336546.372    21336548.500    41118231.566 8 -45787048.793 8
  21069948.367    21069952.085     -263287.369 9  -2523454.852 8
  20089953.285    20089955.942    22817424.098 6 -59684776.467 7
  21796560.426    21796565.833    41561473.926 8 -40788725.164 7
 86  6 19  1 12  5.0800000  0  4G 6G13G 9G11
  21339330.212    21339334.279    41132861.414 8 -45775648.917 8
  21068314.000    21068318.937     -271874.486 8  -2530146.096 7
  20089339.094    20089341.961    22814197.362 7 -59687290.814 8
  21799184.566    21799188.846    41575255.276 9 -40777986.447 8
 86  6 19  1 12 11.0800000  0  4G 6G13G 9G11
  21342117.684    21342121.989    41147511.386 8 -45764233.364 8
  21066683.165    21066688.899     -280442.789 8  -2536822.703 9
  20088729.084    20088733.950    22810994.857 8 -59689786.274 7
  21801808.695    21801812.817    41589045.366 8 -40767240.934 8
 86  6 19  1 12 17.0800000  0  4G 6G13G 9G11
  21344908.858    21344912.522    41162181.461 8 -45752802.131 8
  21065056.243    21065061.967     -288992.290 8  -2543484.642 8
  20088124.766    20088128.024    22807816.579 7 -59692262.836 7
  21804435.181    21804438.366    41602844.183 8 -40756488.606 9
 86  6 19  1 12 23.0800000  0  4G 6G13G 9G11
  21347705.100    21347708.650    41176871.645 9 -45741355.249 7
  21063432.252    21063437.328     -297522.921 8  -2550131.889 8
  20087524.939    20087527.217    22804662.681 8 -59694720.421 8
  21807061.673    21807065.380    41616651.689 7 -40745729.508 8
 86  6 19  1 12 29.0800000  0  4G 6G13G 9G11
  21350504.562    21350508.103    41191581.931 8 -45729892.697 9
  21061813.914    21061817.519     -306034.721 9  -2556764.456 8
  20086928.635    20086931.588    22801532.958 7 -59697159.159 7
  21809691.108    21809694.137    41630467.866 9 -40734963.664 8
 86  6 19  1 12 35.0800000  0  4G 6G13G 9G11
  21353307.772    21353312.244    41206312.233 8 -45718414.535 8
  21060198.204    21060201.737     -314527.709 9  -2563382.352 8
  20086337.673    20086340.790    22798427.539 7 -59699578.967 8
  21812321.572    21812326.208    41644292.632 8 -40724191.123 9
 86  6 19  1 12 41.0800000  0  4G 6G13G 9G11
  21356115.280    21356118.200    41221062.561 8 -45706920.785 8
  21058585.237    21058589.316     -323001.908 8  -2569985.625 8
  20085751.840    20085754.800    22795346.410 7 -59701979.851 7
  21814954.137    21814959.412    41658126.014 9 -40713411.877 8
 86  6 19  1 12 47.0800000  0  4G 6G13G 9G11
  21358924.441    21358928.925    41235832.963 9 -45695411.381 8
  21056975.196    21056980.101     -331457.315 9  -2576574.252 8
  20085169.618    20085173.889    22792289.595 6 -59704361.776 7
  21817588.088    21817593.289    41671967.990 8 -40702625.917 8
 86  6 19  1 12 53.0800000  0  4G 6G13G 9G11
  21361739.022    21361743.401    41250623.326 9 -45683886.437 8
  21055370.188    21055375.590     -339893.978 8  -2583148.279 7
  20084592.911    20084596.201    22789257.086 8 -59706724.789 7
  21820224.111    21820227.603    41685818.558 8 -40691833.270 9
 86  6 19  1 12 59.0800000  0  4G 6G13G 9G11
  21364558.206    21364563.110    41265433.748 8 -45672345.850 8
  21053768.487    21053772.409     -348311.795 7  -2589707.604 8
  20084021.849    20084024.163    22786248.924 7 -59709068.810 7
  21822861.238    21822866.042    41699677.770 8 -40681033.893 9
 86  6 19  1 13  5.0800000  0  4G 6G13G 9G11
  21367381.016    21367383.161    41280264.242 9 -45660789.630 8
  21052171.041    21052174.135     -356710.715 8  -2596252.225 8
  20083453.347    20083456.333    22783265.129 8 -59711393.841 8
  21825501.170    21825505.049    41713545.526 8 -40670227.855 7
 86  6 19  1 13 11.0800000  0  4G 6G13G 9G11
  21370206.346    21370210.038    41295114.746 9 -45649217.804 8
  21050575.968    21050578.712     -365090.816 8  -2602782.170 8
  20082891.020    20082892.390    22780305.782 8 -59713699.821 8
  21828140.940    21828145.253    41727421.813 9 -40659415.162 8
 86  6 19  1 13 17.0800000  0  4G 6G13G 9G11
  21373036.098    21373040.022    41309985.313 9 -45637630.349 7
  21048985.487    21048988.354     -373452.011 8  -2609297.380 7
  20082330.513    20082335.609    22777370.824 8 -59715986.813 7
  21830782.943    21830786.974    41741306.724 9 -40648595.751 7
 86  6 19  1 13 23.0800000  0  4G 6G13G 9G11
  21375869.197    21375874.387    41324875.948 9 -45626027.267 8
  21047396.996    21047400.469     -381794.312 8  -2615797.873 8
  20081777.648    20081780.285    22774460.366 7 -59718254.696 7
  21833426.595    21833431.291    41755200.237 8 -40637769.643 8
 86  6 19  1 13 29.0800000  0  4G 6G13G 9G11
  21378706.411    21378710.139    41339786.616 8 -45614408.556 7
  21045813.566    21045817.732     -390117.638 8  -2622283.579 8
  20081228.034    20081231.175    22771574.447 7 -59720503.462 8
  21836072.880    21836076.696    41769102.328 8 -40626936.840 9
 86  6 19  1 13 35.0800000  0  4G 6G13G 9G11
  21381547.638    21381551.288    41354717.394 9 -45602774.210 8
  21044233.157    21044236.124     -398422.036 8  -2628754.540 8
  20080684.654    20080686.839    22768713.021 8 -59722733.161 7
  21838719.331    21838724.492    41783012.954 9 -40616097.403 8
 86  6 19  1 13 41.0800000  0  4G 6G13G 9G11
  21384393.151    21384396.371    41369668.150 8 -45591124.263 8
  21042657.232    21042660.888     -406707.594 8  -2635210.808 7
  20080144.475    20080147.086    22765876.006 7 -59724943.811 7
  21841368.753    21841373.098    41796932.065 8 -40605251.358 8
 86  6 19  1 13 47.0800000  0  4G 6G13G 9G11
  21387242.308    21387245.282    41384638.825 9 -45579458.817 8
  21041082.751    21041087.125     -414974.321 8  -2641652.411 8
  20079608.795    20079611.279    22763063.490 7 -59727135.391 8
  21844019.187    21844022.002    41810859.622 9 -40594398.704 8
 86  6 19  1 13 53.0800000  0  4G 6G13G 9G11
  21390094.392    21390098.658    41399629.355 9 -45567777.883 7
  21039512.370    21039517.773     -423222.361 8  -2648079.444 8
  20079079.506    20079081.589    22760275.427 7 -59729307.906 7
  21846671.040    21846674.411    41824795.493 8 -40583539.587 8
 86  6 19  1 13 59.0800000  0  4G 6G13G 9G11
  21392950.920    21392954.941    41414639.835 8 -45556081.420 8
  21037948.883    21037951.817     -431451.577 8  -2654491.816 8
  20078552.186    20078555.914    22757511.856 8 -59731461.339 8
  21849323.754    21849328.004    41838739.737 9 -40572673.954 8
 86  6 19  1 14  5.0800000  0  4G 6G13G 9G11
  21395810.058    21395815.687    41429670.119 9 -45544369.522 8
  21036385.301    21036389.814     -439662.105 8  -2660889.629 7
  20078031.990    20078034.342    22754772.654 8 -59733595.771 8
  21851978.698    21851982.674    41852692.271 8 -40561801.842 8
 86  6 19  1 14 11.0800000  0  4G 6G13G 9G11
  21398674.580    21398678.743    41444720.215 9 -45532642.165 8
  21034826.839    21034830.996     -447853.901 8  -2667272.850 9
  20077515.345    20077517.868    22752057.895 7 -59735711.174 8
  21854636.025    21854639.636    41866653.101 7 -40550923.294 8
 86  6 19  1 14 17.0800000  0  4G 6G13G 9G11
  21401541.663    21401546.792    41459790.127 9 -45520899.387 8
  21033270.991    21033275.670     -456026.976 8  -2673641.472 8
  20077003.364    20077005.578    22749367.527 7 -59737807.563 8
  21857293.797    21857298.095    41880622.227 9 -40540038.246 9
 86  6 19  1 14 23.0800000  0  4G 6G13G 9G11
  21404414.395    21404417.901    41474879.866 8 -45509141.161 8
  21031719.369    21031723.218     -464181.273 7  -2679995.464 8
  20076495.291    20076499.168    22746701.742 7 -59739884.794 8
  21859954.029    21859958.299    41894599.631 8 -40529146.776 8
 86  6 19  1 14 29.0800000  0  4G 6G13G 9G11
  21407289.824    21407292.840    41489989.328 9 -45497367.557 7
  21030171.953    21030176.357     -472316.819 9  -2686334.844 7
  20075992.226    20075995.607    22744060.390 7 -59741943.000 8
  21862615.340    21862620.181    41908585.310 8 -40518248.844 8
 86  6 19  1 14 35.0800000  0  4G 6G13G 9G11
  21410168.239    21410170.578    41505118.621 8 -45485578.506 7
  21028626.269    21028632.019     -480433.575 9  -2692659.592 7
  20075494.326    20075498.100    22741443.609 7 -59743982.049 8
  21865277.702    21865283.117    41922579.236 9 -40507344.489 8
 86  6 19  1 14 41.0800000  0  4G 6G13G 9G11
  21413051.055    21413055.040    41520267.855 7 -45473773.898 8
  21027087.442    21027090.690     -488531.472 8  -2698969.634 8
  20075001.353    20075005.526    22738851.432 7 -59746001.929 7
  21867942.092    21867947.770    41936581.434 8 -40496433.689 8
 86  6 19  1 14 47.0800000  0  4G 6G13G 9G11
  21415938.151    21415942.403    41535436.955 8 -45461953.830 7
  21025548.411    21025552.051     -496610.468 8  -2705264.952 7
  20074513.170    20074517.271    22736283.886 7 -59748002.612 8
  21870608.111    21870612.732    41950591.966 8 -40485516.393 8
 86  6 19  1 14 53.0800000  0  4G 6G13G 9G11
  21418827.711    21418830.548    41550625.958 9 -45450118.261 8
  21024015.181    21024018.081     -504670.587 9  -2711545.563 8
  20074028.683    20074031.315    22733740.952 7 -59749984.116 7
  21873276.764    21873280.441    41964610.797 8 -40474592.629 8
 86  6 19  1 14 59.0800000  0  4G 6G13G 9G11
  21421722.855    21421725.589    41565834.761 8 -45438267.243 9
  21022485.120    21022489.253     -512711.937 8  -2717811.553 8
  20073550.577    20073554.225    22731222.781 8 -59751946.337 7
  21875944.548    21875950.558    41978637.898 8 -40463662.424 8
 86  6 19  1 15  5.0800000  0  4G 6G13G 9G11
  21424620.619    21424624.058    41581063.373 8 -45426400.785 7
  21020958.501    21020961.737     -520734.447 9  -2724062.851 8
  20073075.671    20073078.941    22728729.150 6 -59753889.424 7
  21878616.601    21878622.040    41992673.249 9 -40452725.791 8
 86  6 19  1 15 11.0800000  0  4G 6G13G 9G11
  21427521.481    21427525.435    41596311.755 8 -45414518.949 8
  21019434.769    21019439.205     -528738.090 8  -2730299.459 8
  20072606.116    20072608.877    22726260.233 7 -59755813.255 7
  21881288.715    21881294.077    42006716.751 7 -40441782.809 7
 86  6 19  1 15 17.0800000  0  4G 6G13G 9G11
  21430427.451    21430431.219    41611579.915 8 -45402621.690 8
  21017914.691    21017919.805     -536722.985 8  -2736521.437 8
  20072140.358    20072143.170    22723816.019 7 -59757717.843 6
  21883962.537    21883967.215    42020768.436 8 -40430833.444 8
 86  6 19  1 15 23.0800000  0  4G 6G13G 9G11
  21433337.897    21433341.027    41626867.892 8 -45390708.984 8
  21016399.548    21016402.656     -544689.037 8  -2742728.750 7
  20071680.359    20071683.028    22721396.454 7 -59759603.211 7
  21886638.677    21886643.461    42034828.315 8 -40419877.710 8
 86  6 19  1 15 29.0800000  0  4G 6G13G 9G11
  21436249.090    21436253.028    41642175.593 8 -45378780.906 8
  21014888.039    21014891.667     -552636.222 7  -2748921.355 8
  20071224.716    20071227.252    22719001.512 7 -59761469.395 8
  21889315.865    21889319.690    42048896.293 8 -40408915.638 8
 86  6 19  1 15 35.0800000  0  4G 6G13G 9G11
  21439165.573    21439170.328    41657503.049 9 -45366837.442 8
  21013377.684    21013382.501     -560564.692 8  -2755099.380 8
  20070773.824    20070775.705    22716631.283 8 -59763316.337 7
  21891994.836    21891999.039    42062972.364 9 -40397947.277 8
 86  6 19  1 15 41.0800000  0  4G 6G13G 9G11
  21442086.169    21442091.526    41672850.199 8 -45354878.641 8
  21011873.620    21011878.166     -568474.387 7  -2761262.781 8
  20070328.094    20070329.945    22714285.823 8 -59765143.968 8
  21894674.805    21894679.693    42077056.530 8 -40386972.608 8
 86  6 19  1 15 47.0800000  0  4G 6G13G 9G11
  21445011.190    21445014.756    41688216.994 9 -45342904.526 8
  21010370.144    21010376.783     -576365.360 8  -2767411.580 8
  20069884.863    20069887.464    22711965.003 8 -59766952.406 6
  21897356.389    21897359.826    42091148.760 9 -40375991.657 8
 86  6 19  1 15 53.0800000  0  4G 6G13G 9G11
  21447938.997    21447942.243    41703603.429 8 -45330915.090 8
  21008872.938    21008877.536     -584237.641 8  -2773545.818 8
  20069448.118    20069451.171    22709668.858 7 -59768741.591 7
  21900038.223    21900043.626    42105248.930 9 -40365004.506 7
 86  6 19  1 15 59.0800000  0  4G 6G13G 9G11
  21450870.131    21450873.313    41719009.502 8 -45318910.365 8
  21007379.599    21007382.871     -592091.120 9  -2779665.409 8
  20069015.492    20069018.818    22707397.466 8 -59770511.516 7
  21902723.841    21902728.528    42119357.096 9 -40354011.140 8
 86  6 19  1 16  5.0800000  0  4G 6G13G 9G11
  21453806.263    21453811.633    41734435.244 8 -45306890.301 8
  21005887.877    21005892.229     -599925.827 9  -2785770.379 8
  20068587.295    20068591.460    22705150.731 7 -59772262.227 7
  21905409.740    21905415.345    42133473.206 9 -40343011.573 8
 86  6 19  1 16 11.0800000  0  4G 6G13G 9G11
  21456744.906    21456749.244    41749880.533 9 -45294855.023 8
  21004399.696    21004405.439     -607741.740 8  -2791860.684 7
  20068164.067    20068167.690    22702928.692 8 -59773993.686 7
  21908097.693    21908102.756    42147597.247 8 -40332005.835 8
 86  6 19  1 16 17.0800000  0  4G 6G13G 9G11
  21459688.177    21459690.960    41765345.401 8 -45282804.492 7
  21002916.569    21002921.608     -615538.991 8  -2797936.479 7
  20067748.300    20067750.342    22700731.381 7 -59775705.871 8
  21910786.074    21910791.566    42161729.207 8 -40320993.924 9
 86  6 19  1 16 23.0800000  0  4G 6G13G 9G11
  21462635.412    21462638.391    41780829.828 9 -45270738.712 8
  21001437.065    21001441.609     -623317.529 8  -2803997.666 8
  20067334.355    20067336.216    22698558.764 7 -59777398.827 8
  21913477.216    21913481.969    42175869.072 9 -40309975.836 8
 86  6 19  1 16 29.0800000  0  4G 6G13G 9G11
  21465584.696    21465587.229    41796333.870 8 -45258657.648 8
  20999959.346    20999964.118     -631077.371 9  -2810044.285 8
  20066925.230    20066928.696    22696410.980 7 -59779072.413 8
  21916169.245    21916174.653    42190016.809 9 -40298951.636 8
 86  6 19  1 16 35.0800000  0  4G 6G13G 9G11
  21468538.950    21468543.249    41811857.420 7 -45246561.387 8
  20998487.602    20998490.652     -638818.518 8  -2816076.337 7
  20066521.129    20066525.109    22694287.982 7 -59780726.690 8
  21918863.511    21918867.978    42204172.355 9 -40287921.339 9
 86  6 19  1 16 41.0800000  0  4G 6G13G 9G11
  21471496.669    21471501.402    41827400.575 8 -45234449.841 8
  20997016.530    20997020.886     -646540.836 9  -2822093.727 8
  20066122.103    20066125.864    22692189.755 7 -59782361.679 8
  21921558.865    21921562.583    42218335.799 8 -40276884.895 8
 86  6 19  1 16 47.0800000  0  4G 6G13G 9G11
  21474458.478    21474461.577    41842963.248 9 -45222323.094 8
  20995550.684    20995556.030     -654244.448 8  -2828096.534 7
  20065727.817    20065730.233    22690116.345 7 -59783977.325 7
  21924255.578    21924260.113    42232507.175 8 -40265842.263 8
 86  6 19  1 16 53.0800000  0  4G 6G13G 9G11
  21477422.929    21477427.377    41858545.501 8 -45210181.086 8
  20994087.978    20994092.793     -661929.407 8  -2834084.819 8
  20065338.361    20065341.497    22688067.784 8 -59785573.614 7
  21926953.894    21926958.882    42246686.400 9 -40254793.523 8
 86  6 19  1 16 59.0800000  0  4G 6G13G 9G11
  21480392.380    21480396.302    41874147.262 8 -45198023.872 7
  20992631.315    20992633.782     -669595.580 8  -2840058.453 7
  20064952.229    20064955.937    22686044.074 7 -59787150.547 7
  21929652.579    21929657.659    42260873.443 8 -40243738.691 8
 86  6 19  1 17  5.0800000  0  4G 6G13G 9G11
  21483365.289    21483368.588    41889768.559 8 -45185851.443 7
  20991174.451    20991179.865     -677242.955 9  -2846017.450 7
  20064572.209    20064576.557    22684045.233 8 -59788708.081 7
  21932354.825    21932360.153    42275068.288 8 -40232677.771 8
 86  6 19  1 17 11.0800000  0  4G 6G13G 9G11
  21486341.469    21486345.041    41905409.363 9 -45173663.816 8
  20989724.073    20989726.207     -684871.554 8  -2851961.802 8
  20064197.363    20064199.215    22682071.183 7 -59790246.298 7
  21935056.989    21935061.929    42289270.869 8 -40221610.828 9
 86  6 19  1 17 17.0800000  0  4G 6G13G 9G11
  21489320.912    21489326.290    41921069.603 8 -45161461.035 8
  20988275.757    20988278.903     -692481.463 9  -2857891.593 8
  20063825.878    20063828.753    22680121.950 8 -59791765.188 7
  21937760.573    21937766.192    42303481.189 8 -40210537.853 8
 86  6 19  1 17 23.0800000  0  4G 6G13G 9G11
  21492304.929    21492310.094    41936749.284 8 -45149243.104 8
  20986830.593    20986833.520     -700072.646 8  -2863806.806 7
  20063459.756    20063462.947    22678197.648 6 -59793264.644 8
  21940466.569    21940471.816    42317699.241 8 -40199458.856 8
 86  6 19  1 17 29.0800000  0  4G 6G13G 9G11
  21495292.326    21495297.197    41952448.470 9 -45137009.992 8
  20985389.421    20985394.294     -707645.038 9  -2869707.371 8
  20063098.212    20063101.050    22676298.255 7 -59794744.683 7
  21943174.698    21943179.106    42331925.049 8 -40188373.814 9
 86  6 19  1 17 35.0800000  0  4G 6G13G 9G11
  21498281.853    21498287.512    41968167.075 9 -45124761.728 8
  20983952.161    20983956.697     -715198.671 8  -2875593.316 7
  20062742.412    20062744.332    22674423.720 6 -59796205.362 7
  21945882.354    21945886.839    42346158.534 8 -40177282.797 8
 86  6 19  1 17 41.0800000  0  4G 6G13G 9G11
  21501277.540    21501281.779    41983905.174 9 -45112498.288 8
  20982518.974    20982522.842     -722733.576 8  -2881464.669 8
  20062389.860    20062393.206    22672574.143 7 -59797646.598 8
  21948592.696    21948598.526    42360399.759 8 -40166185.732 8
 86  6 19  1 17 47.0800000  0  4G 6G13G 9G11
  21504275.888    21504280.765    41999662.734 7 -45100219.669 7
  20981087.266    20981091.822     -730249.674 8  -2887321.372 8
  20062040.354    20062047.048    22670749.637 7 -59799068.287 7
  21951304.928    21951309.536    42374648.662 8 -40155082.700 7
 86  6 19  1 17 53.0800000  0  4G 6G13G 9G11
  21507279.101    21507282.887    42015439.834 8 -45087925.829 7
  20979661.600    20979665.720     -737746.969 8  -2893163.410 8
  20061700.910    20061702.886    22668950.063 8 -59800470.562 8
  21954016.137    21954020.750    42388905.340 9 -40143973.598 9
 86  6 19  1 17 59.0800000  0  4G 6G13G 9G11
  21510285.644    21510288.557    42031236.424 9 -45075616.810 7
  20978238.817    20978243.006     -745225.431 8  -2898990.783 8
  20061362.365    20061365.697    22667175.607 7 -59801853.256 7
  21956730.408    21956736.696    42403169.750 8 -40132858.492 8
 86  6 19  1 18  5.0800000  0  4G 6G13G 9G11
  21513295.169    21513298.800    42047052.487 8 -45063292.611 8
  20976818.531    20976823.726     -752685.087 8  -2904803.500 7
  20061028.283    20061032.519    22665426.185 7 -59803216.440 8
  21959447.454    21959452.306    42417441.804 9 -40121737.410 8
 86  6 19  1 18 11.0800000  0  4G 6G13G 9G11
  21516308.593    21516312.432    42062887.890 8 -45050953.344 7
  20975402.236    20975408.588     -760126.046 8  -2910601.651 8
  20060701.289    20060704.299    22663701.769 7 -59804560.144 8
  21962163.651    21962169.154    42431721.477 7 -40110610.398 8
 86  6 19  1 18 17.0800000  0  4G 6G13G 9G11
  21519324.847    21519329.954    42078742.619 8 -45038599.013 8
  20973991.210    20973994.020     -767548.398 8  -2916385.299 7
  20060377.894    20060381.531    22662002.246 7 -59805884.446 7
  21964882.910    21964888.225    42446008.698 7 -40099477.496 9
 86  6 19  1 18 23.0800000  0  4G 6G13G 9G11
  21522345.107    21522349.935    42094616.662 8 -45026229.635 8
  20972581.440    20972586.066     -774952.105 8  -2922154.417 7
  20060059.269    20060062.650    22660327.738 8 -59807189.266 7
  21967603.248    21967607.609    42460303.454 7 -40088338.743 8
 86  6 19  1 18 29.0800000  0  4G 6G13G 9G11
  21525370.623    21525374.423    42110509.955 8 -45013845.263 8
  20971176.817    20971180.465     -782337.186 9  -2927909.025 8
  20059745.096    20059748.300    22658678.091 8 -59808474.704 8
  21970325.995    21970329.920    42474605.676 8 -40077194.155 8
 86  6 19  1 18 35.0800000  0  4G 6G13G 9G11
  21528399.466    21528402.587    42126422.568 9 -45001445.820 8
  20969775.020    20969778.741     -789703.676 8  -2933649.136 8
  20059435.419    20059439.389    22657053.474 7 -59809740.637 8
  21973047.525    21973053.105    42488915.429 7 -40066043.701 9
 86  6 19  1 18 41.0800000  0  4G 6G13G 9G11
  21531430.055    21531434.072    42142354.455 8 -44989031.369 8
  20968376.218    20968381.688     -797051.465 9  -2939374.690 8
  20059131.432    20059135.133    22655453.928 8 -59810987.028 7
  21975772.391    21975778.215    42503232.665 8 -40054887.402 8
 86  6 19  1 18 47.0800000  0  4G 6G13G 9G11
  21534466.447    21534468.503    42158305.628 8 -44976601.887 8
  20966982.352    20966985.255     -804380.486 9  -2945085.616 8
  20058831.483    20058835.501    22653879.496 8 -59812213.863 7
  21978498.349    21978504.037    42517557.397 8 -40043725.282 8
 86  6 19  1 18 53.0800000  0  4G 6G13G 9G11
  21537504.841    21537508.388    42174276.146 8 -44964157.335 8
  20965590.338    20965595.096     -811690.735 9  -2950781.910 8
  20058536.440    20058540.553    22652330.097 7 -59813421.211 7
  21981225.847    21981230.817    42531889.583 8 -40032557.336 8
 86  6 19  1 18 59.0800000  0  4G 6G13G 9G11
  21540546.725    21540550.552    42190265.871 8 -44951697.816 8
  20964203.155    20964207.612     -818982.339 8  -2956463.678 7
  20058246.001    20058249.728    22650805.672 7 -59814609.061 8
  21983954.310    21983960.302    42546229.192 8 -40021383.640 8
 86  6 19  1 19  5.0800000  0  4G 6G13G 9G11
  21543594.061    21543598.467    42206274.793 9 -44939223.341 7
  20962818.463    20962823.433     -826255.308 8  -2962130.923 8
  20057961.459    20057964.855    22649306.278 8 -59815777.424 8
  21986684.627    21986689.606    42560576.299 7 -40010204.068 8
 86  6 19  1 19 11.0800000  0  4G 6G13G 9G11
  21546644.539    21546647.813    42222302.898 8 -44926733.908 8
  20961438.284    20961442.134     -833509.671 9  -2967783.673 8
  20057681.303    20057684.280    22647831.918 7 -59816926.284 8
  21989415.322    21989420.817    42574930.758 8 -39999018.782 9
 86  6 19  1 19 17.0800000  0  4G 6G13G 9G11
  21549697.478    21549701.459    42238350.139 9 -44914229.574 8
  20960061.945    20960066.177     -840745.427 9  -2973421.926 8
  20057405.851    20057407.380    22646382.545 6 -59818055.648 8
  21992149.147    21992154.483    42589292.526 8 -39987827.795 8
 86  6 19  1 19 23.0800000  0  4G 6G13G 9G11
  21552755.486    21552758.668    42254416.526 9 -44901710.313 8
  20958688.795    20958693.523     -847962.641 8  -2979045.735 8
  20057134.076    20057137.430    22644958.241 7 -59819165.505 7
  21994883.169    21994887.919    42603661.606 7 -39976631.109 8
 86  6 19  1 19 29.0800000  0  4G 6G13G 9G11
  21555815.656    21555819.669    42270502.099 8 -44889176.118 8
  20957318.554    20957322.678     -855161.235 9  -2984655.020 8
  20056867.398    20056871.014    22643559.085 8 -59820255.754 8
  21997619.401    21997624.409    42618038.015 8 -39965428.728 7
 86  6 19  1 19 35.0800000  0  4G 6G13G 9G11
  21558881.751    21558883.839    42286606.825 8 -44876626.978 8
  20955952.231    20955955.293     -862341.131 8  -2990249.732 8
  20056606.258    20056609.730    22642184.970 8 -59821326.496 7
  22000356.264    22000362.132    42632421.725 8 -39954220.641 9
 86  6 19  1 19 41.0800000  0  4G 6G13G 9G11
  21561949.362    21561952.623    42302730.697 8 -44864062.930 8
  20954589.477    20954594.428     -869502.279 8  -2995829.853 8
  20056350.132    20056353.398    22640836.133 8 -59822377.544 8
  22003094.507    22003100.058    42646812.769 8 -39943006.834 8
 86  6 19  1 19 47.0800000  0  4G 6G13G 9G11
  21565020.589    21565025.119    42318873.809 9 -44851483.896 8
  20953229.945    20953234.608     -876644.750 8  -3001395.409 8
  20056098.312    20056102.321    22639512.341 7 -59823409.058 8
  22005834.356    22005840.576    42661211.120 8 -39931787.345 9
 86  6 19  1 19 53.0800000  0  4G 6G13G 9G11
  21568096.044    21568100.966    42335036.022 9 -44838889.969 8
  20951875.408    20951879.539     -883768.512 9  -3006946.397 8
  20055850.580    20055854.518    22638213.689 7 -59824421.006 7
  22008575.144    22008580.584    42675616.772 8 -39920562.183 8
 86  6 19  1 19 59.0800000  0  4G 6G13G 9G11
  21571175.885    21571179.505    42351217.376 8 -44826281.123 8
  20950522.826    20950526.970     -890873.596 8  -3012482.825 8
  20055607.777    20055613.093    22636940.251 7 -59825413.289 7
  22011319.107    22011323.676    42690029.726 7 -39909331.317 8
 86  6 19  1 20  5.0800000  0  4G 6G13G 9G11
  21574259.656    21574263.916    42367417.881 9 -44813657.366 9
  20949173.063    20949178.231     -897960.065 8  -3018004.742 8
  20055371.038    20055374.044    22635691.991 8 -59826385.973 7
  22014062.237    22014067.445    42704449.979 7 -39898094.740 8
 86  6 19  1 20 11.0800000  0  4G 6G13G 9G11
  21577345.711    21577349.525    42383637.467 9 -44801018.734 7
  20947828.470    20947832.529     -905027.884 8  -3023512.129 8
  20055137.400    20055142.110    22634469.064 8 -59827338.907 8
  22016808.499    22016812.873    42718877.465 7 -39886852.550 9
 86  6 19  1 20 17.0800000  0  4G 6G13G 9G11
  21580435.395    21580438.959    42399876.176 9 -44788365.206 8
  20946487.678    20946491.846     -912077.002 8  -3029004.935 8
  20054909.602    20054913.012    22633271.327 9 -59828272.212 7
  22019555.246    22019560.619    42733312.179 7 -39875604.738 9
 86  6 19  1 20 23.0800000  0  4G 6G13G 9G11
  21583528.498    21583532.036    42416133.901 9 -44775696.843 8
  20945149.479    20945154.448     -919107.394 9  -3034483.177 8
  20054686.445    20054690.590    22632098.913 7 -59829185.771 8
  22022303.576    22022308.010    42747754.102 7 -39864351.279 8
 86  6 19  1 20 29.0800000  0  4G 6G13G 9G11
  21586625.476    21586630.003    42432410.795 8 -44763013.564 8
  20943815.032    20943820.595     -926119.229 8  -3039946.931 7
  20054469.099    20054471.828    22630951.666 7 -59830079.746 8
  22025052.202    22025058.202    42762203.224 8 -39853092.240 8
 86  6 19  1 20 35.0800000  0  4G 6G13G 9G11
  21589727.467    21589731.695    42448706.666 8 -44750315.490 8
  20942484.658    20942489.186     -933112.427 8  -3045396.173 8
  20054254.937    20054258.562    22629829.641 8 -59830954.049 7
  22027804.100    22027808.589    42776659.493 7 -39841827.608 8
 86  6 19  1 20 41.0800000  0  4G 6G13G 9G11
  21592831.315    21592837.137    42465021.516 8 -44737602.631 7
  20941157.210    20941162.355     -940087.027 8  -3050830.919 7
  20054046.770    20054049.130    22628732.758 7 -59831808.761 7
  22030555.890    22030561.469    42791122.858 8 -39830557.461 7
 86  6 19  1 20 47.0800000  0  4G 6G13G 9G11
  21595940.426    21595944.925    42481355.363 8 -44724874.966 8
  20939833.770    20939838.511     -947042.982 8  -3056251.145 9
  20053842.499    20053845.539    22627661.063 7 -59832643.851 7
  22033308.668    22033314.480    42805593.308 7 -39819281.791 8
 86  6 19  1 20 53.0800000  0  4G 6G13G 9G11
  21599051.372    21599056.407    42497708.229 9 -44712132.476 8
  20938514.152    20938517.751     -953980.360 8  -3061656.879 8
  20053643.280    20053646.971    22626614.710 8 -59833459.186 8
  22036063.393    22036070.078    42820070.809 8 -39808000.623 9
 86  6 19  1 20 59.0800000  0  4G 6G13G 9G11
  21602167.972    21602172.257    42514080.073 8 -44699375.205 8
  20937197.531    20937201.596     -960899.150 9  -3067048.137 9
  20053450.078    20053451.753    22625593.783 7 -59834254.725 7
  22038819.453    22038826.086    42834555.414 8 -39796713.912 8
 86  6 19  1 21  5.0800000  0  4G 6G13G 9G11
  21605286.596    21605290.371    42530470.842 8 -44686603.182 8
  20935883.223    20935889.204     -967799.217 8  -3072424.825 8
  20053260.852    20053263.340    22624598.041 8 -59835030.628 8
  22041578.467    22041583.906    42849047.099 8 -39785421.699 8
 86  6 19  1 21 11.0800000  0  4G 6G13G 9G11
  21608409.053    21608413.758    42546880.597 8 -44673816.366 8
  20934574.132    20934579.772     -974680.679 9  -3077787.001 8
  20053075.904    20053078.684    22623627.633 7 -59835786.781 7
  22044337.931    22044342.661    42863545.889 7 -39774123.954 8
 86  6 19  1 21 17.0800000  0  4G 6G13G 9G11
  21611536.397    21611539.411    42563309.324 8 -44661014.756 7
  20933269.057    20933272.444     -981543.497 9  -3083134.640 9
  20052894.340    20052897.620    22622682.376 7 -59836523.360 7
  22047097.825    22047103.921    42878051.743 9 -39762820.686 8
 86  6 19  1 21 23.0800000  0  4G 6G13G 9G11
  21614666.237    21614668.646    42579756.982 8 -44648198.419 8
  20931966.323    20931971.479     -988387.703 8  -3088467.785 8
  20052719.593    20052723.084    22621762.488 7 -59837240.156 8
  22049858.227    22049865.520    42892564.600 8 -39751511.984 8
 86  6 19  1 21 29.0800000  0  4G 6G13G 9G11
  21617798.786    21617803.107    42596223.551 9 -44635367.325 7
  20930666.864    20930671.186     -995213.341 8  -3093786.466 8
  20052549.011    20052553.737    22620867.911 7 -59837937.230 7
  22052622.198    22052627.949    42907084.439 8 -39740197.821 7
 86  6 19  1 21 35.0800000  0  4G 6G13G 9G11
  21620936.249    21620940.096    42612708.977 8 -44622521.548 9
  20929371.474    20929376.990    -1002020.476 8  -3099090.725 9
  20052385.323    20052388.349    22619998.552 7 -59838614.650 8
  22055387.404    22055392.265    42921611.212 7 -39728878.261 8
 86  6 19  1 21 41.0800000  0  4G 6G13G 9G11
  21624077.199    21624080.731    42629213.258 9 -44609661.071 9
  20928080.320    20928084.763    -1008808.950 9  -3104380.442 8
  20052223.028    20052227.664    22619154.764 7 -59839272.161 8
  22058151.580    22058157.443    42936144.914 7 -39717553.290 7
 86  6 19  1 21 47.0800000  0  4G 6G13G 9G11
  21627220.986    21627224.892    42645736.408 9 -44596785.896 8
  20926792.198    20926795.964    -1015578.857 9  -3109655.683 9
  20052068.302    20052072.457    22618336.257 7 -59839909.948 7
  22060919.744    22060924.941    42950685.577 8 -39706222.908 8
 86  6 19  1 21 53.0800000  0  4G 6G13G 9G11
  21630368.853    21630373.029    42662278.384 9 -44583896.042 9
  20925507.592    20925511.339    -1022330.246 8  -3114916.511 8
  20051917.089    20051920.576    22617543.033 7 -59840528.058 7
  22063688.104    22063692.889    42965233.100 8 -39694887.173 8
 86  6 19  1 21 59.0800000  0  4G 6G13G 9G11
  21633520.284    21633523.971    42678839.150 9 -44570991.565 8
  20924225.366    20924229.922    -1029063.077 7  -3120162.865 8
  20051769.924    20051774.396    22616775.152 8 -59841126.404 7
  22066456.817    22066462.821    42979787.471 8 -39683546.112 7
 86  6 19  1 22  5.0800000  0  4G 6G13G 9G11
  21636675.035    21636680.068    42695418.658 9 -44558072.473 9
  20922948.025    20922953.098    -1035777.422 8  -3125394.823 8
  20051629.474    20051633.315    22616032.421 7 -59841705.153 7
  22069227.878    22069233.639    42994348.674 9 -39672199.728 7
 86  6 19  1 22 11.0800000  0  4G 6G13G 9G11
  21639834.047    21639836.962    42712016.927 8 -44545138.769 9
  20921674.393    20921678.410    -1042473.307 8  -3130612.385 8
  20051491.844    20051496.650    22615315.108 7 -59842264.096 7
  22072000.720    22072005.979    43008916.681 8 -39660848.037 7
 86  6 19  1 22 17.0800000  0  4G 6G13G 9G11
  21642995.872    21643000.490    42728633.974 8 -44532190.422 8
  20920403.275    20920408.244    -1049150.546 8  -3135815.442 8
  20051361.598    20051364.366    22614623.170 7 -59842803.281 7
  22074774.402    22074779.378    43023491.437 8 -39649491.075 8
 86  6 19  1 22 23.0800000  0  4G 6G13G 9G11
  21646161.619    21646164.891    42745269.795 9 -44519227.455 8
  20919135.835    20919140.251    -1055809.181 8  -3141003.974 7
  20051234.096    20051238.059    22613956.730 7 -59843322.592 8
  22077549.045    22077552.405    43038073.054 8 -39638128.785 7
 86  6 19  1 22 29.0800000  0  4G 6G13G 9G11
  21649331.232    21649334.716    42761924.388 9 -44506249.842 8
  20917872.178    20917876.368    -1062449.242 9  -3146178.050 9
  20051113.221    20051116.457    22613315.490 8 -59843822.257 8
  22080324.456    22080328.914    43052661.516 8 -39626761.163 8
 86  6 19  1 22 35.0800000  0  4G 6G13G 9G11
  21652505.425    21652508.615    42778597.751 9 -44493257.622 7
  20916612.741    20916615.793    -1069070.723 8  -3151337.636 7
  20050994.548    20050999.689    22612699.829 8 -59844301.987 7
  22083102.759    22083106.870    43067256.751 8 -39615388.253 7
 86  6 19  1 22 41.0800000  0  4G 6G13G 9G11
  21655678.968    21655683.883    42795289.842 8 -44480250.814 8
  20915357.780    20915360.123    -1075673.630 8  -3156482.754 8
  20050883.027    20050887.018    22612109.585 7 -59844761.923 7
  22085882.096    22085885.323    43081858.785 8 -39604010.044 8
 86  6 19  1 22 47.0800000  0  4G 6G13G 9G11
  21658858.566    21658864.473    42812000.617 9 -44467229.430 8
  20914102.488    20914106.506    -1082258.046 8  -3161613.470 8
  20050775.355    20050779.385    22611544.787 8 -59845202.029 8
  22088660.976    22088666.524    43096467.593 9 -39592626.562 7
 86  6 19  1 22 53.0800000  0  4G 6G13G 9G11
  21662043.315    21662048.333    42828730.135 8 -44454193.452 8
  20912853.840    20912857.337    -1088823.797 8  -3166729.636 9
  20050674.031    20050676.882    22611005.357 8 -59845622.376 7
  22091443.250    22091447.450    43111083.130 8 -39581237.831 9
 86  6 19  1 22 59.0800000  0  4G 6G13G 9G11
  21665230.535    21665234.810    42845478.327 8 -44441142.922 8
  20911606.974    20911612.624    -1095371.041 8  -3171831.377 8
  20050575.129    20050579.387    22610491.396 8 -59846022.864 7
  22094224.801    22094230.104    43125705.406 8 -39569843.850 8
 86  6 19  1 23  5.0800000  0  4G 6G13G 9G11
  21668420.678    21668425.879    42862245.324 8 -44428077.745 8
  20910364.956    20910369.445    -1101899.680 9  -3176918.639 7
  20050482.676    20050486.091    22610003.103 7 -59846403.354 8
  22097009.503    22097013.954    43140334.491 8 -39558444.568 8
 86  6 19  1 23 11.0800000  0  4G 6G13G 9G11
  21671615.615    21671618.655    42879031.043 8 -44414997.968 8
  20909127.183    20909131.679    -1108409.663 8  -3181991.332 8
  20050394.011    20050397.543    22609540.313 7 -59846763.964 7
  22099794.311    22099799.364    43154970.362 8 -39547039.997 8
 86  6 19  1 23 17.0800000  0  4G 6G13G 9G11
  21674812.966    21674817.715    42895835.463 8 -44401903.615 9
  20907891.605    20907896.002    -1114901.033 7  -3187049.553 8
  20050312.368    20050314.227    22609103.059 7 -59847104.678 7
  22102580.649    22102585.293    43169612.992 8 -39535630.153 7
 86  6 19  1 23 23.0800000  0  4G 6G13G 9G11
  21678014.880    21678019.251    42912658.681 9 -44388794.618 8
  20906659.125    20906664.734    -1121373.846 8  -3192093.291 7
  20050231.954    20050236.357    22608691.517 8 -59847425.364 8
  22105368.355    22105372.231    43184262.363 8 -39524215.070 7
 86  6 19  1 23 29.0800000  0  4G 6G13G 9G11
  21681219.723    21681224.568    42929500.514 8 -44375671.113 8
  20905430.861    20905436.544    -1127828.099 9  -3197122.577 7
  20050159.242    20050163.373    22608305.490 7 -59847726.164 8
  22108157.473    22108161.720    43198918.395 8 -39512794.789 7
 86  6 19  1 23 35.0800000  0  4G 6G13G 9G11
  21684426.896    21684431.029    42946360.841 9 -44362533.191 7
  20904206.808    20904211.748    -1134263.869 9  -3202137.459 8
  20050089.960    20050094.279    22607944.938 7 -59848007.102 7
  22110946.840    22110952.001    43213581.008 8 -39501369.382 9
 86  6 19  1 23 41.0800000  0  4G 6G13G 9G11
  21687638.692    21687643.968    42963239.809 8 -44349380.766 8
  20902985.887    20902990.395    -1140681.143 8  -3207137.932 8
  20050026.805    20050029.959    22607609.788 8 -59848268.267 7
  22113739.593    22113744.403    43228250.167 9 -39489938.860 8
 86  6 19  1 23 47.0800000  0  4G 6G13G 9G11
  21690855.654    21690860.731    42980137.224 8 -44336213.965 8
  20901767.622    20901772.725    -1147080.096 9  -3212124.124 8
  20049968.978    20049973.019    22607300.129 7 -59848509.567 8
  22116530.777    22116536.399    43242925.802 9 -39478503.301 8
 86  6 19  1 23 53.0800000  0  4G 6G13G 9G11
  21694074.233    21694078.492    42997053.107 9 -44323032.762 8
  20900553.439    20900557.467    -1153460.591 8  -3217095.932 7
  20049914.348    20049918.857    22607015.940 7 -59848731.001 8
  22119325.679    22119330.064    43257607.925 9 -39467062.696 8
 86  6 19  1 23 59.0800000  0  4G 6G13G 9G11
  21697296.931    21697300.895    43013987.552 9 -44309837.094 9
  20899342.942    20899348.256    -1159822.631 8  -3222053.357 8
  20049865.373    20049868.452    22606757.394 7 -59848932.482 7
  22122120.396    22122125.063    43272296.520 7 -39455617.033 7
 86  6 19  1 24  5.0800000  0  4G 6G13G 9G11
  21700522.654    21700527.156    43030940.436 8 -44296627.061 7
  20898135.582    20898141.163    -1166166.252 8  -3226996.432 8
  20049819.948    20049823.693    22606524.330 8 -59849114.088 7
  22124917.402    22124922.037    43286991.589 8 -39444166.341 8
 86  6 19  1 24 11.0800000  0  4G 6G13G 9G11
  21703752.440    21703756.667    43047911.690 8 -44283402.713 7
  20896930.654    20896936.399    -1172491.423 7  -3231925.133 8
  20049781.035    20049784.881    22606316.626 7 -59849275.932 8
  22127714.048    22127720.437    43301693.051 8 -39432710.657 8
 86  6 19  1 24 17.0800000  0  4G 6G13G 9G11
  21706984.708    21706989.824    43064901.396 8 -44270163.990 8
  20895731.434    20895737.243    -1178798.242 8  -3236839.537 8
  20049746.848    20049750.074    22606134.364 7 -59849417.941 7
  22130513.124    22130518.666    43316400.946 8 -39421249.958 7
 86  6 19  1 24 23.0800000  0  4G 6G13G 9G11
  21710220.755    21710226.198    43081909.533 8 -44256910.904 8
  20894534.229    20894540.140    -1185086.661 8  -3241739.590 8
  20049716.967    20049720.511    22605977.649 8 -59849540.058 8
  22133314.504    22133318.077    43331115.268 9 -39409784.253 8
 86  6 19  1 24 29.0800000  0  4G 6G13G 9G11
  21713461.533    21713466.095    43098936.052 8 -44243643.480 9
  20893342.121    20893346.635    -1191356.627 8  -3246625.272 7
  20049691.541    20049694.133    22605846.492 7 -59849642.272 8
  22136114.568    22136119.026    43345835.938 8 -39398313.601 7
 86  6 19  1 24 35.0800000  0  4G 6G13G 9G11
  21716705.550    21716710.346    43115980.923 8 -44230361.790 8
  20892153.678    20892157.000    -1197608.136 7  -3251496.580 8
  20049671.791    20049674.602    22605740.956 7 -59849724.510 7
  22138917.012    22138921.999    43360563.018 9 -39386837.963 7
 86  6 19  1 24 41.0800000  0  4G 6G13G 9G11
  21719952.795    21719956.595    43133044.187 9 -44217065.728 8
  20890966.648    20890971.073    -1203841.158 8  -3256353.477 8
  20049655.792    20049659.835    22605660.858 8 -59849786.914 7
  22141720.589    22141726.138    43375296.484 8 -39375357.348 7
 86  6 19  1 24 47.0800000  0  4G 6G13G 9G11
  21723203.823    21723207.325    43150125.860 8 -44203755.349 8
  20889783.708    20889787.998    -1210055.643 8  -3261195.932 9
  20049645.788    20049648.388    22605606.434 8 -59849829.318 7
  22144526.084    22144530.865    43390036.330 8 -39363871.753 8
 86  6 19  1 24 53.0800000  0  4G 6G13G 9G11
  21726457.242    21726462.244    43167226.024 8 -44190430.558 8
  20888605.039    20888609.480    -1216251.702 9  -3266024.019 9
  20049639.390    20049645.250    22605577.728 7 -59849851.691 7
  22147331.808    22147337.343    43404782.641 9 -39352381.134 7
 86  6 19  1 24 59.0800000  0  4G 6G13G 9G11
  21729713.795    21729719.588    43184344.626 8 -44177091.385 8
  20887429.548    20887434.964    -1222429.254 8  -3270837.703 7
  20049639.589    20049644.236    22605574.727 8 -59849854.038 8
  22150139.866    22150144.531    43419535.383 8 -39340885.491 8
 86  6 19  1 25  5.0800000  0  4G 6G13G 9G11
  21732975.255    21732980.546    43201481.662 8 -44163737.857 8
  20886256.644    20886261.317    -1228588.308 8  -3275636.938 8
  20049644.320    20049648.604    22605597.360 7 -59849836.395 7
  22152947.855    22152952.998    43434294.502 8 -39329384.879 7
 86  6 19  1 25 11.0800000  0  4G 6G13G 9G11
  21736239.480    21736245.277    43218637.048 8 -44150370.038 8
  20885089.111    20885092.832    -1234728.905 8  -3280421.836 7
  20049653.151    20049656.799    22605645.715 6 -59849798.719 7
  22155758.004    22155762.333    43449059.934 8 -39317879.348 8
 86  6 19  1 25 17.0800000  0  4G 6G13G 9G11
  21739507.226    21739512.170    43235810.744 8 -44136987.940 8
  20883923.829    20883928.823    -1240851.082 8  -3285192.354 9
  20049667.707    20049669.974    22605719.571 7 -59849741.168 7
  22158568.947    22158573.706    43463831.628 9 -39306368.936 7
 86  6 19  1 25 23.0800000  0  4G 6G13G 9G11
  21742779.462    21742783.260    43253002.714 9 -44123591.597 8
  20882762.254    20882766.899    -1246954.893 8  -3289948.579 7
  20049685.331    20049689.646    22605819.179 7 -59849663.557 8
  22161380.820    22161385.146    43478609.566 8 -39294853.670 7
 86  6 19  1 25 29.0800000  0  4G 6G13G 9G11
  21746054.977    21746059.408    43270212.993 8 -44110181.007 8
  20881604.692    20881608.328    -1253040.271 9  -3294690.425 8
  20049707.763    20049714.084    22605944.415 6 -59849565.971 8
  22164194.252    22164199.154    43493393.792 9 -39283333.498 8
 86  6 19  1 25 35.0800000  0  4G 6G13G 9G11
  21749333.733    21749338.560    43287441.532 8 -44096756.178 8
  20880448.825    20880453.551    -1259107.270 8  -3299417.942 8
  20049737.321    20049742.863    22606095.341 6 -59849448.375 7
  22167009.065    22167012.865    43508184.254 8 -39271808.465 7
 86  6 19  1 25 41.0800000  0  4G 6G13G 9G11
  21752615.095    21752620.580    43304688.268 8 -44083317.169 8
  20879298.603    20879303.020    -1265155.932 9  -3304131.185 8
  20049771.913    20049775.483    22606271.885 8 -59849310.810 7
  22169827.011    22169829.094    43522980.864 8 -39260278.639 8
 86  6 19  1 25 47.0800000  0  4G 6G13G 9G11
  21755900.931    21755905.597    43321953.162 8 -44069864.008 7
  20878151.292    20878154.497    -1271186.290 8  -3308830.159 8
  20049808.405    20049814.260    22606474.036 7 -59849153.298 8
  22172642.267    22172645.650    43537783.587 7 -39248744.052 7
 86  6 19  1 25 53.0800000  0  4G 6G13G 9G11
  21759188.974    21759194.449    43339236.332 8 -44056396.621 8
  20877006.488    20877010.319    -1277198.235 9  -3313514.796 8
  20049852.447    20049857.367    22606701.824 8 -59848975.808 7
  22175459.938    22175464.151    43552592.470 8 -39237204.660 8
 86  6 19  1 25 59.0800000  0  4G 6G13G 9G11
  21762481.653    21762486.285    43356537.692 7 -44042915.041 8
  20875866.696    20875870.388    -1283191.780 9  -3318185.078 8
  20049903.050    20049906.425    22606955.403 6 -59848778.212 8
  22178279.037    22178283.278    43567407.592 9 -39225660.416 8
 86  6 19  1 26  5.0800000  0  4G 6G13G 9G11
  21765777.034    21765782.377    43373857.415 8 -44029419.172 9
  20874729.491    20874734.120    -1289166.951 8  -3322841.046 8
  20049955.332    20049959.244    22607234.738 7 -59848560.546 8
  22181099.551    22181103.946    43582228.911 9 -39214111.341 7
 86  6 19  1 26 11.0800000  0  4G 6G13G 9G11
  21769077.055    21769081.851    43391195.343 8 -44015909.099 8
  20873596.330    20873600.149    -1295123.686 8  -3327482.666 8
  20050014.730    20050017.574    22607539.826 8 -59848322.820 7
  22183920.441    22183925.203    43597056.418 9 -39202557.441 8
 86  6 19  1 26 17.0800000  0  4G 6G13G 9G11
  21772379.064    21772384.874    43408551.456 9 -44002384.865 8
  20872466.202    20872470.127    -1301062.015 8  -3332109.920 8
  20050075.065    20050081.180    22607870.716 7 -59848064.977 8
  22186743.691    22186748.019    43611890.095 9 -39190998.735 7
 86  6 19  1 26 23.0800000  0  4G 6G13G 9G11
  21775686.230    21775690.762    43425925.724 9 -43988846.477 8
  20871339.955    20871344.184    -1306981.907 7  -3336722.827 7
  20050145.238    20050148.363    22608227.391 8 -59847787.073 7
  22189567.020    22189572.358    43626729.854 8 -39179435.289 8
 86  6 19  1 26 29.0800000  0  4G 6G13G 9G11
  21778995.875    21779001.103    43443318.150 9 -43975293.956 8
  20870215.971    20870220.142    -1312883.445 8  -3341321.410 8
  20050217.830    20050220.044    22608609.674 8 -59847489.182 8
  22192392.216    22192397.464    43641575.650 9 -39167867.139 8
 86  6 19  1 26 35.0800000  0  4G 6G13G 9G11
  21782307.758    21782314.708    43460728.663 8 -43961727.317 8
  20869095.533    20869101.589    -1318766.665 7  -3345905.746 8
  20050294.376    20050297.904    22609017.634 8 -59847171.287 8
  22195219.077    22195223.464    43656427.509 8 -39156294.259 8
 86  6 19  1 26 41.0800000  0  4G 6G13G 9G11
  21785626.409    21785630.688    43478157.170 8 -43948146.666 7
  20867980.239    20867984.306    -1324631.555 7  -3350475.790 8
  20050376.491    20050381.490    22609451.361 7 -59846833.321 8
  22198045.955    22198050.941    43671285.412 8 -39144716.676 9
 86  6 19  1 26 47.0800000  0  4G 6G13G 9G11
  21788945.677    21788950.340    43495603.730 9 -43934551.959 8
  20866867.834    20866872.135    -1330478.142 8  -3355031.562 8
  20050463.487    20050468.291    22609910.807 7 -59846475.306 7
  22200875.027    22200878.802    43686149.228 8 -39133134.484 8
 86  6 19  1 26 53.0800000  0  4G 6G13G 9G11
  21792269.506    21792274.372    43513068.292 8 -43920943.221 8
  20865759.277    20865763.864    -1336306.475 8  -3359573.129 8
  20050556.608    20050561.245    22610395.986 7 -59846097.261 7
  22203704.876    22203709.616    43701019.005 8 -39121547.657 8
 86  6 19  1 26 59.0800000  0  4G 6G13G 9G11
  21795596.547    21795599.795    43530550.858 8 -43907320.442 8
  20864653.020    20864657.589    -1342116.510 8  -3364100.418 8
  20050653.203    20050658.372    22610906.782 7 -59845699.226 7
  22206534.483    22206539.794    43715894.716 8 -39109956.196 8
 86  6 19  1 27  5.0800000  0  4G 6G13G 9G11
  21798925.763    21798930.290    43548051.420 8 -43893683.646 8
  20863550.935    20863556.231    -1347908.213 7  -3368613.427 7
  20050755.295    20050760.599    22611443.303 8 -59845281.158 8
  22209367.766    22209372.420    43730776.366 9 -39098360.109 8
 86  6 19  1 27 11.0800000  0  4G 6G13G 9G11
  21802260.071    21802264.546    43565569.939 8 -43880032.860 8
  20862451.679    20862456.432    -1353681.650 7  -3373112.209 9
  20050863.384    20050867.051    22612005.641 8 -59844842.973 8
  22212200.821    22212204.046    43745663.905 8 -39086759.428 7
 86  6 19  1 27 17.0800000  0  4G 6G13G 9G11
  21805596.563    21805601.819    43583106.411 9 -43866368.090 7
  20861356.813    20861362.886    -1359436.901 8  -3377596.806 8
  20050974.677    20050979.364    22612593.678 8 -59844384.754 8
  22215035.093    22215038.816    43760557.329 8 -39075154.171 8
 86  6 19  1 27 23.0800000  0  4G 6G13G 9G11
  21808938.067    21808941.454    43600660.856 8 -43852689.304 8
  20860264.464    20860270.123    -1365173.873 7  -3382067.167 8
  20051092.229    20051095.668    22613207.522 7 -59843906.436 8
  22217869.317    22217874.094    43775456.624 8 -39063544.329 9
 86  6 19  1 27 29.0800000  0  4G 6G13G 9G11
  21812281.054    21812285.458    43618233.324 8 -43838996.481 7
  20859176.370    20859182.358    -1370892.456 8  -3386523.214 9
  20051214.649    20051217.473    22613847.161 8 -59843408.014 9
  22220706.789    22220710.477    43790361.921 8 -39051929.824 8
 86  6 19  1 27 35.0800000  0  4G 6G13G 9G11
  21815629.110    21815633.312    43635823.760 8 -43825289.650 8
  20858092.575    20858097.124    -1376592.707 8  -3390964.957 8
  20051340.615    20051343.525    22614512.655 8 -59842889.448 7
  22223542.544    22223548.338    43805273.124 8 -39040310.696 8
 86  6 19  1 27 41.0800000  0  4G 6G13G 9G11
  21818979.639    21818984.062    43653432.176 8 -43811568.817 8
  20857011.340    20857015.425    -1382274.673 8  -3395392.463 8
  20051472.593    20051475.611    22615203.985 8 -59842350.751 8
  22226380.840    22226385.871    43820190.208 8 -39028687.000 8
 86  6 19  1 27 47.0800000  0  4G 6G13G 9G11
  21822334.042    21822337.362    43671058.507 8 -43797834.018 7
  20855933.032    20855937.750    -1387938.431 8  -3399805.779 7
  20051608.998    20051612.119    22615921.221 7 -59841791.868 7
  22229220.833    22229226.067    43835113.147 8 -39017058.756 8
 86  6 19  1 27 53.0800000  0  4G 6G13G 9G11
  21825691.759    21825695.754    43688702.765 8 -43784085.242 8
  20854859.687    20854864.589    -1393583.887 9  -3404204.827 8
  20051751.550    20051752.467    22616664.234 8 -59841212.883 7
  22232061.659    22232066.851    43850041.956 8 -39005425.919 9
 86  6 19  1 27 59.0800000  0  4G 6G13G 9G11
  21829051.916    21829056.490    43706364.923 8 -43770322.532 8
  20853787.896    20853793.136    -1399211.099 8  -3408589.670 8
  20051896.756    20051900.259    22617433.147 8 -59840613.736 8
  22234904.479    22234908.287    43864976.591 9 -38993788.543 8
 86  6 19  1 28  5.0800000  0  4G 6G13G 9G11
  21832415.750    21832420.895    43724044.967 8 -43756545.885 8
  20852720.398    20852726.098    -1404820.015 8  -3412960.233 8
  20052047.041    20052049.790    22618227.867 8 -59839994.479 8
  22237748.099    22237751.869    43879917.045 8 -38982146.633 9
 86  6 19  1 28 11.0800000  0  4G 6G13G 9G11
  21835783.984    21835789.349    43741742.906 8 -43742755.299 7
  20851656.416    20851662.616    -1410410.593 8  -3417316.532 8
  20052202.760    20052205.979    22619048.408 7 -59839355.096 7
  22240591.867    22240596.052    43894863.287 8 -38970500.211 8
 86  6 19  1 28 17.0800000  0  4G 6G13G 9G11
  21839154.990    21839158.615    43759458.699 9 -43728950.787 7
  20850595.687    20850601.704    -1415982.892 7  -3421658.583 8
  20052364.730    20052368.400    22619894.922 7 -59838695.482 7
  22243436.758    22243442.642    43909815.308 8 -38958849.296 8
 86  6 19  1 28 23.0800000  0  4G 6G13G 9G11
  21842529.816    21842534.979    43777192.317 8 -43715132.377 8
  20849540.124    20849544.373    -1421536.968 8  -3425986.420 8
  20052531.471    20052534.769    22620767.214 7 -59838015.771 8
  22246283.971    22246288.361    43924773.112 8 -38947193.861 8
 86  6 19  1 28 29.0800000  0  4G 6G13G 9G11
  21845908.379    21845912.369    43794943.777 8 -43701300.079 8
  20848487.376    20848491.376    -1427072.681 8  -3430299.963 8
  20052702.438    20052704.365    22621665.442 8 -59837315.845 7
  22249129.361    22249135.490    43939736.697 8 -38935533.935 7
 86  6 19  1 28 35.0800000  0  4G 6G13G 9G11
  21849288.924    21849294.209    43812713.048 9 -43687453.908 7
  20847437.061    20847440.879    -1432590.121 8  -3434599.257 8
  20052876.631    20052881.425    22622589.501 7 -59836595.805 7
  22251979.003    22251984.670    43954706.012 8 -38923869.543 7
 86  6 19  1 28 41.0800000  0  4G 6G13G 9G11
  21852674.162    21852677.555    43830500.036 8 -43673593.910 7
  20846389.723    20846395.648    -1438089.364 8  -3438884.383 9
  20053058.550    20053060.548    22623539.469 8 -59835855.576 8
  22254829.215    22254834.551    43969680.941 7 -38912200.758 8
 86  6 19  1 28 47.0800000  0  4G 6G13G 9G11
  21856063.421    21856066.095    43848304.778 8 -43659720.100 8
  20845347.384    20845351.572    -1443570.456 8  -3443155.356 8
  20053243.584    20053247.670    22624515.275 8 -59835095.194 7
  22257678.892    22257684.818    43984661.528 8 -38900527.590 8
 86  6 19  1 28 53.0800000  0  4G 6G13G 9G11
  21859453.468    21859458.770    43866127.260 9 -43645832.460 8
  20844307.469    20844313.090    -1449033.315 9  -3447412.123 8
  20053435.164    20053438.255    22625517.045 7 -59834314.615 7
  22260531.573    22260535.782    43999647.715 8 -38888850.036 9
 86  6 19  1 28 59.0800000  0  4G 6G13G 9G11
  21862849.171    21862853.540    43883967.427 8 -43631931.036 7
  20843271.050    20843278.019    -1454477.907 8  -3451654.677 8
  20053628.872    20053634.551    22626544.753 8 -59833513.798 7
  22263383.939    22263389.149    44014639.617 8 -38877168.046 9
 86  6 19  1 29  5.0800000  0  4G 6G13G 9G11
  21866246.586    21866252.314    43901825.367 8 -43618015.768 7
  20842239.215    20842244.827    -1459904.344 7  -3455883.063 7
  20053830.416    20053834.072    22627598.330 8 -59832692.824 8
  22266238.363    22266243.177    44029637.086 9 -38865481.702 8
 86  6 19  1 29 11.0800000  0  4G 6G13G 9G11
  21869648.198    21869653.063    43919701.029 8 -43604086.684 8
  20841209.267    20841215.147    -1465312.513 8  -3460097.222 9
  20054035.660    20054039.428    22628677.898 7 -59831851.611 8
  22269093.260    22269098.090    44044640.206 8 -38853790.964 8
 86  6 19  1 29 17.0800000  0  4G 6G13G 9G11
  21873053.987    21873057.287    43937594.410 8 -43590143.794 7
  20840184.382    20840188.880    -1470702.440 9  -3464297.157 8
  20054246.830    20054250.646    22629783.344 7 -59830990.223 7
  22271948.568    22271953.575    44059648.946 7 -38842095.846 8
 86  6 19  1 29 23.0800000  0  4G 6G13G 9G11
  21876462.093    21876466.348    43955505.472 9 -43576187.133 8
  20839162.273    20839167.059    -1476074.117 8  -3468482.877 8
  20054461.518    20054465.121    22630914.817 7 -59830108.565 8
  22274805.623    22274810.271    44074663.266 7 -38830396.386 7
 86  6 19  1 29 29.0800000  0  4G 6G13G 9G11
  21879872.781    21879877.962    43973434.161 9 -43562216.732 8
  20838142.787    20838148.050    -1481427.615 7  -3472654.419 8
  20054682.051    20054685.252    22632072.216 7 -59829206.698 7
  22277663.899    22277669.516    44089683.138 9 -38818692.584 8
 86  6 19  1 29 35.0800000  0  4G 6G13G 9G11
  21883288.361    21883293.722    43991380.450 9 -43548232.612 7
  20837129.022    20837132.389    -1486762.925 8  -3476811.806 8
  20054908.010    20054910.248    22633255.514 7 -59828284.648 8
  22280522.985    22280528.211    44104708.493 8 -38806984.528 8
 86  6 19  1 29 41.0800000  0  4G 6G13G 9G11
  21886707.323    21886711.345    44009344.280 9 -43534234.825 8
  20836116.153    20836121.269    -1492080.116 9  -3480955.066 8
  20055137.322    20055140.579    22634464.750 8 -59827342.385 7
  22283384.481    22283389.147    44119739.308 9 -38795272.206 8
 86  6 19  1 29 47.0800000  0  4G 6G13G 9G11
  21890128.755    21890133.001    44027325.703 8 -43520223.340 7
  20835107.632    20835112.093    -1497379.186 8  -3485084.201 8
  20055373.104    20055375.830    22635699.875 7 -59826379.959 7
  22286245.098    22286249.431    44134775.594 8 -38783555.612 7
 86  6 19  1 29 53.0800000  0  4G 6G13G 9G11
  21893552.961    21893559.010    44045324.650 8 -43506198.200 9
  20834102.322    20834107.530    -1502660.154 9  -3489199.237 8
  20055612.818    20055616.161    22636960.932 7 -59825397.321 6
  22289107.940    22289112.119    44149817.294 8 -38771834.810 8
 86  6 19  1 29 59.0800000  0  4G 6G13G 9G11
  21896982.031    21896987.086    44063341.118 8 -43492159.402 8
  20833099.885    20833106.860    -1507923.020 8  -3493300.172 8
  20055858.344    20055860.478    22638247.792 7 -59824394.559 7
  22291971.862    22291975.922    44164864.445 8 -38760109.768 8
 86  6 19  1 30  5.0800000  0  4G 6G13G 9G11
  21900414.827    21900419.120    44081375.107 8 -43478106.945 8
  20832102.068    20832108.762    -1513167.809 8  -3497387.017 8
  20056107.789    20056110.942    22639560.757 8 -59823371.487 7
  22294834.951    22294839.198    44179917.091 8 -38748380.445 8
 86  6 19  1 30 11.0800000  0  4G 6G13G 9G11
  21903849.000    21903853.763    44099426.629 9 -43464040.836 8
  20831109.015    20831112.434    -1518394.359 8  -3501459.640 9
  20056361.566    20056364.845    22640899.699 7 -59822328.150 8
  22297701.389    22297705.494    44194975.190 7 -38736646.852 8
 86  6 19  1 30 17.0800000  0  4G 6G13G 9G11
  21907287.722    21907291.653    44117495.657 8 -43449961.082 8
  20830117.097    20830122.236    -1523602.699 8  -3505518.082 9
  20056621.807    20056625.386    22642264.572 7 -59821264.615 7
  22300566.512    22300570.987    44210038.730 7 -38724909.041 8
 86  6 19  1 30 23.0800000  0  4G 6G13G 9G11
  21910729.739    21910733.976    44135582.239 9 -43435867.642 8
  20829129.364    20829134.337    -1528792.881 8  -3509562.372 9
  20056887.389    20056890.092    22643655.449 7 -59820180.826 7
  22303435.494    22303439.817    44225107.726 8 -38713166.966 8
 86  6 19  1 30 29.0800000  0  4G 6G13G 9G11
  21914174.553    21914178.022    44153686.273 8 -43421760.606 8
  20828145.791    20828151.398    -1533964.970 9  -3513592.566 8
  20057156.462    20057160.853    22645072.288 8 -59819076.794 7
  22306303.396    22306308.856    44240182.113 9 -38701420.699 8
 86  6 19  1 30 35.0800000  0  4G 6G13G 9G11
  21917622.411    21917626.033    44171807.760 9 -43407639.985 7
  20827164.078    20827169.021    -1539118.912 8  -3517608.614 8
  20057430.101    20057433.465    22646515.127 8 -59817952.510 7
  22309172.181    22309178.032    44255261.799 8 -38689670.296 8
 86  6 19  1 30 41.0800000  0  4G 6G13G 9G11
  21921074.974    21921079.169    44189946.647 9 -43393505.790 8
  20826187.210    20826191.853    -1544254.783 8  -3521610.595 8
  20057709.599    20057712.382    22647983.998 8 -59816807.938 7
  22312043.235    22312047.633    44270346.786 9 -38677915.762 8
 86  6 19  1 30 47.0800000  0  4G 6G13G 9G11
  21924529.821    21924533.413    44208102.848 8 -43379358.096 8
  20825212.090    20825217.884    -1549372.568 7  -3525598.471 8
  20057994.421    20057997.369    22649478.822 7 -59815643.135 8
  22314914.081    22314921.297    44285437.090 8 -38666157.090 8
 86  6 19  1 30 53.0800000  0  4G 6G13G 9G11
  21927988.079    21927991.617    44226276.428 8 -43365196.871 8
  20824243.297    20824247.519    -1554472.352 8  -3529572.321 8
  20058284.024    20058287.591    22650999.624 8 -59814458.095 8
  22317788.329    22317793.182    44300532.643 9 -38654394.323 9
 86  6 19  1 30 59.0800000  0  4G 6G13G 9G11
  21931450.016    21931453.653    44244467.371 8 -43351022.126 8
  20823274.566    20823280.948    -1559554.121 8  -3533532.142 7
  20058579.141    20058581.290    22652546.246 8 -59813252.948 7
  22320662.370    22320666.955    44315633.447 8 -38642627.471 8
 86  6 19  1 31  5.0800000  0  4G 6G13G 9G11
  21934915.532    21934919.105    44262675.762 8 -43336833.781 8
  20822311.949    20822317.420    -1564617.680 9  -3537477.770 9
  20058877.366    20058881.776    22654119.062 7 -59812027.374 7
  22323535.691    22323540.870    44330739.542 8 -38630856.494 9
 86  6 19  1 31 11.0800000  0  4G 6G13G 9G11
  21938382.833    21938387.992    44280901.610 8 -43322631.826 7
  20821352.633    20821357.274    -1569663.036 9  -3541409.212 8
  20059181.655    20059184.124    22655718.079 8 -59810781.384 7
  22326412.428    22326417.141    44345850.981 8 -38619081.348 8
 86  6 19  1 31 17.0800000  0  4G 6G13G 9G11
  21941854.841    21941858.371    44299144.864 9 -43308416.316 7
  20820395.111    20820399.504    -1574690.281 7  -3545326.543 9
  20059491.892    20059494.682    22657343.096 7 -59809515.155 7
  22329287.196    22329293.253    44360967.736 8 -38607302.055 8
 86  6 19  1 31 23.0800000  0  4G 6G13G 9G11
  21945330.259    21945333.239    44317405.442 9 -43294187.285 9
  20819442.566    20819448.156    -1579699.479 7  -3549229.799 8
  20059805.517    20059807.204    22658994.164 7 -59808228.602 7
  22332166.285    22332170.599    44376089.825 8 -38595518.624 8
 86  6 19  1 31 29.0800000  0  4G 6G13G 9G11
  21948807.697    21948811.448    44335683.388 9 -43279944.750 8
  20818492.664    20818497.461    -1584690.571 8  -3553118.958 7
  20060124.106    20060127.227    22660671.418 7 -59806921.648 7
  22335045.226    22335050.705    44391217.146 8 -38583731.112 8
 86  6 19  1 31 35.0800000  0  4G 6G13G 9G11
  21952288.821    21952293.452    44353978.633 9 -43265688.725 8
  20817546.590    20817550.765    -1589663.578 8  -3556994.027 9
  20060448.052    20060452.326    22662374.640 8 -59805594.468 7
  22337923.721    22337928.664    44406349.608 8 -38571939.581 8
 86  6 19  1 31 41.0800000  0  4G 6G13G 9G11
  21955773.603    21955778.729    44372291.115 9 -43251419.250 8
  20816603.311    20816608.267    -1594618.522 8  -3560855.008 8
  20060778.263    20060780.732    22664103.918 7 -59804246.976 8
  22340805.261    22340809.205    44421487.221 8 -38560144.040 8
 86  6 19  1 31 47.0800000  0  4G 6G13G 9G11
  21959261.782    21959265.975    44390620.779 8 -43237136.411 8
  20815664.273    20815668.523    -1599555.379 8  -3564701.908 8
  20061111.636    20061114.906    22665859.274 7 -59802879.173 8
  22343685.661    22343691.011    44436629.966 8 -38548344.511 8
 86  6 19  1 31 53.0800000  0  4G 6G13G 9G11
  21962753.436    21962757.345    44408967.621 8 -43222840.173 8
  20814729.473    20814732.074    -1604474.371 7  -3568534.893 7
  20061450.325    20061453.096    22667640.643 7 -59801491.096 6
  22346569.615    22346574.331    44451777.727 8 -38536541.069 7
 86  6 19  1 31 59.0800000  0  4G 6G13G 9G11
  21966248.143    21966251.718    44427331.567 9 -43208530.603 8
  20813795.832    20813800.467    -1609375.519 8  -3572353.954 8
  20061794.578    20061797.535    22669447.845 8 -59800082.890 7
  22349451.961    22349457.945    44466930.508 8 -38524733.705 8
 86  6 19  1 32  5.0800000  0  4G 6G13G 9G11
  21969745.967    21969749.402    44445712.616 8 -43194207.720 8
  20812866.158    20812870.854    -1614258.687 9  -3576159.023 8
  20062142.356    20062147.013    22671281.115 8 -59798654.378 6
  22352337.376    22352341.393    44482088.352 8 -38512922.403 8
 86  6 19  1 32 11.0800000  0  4G 6G13G 9G11
  21973246.634    21973250.846    44464110.846 9 -43179871.453 7
  20811940.465    20811943.996    -1619123.913 9  -3579950.098 9
  20062496.826    20062500.818    22673140.405 7 -59797205.579 7
  22355222.895    22355228.072    44497251.247 8 -38501107.171 8
 86  6 19  1 32 17.0800000  0  4G 6G13G 9G11
  21976751.858    21976755.619    44482526.228 8 -43165521.819 7
  20811017.547    20811022.389    -1623971.108 8  -3583727.140 7
  20062856.235    20062858.969    22675025.777 8 -59795736.452 7
  22358107.901    22358112.695    44512419.209 8 -38489287.971 8
 86  6 19  1 32 23.0800000  0  4G 6G13G 9G11
  21980257.752    21980263.450    44500958.746 9 -43151158.830 8
  20810099.363    20810102.514    -1628800.286 8  -3587490.125 8
  20063218.735    20063223.375    22676937.244 6 -59794247.014 8
  22360996.292    22361001.092    44527592.234 8 -38477464.847 8
 86  6 19  1 32 29.0800000  0  4G 6G13G 9G11
  21983769.273    21983774.346    44519408.427 8 -43136782.464 8
  20809183.479    20809187.781    -1633611.418 8  -3591239.057 8
  20063588.596    20063592.711    22678874.695 7 -59792737.309 7
  22363883.784    22363888.757    44542770.366 9 -38465637.724 8
 86  6 19  1 32 35.0800000  0  4G 6G13G 9G11
  21987283.077    21987287.359    44537875.209 8 -43122392.765 8
  20808271.825    20808275.669    -1638404.565 8  -3594973.976 7
  20063961.325    20063964.305    22680838.452 7 -59791207.117 7
  22366774.019    22366778.954    44557953.534 8 -38453806.697 8
 86  6 19  1 32 41.0800000  0  4G 6G13G 9G11
  21990801.222    21990804.796    44556359.138 9 -43107989.718 8
  20807363.201    20807366.953    -1643179.795 9  -3598694.922 8
  20064341.020    20064343.820    22682828.326 8 -59789656.572 8
  22369663.679    22369668.642    44573141.780 7 -38441971.710 9
 86  6 19  1 32 47.0800000  0  4G 6G13G 9G11
  21994320.711    21994325.841    44574860.201 8 -43093573.298 7
  20806458.280    20806461.237    -1647936.976 8  -3602401.812 8
  20064723.483    20064726.135    22684844.372 8 -59788085.622 7
  22372555.774    22372559.665    44588335.021 8 -38430132.821 8
 86  6 19  1 32 53.0800000  0  4G 6G13G 9G11
  21997846.344    21997849.409    44593378.370 8 -43079143.565 7
  20805555.111    20805558.758    -1652676.192 8  -3606094.721 8
  20065113.291    20065115.423    22686886.508 7 -59786494.346 7
  22375447.902    22375451.106    44603533.295 8 -38418290.017 8
 86  6 19  1 32 59.0800000  0  4G 6G13G 9G11
  22001372.138    22001376.276    44611913.578 8 -43064700.556 9
  20804656.682    20804661.570    -1657397.481 8  -3609773.639 8
  20065506.891    20065509.567    22688954.851 7 -59784882.666 8
  22378340.528    22378344.649    44618736.472 8 -38406443.388 8
 86  6 19  1 33  5.0800000  0  4G 6G13G 9G11
  22004902.854    22004907.499    44630465.749 8 -43050244.325 8
  20803762.795    20803766.123    -1662100.871 9  -3613438.613 9
  20065904.612    20065908.792    22691049.181 7 -59783250.731 7
  22381234.328    22381239.137    44633944.591 7 -38394592.905 8
 86  6 19  1 33 11.0800000  0  4G 6G13G 9G11
  22008435.701    22008440.574    44649034.878 8 -43035774.883 8
  20802869.951    20802875.401    -1666786.387 8  -3617089.668 8
  20066307.696    20066312.345    22693169.647 7 -59781598.412 7
  22384128.494    22384133.997    44649157.566 8 -38382738.647 9
 86  6 19  1 33 17.0800000  0  4G 6G13G 9G11
  22011972.895    22011977.933    44667620.839 8 -43021292.325 8
  20801982.957    20801987.002    -1671454.047 8  -3620726.790 7
  20066717.454    20066720.128    22695316.126 7 -59779925.828 7
  22387024.947    22387029.763    44664375.324 8 -38370880.657 8
 86  6 19  1 33 23.0800000  0  4G 6G13G 9G11
  22015513.449    22015518.673    44686223.725 9 -43006796.585 8
  20801097.222    20801101.920    -1676103.817 8  -3624349.987 8
  20067130.360    20067133.458    22697488.555 7 -59778233.042 8
  22389921.106    22389926.780    44679597.848 8 -38359018.960 8
 86  6 19  1 33 29.0800000  0  4G 6G13G 9G11
  22019056.507    22019061.548    44704843.501 8 -42992287.669 8
  20800215.718    20800220.790    -1680735.668 8  -3627959.240 8
  20067549.149    20067552.472    22699687.157 7 -59776519.829 8
  22392818.848    22392823.428    44694825.196 8 -38347153.502 7
 86  6 19  1 33 35.0800000  0  4G 6G13G 9G11
  22022604.025    22022607.798    44723480.220 9 -42977765.571 9
  20799338.263    20799342.038    -1685349.635 9  -3631554.524 8
  20067972.416    20067974.883    22701911.886 7 -59774786.283 7
  22395717.102    22395723.665    44710057.376 8 -38335284.263 7
 86  6 19  1 33 41.0800000  0  4G 6G13G 9G11
  22026152.771    22026156.975    44742133.752 8 -42963230.350 8
  20798463.178    20798467.536    -1689945.788 8  -3635135.941 8
  20068402.117    20068402.593    22704162.672 7 -59773032.418 7
  22398617.301    22398622.421    44725294.385 8 -38323411.276 8
 86  6 19  1 33 47.0800000  0  4G 6G13G 9G11
  22029705.181    22029710.083    44760804.303 8 -42948681.879 8
  20797592.071    20797597.173    -1694523.998 8  -3638703.372 8
  20068833.879    20068837.904    22706439.687 7 -59771258.131 7
  22401517.538    22401522.676    44740536.221 9 -38311534.528 8
 86  6 19  1 33 53.0800000  0  4G 6G13G 9G11
  22033261.179    22033266.396    44779491.746 7 -42934120.237 9
  20796724.768    20796729.300    -1699084.281 8  -3642256.846 8
  20069272.517    20069274.551    22708742.877 8 -59769463.448 8
  22404418.837    22404424.564    44755782.896 8 -38299653.998 9
 86  6 19  1 33 59.0800000  0  4G 6G13G 9G11
  22036820.943    22036824.218    44798196.094 8 -42919545.433 8
  20795860.672    20795864.292    -1703626.624 8  -3645796.327 8
  20069715.867    20069719.431    22711072.319 9 -59767648.297 7
  22407319.703    22407325.891    44771034.415 8 -38287769.701 8
 86  6 19  1 34  5.0800000  0  4G 6G13G 9G11
  22040383.706    22040388.138    44816917.287 8 -42904957.495 8
  20794997.938    20795003.932    -1708151.071 8  -3649321.870 9
  20070164.571    20070167.450    22713427.833 7 -59765812.845 8
  22410224.287    22410228.680    44786290.738 8 -38275881.657 7
 86  6 19  1 34 11.0800000  0  4G 6G13G 9G11
  22043949.028    22043953.262    44835655.335 7 -42890356.433 7
  20794141.828    20794146.409    -1712657.598 8  -3652833.442 8
  20070617.556    20070619.283    22715809.560 7 -59763956.936 8
  22413128.933    22413132.820    44801551.840 7 -38263989.901 8
 86  6 19  1 34 17.0800000  0  4G 6G13G 9G11
  22047518.112    22047523.307    44854410.262 9 -42875742.214 8
  20793287.106    20793292.602    -1717146.166 8  -3656331.024 8
  20071075.606    20071079.014    22718217.572 7 -59762080.579 7
  22416032.989    22416038.043    44816817.684 8 -38252094.446 8
 86  6 19  1 34 23.0800000  0  4G 6G13G 9G11
  22051089.844    22051094.871    44873181.970 8 -42861114.925 8
  20792436.020    20792441.461    -1721616.935 8  -3659814.734 8
  20071538.442    20071541.154    22720651.686 7 -59760183.862 7
  22418939.157    22418944.193    44832088.271 8 -38240195.288 7
 86  6 19  1 34 29.0800000  0  4G 6G13G 9G11
  22054665.415    22054669.313    44891970.386 9 -42846474.601 7
  20791588.965    20791594.158    -1726069.838 8  -3663284.536 8
  20072005.876    20072009.730    22723111.938 7 -59758266.792 7
  22421846.282    22421851.110    44847363.543 8 -38228292.484 8
 86  6 19  1 34 35.0800000  0  4G 6G13G 9G11
  22058243.885    22058248.159    44910775.538 9 -42831821.248 8
  20790745.120    20790749.771    -1730504.964 9  -3666740.471 8
  20072479.774    20072483.526    22725598.389 8 -59756329.300 7
  22424752.547    22424758.795    44862643.435 8 -38216386.067 7
 86  6 19  1 34 41.0800000  0  4G 6G13G 9G11
  22061826.306    22061830.562    44929597.334 9 -42817154.909 7
  20789905.208    20789909.069    -1734922.263 7  -3670182.522 8
  20072959.042    20072961.451    22728110.961 7 -59754371.447 7
  22427662.459    22427666.894    44877927.980 8 -38204476.039 8
 86  6 19  1 34 47.0800000  0  4G 6G13G 9G11
  22065410.934    22065413.601    44948435.789 8 -42802475.598 8
  20789067.625    20789071.764    -1739321.817 8  -3673610.732 8
  20073440.855    20073443.959    22730649.557 8 -59752393.326 7
  22430572.319    22430576.637    44893217.156 8 -38192562.397 8
 86  6 19  1 34 53.0800000  0  4G 6G13G 9G11
  22068997.990    22069003.075    44967290.932 9 -42787783.285 9
  20788234.045    20788238.017    -1743703.653 8  -3677025.153 7
  20073929.741    20073932.170    22733214.434 7 -59750394.733 7
  22433481.285    22433485.906    44908510.954 8 -38180645.158 8
 86  6 19  1 34 59.0800000  0  4G 6G13G 9G11
  22072589.367    22072593.501    44986162.778 9 -42773077.970 8
  20787403.740    20787408.676    -1748067.664 8  -3680425.673 8
  20074422.705    20074425.091    22735805.401 7 -59748375.793 8
  22436394.226    22436399.354    44923809.337 8 -38168724.343 7
 86  6 19  1 35  5.0800000  0  4G 6G13G 9G11
  22076185.213    22076188.673    45005051.260 9 -42758359.667 8
  20786575.491    20786580.755    -1752413.873 9  -3683812.323 8
  20074920.252    20074924.118    22738422.619 8 -59746336.400 6
  22439305.550    22439310.165    44939112.324 8 -38156799.953 8
 86  6 19  1 35 11.0800000  0  4G 6G13G 9G11
  22079781.101    22079785.988    45023956.368 8 -42743628.433 8
  20785752.419    20785756.201    -1756742.332 8  -3687185.148 7
  20075422.200    20075425.901    22741065.958 8 -59744276.648 8
  22442218.277    22442222.966    44954419.897 8 -38144871.979 8
 86  6 19  1 35 17.0800000  0  4G 6G13G 9G11
  22083382.182    22083386.779    45042878.158 8 -42728884.199 8
  20784932.285    20784936.139    -1761052.961 8  -3690544.080 8
  20075930.869    20075934.999    22743735.548 7 -59742196.458 7
  22445132.237    22445137.308    44969732.085 9 -38132940.391 7
 86  6 19  1 35 23.0800000  0  4G 6G13G 9G11
  22086986.765    22086991.257    45061816.545 8 -42714127.008 8
  20784115.329    20784120.171    -1765345.774 8  -3693889.123 8
  20076443.469    20076448.014    22746431.348 8 -59740095.844 7
  22448047.295    22448051.252    44985048.881 8 -38121005.231 7
 86  6 19  1 35 29.0800000  0  4G 6G13G 9G11
  22090593.167    22090598.901    45080771.563 8 -42699356.875 9
  20783302.097    20783306.631    -1769620.835 8  -3697220.335 9
  20076962.883    20076966.328    22749153.392 8 -59737974.763 7
  22450961.499    22450966.479    45000370.257 9 -38109066.501 7
 86  6 19  1 35 35.0800000  0  4G 6G13G 9G11
  22094202.750    22094208.314    45099743.198 8 -42684573.790 9
  20782492.299    20782496.103    -1773878.133 8  -3700537.710 7
  20077485.398    20077487.123    22751901.747 7 -59735833.191 8
  22453879.110    22453883.791    45015696.146 9 -38097124.247 8
 86  6 19  1 35 41.0800000  0  4G 6G13G 9G11
  22097816.924    22097821.716    45118731.359 8 -42669777.832 8
  20781686.119    20781689.744    -1778117.678 9  -3703841.247 7
  20078013.961    20078015.710    22754676.295 7 -59733671.203 8
  22456795.288    22456800.112    45031026.558 8 -38085178.469 7
 86  6 19  1 35 47.0800000  0  4G 6G13G 9G11
  22101431.790    22101438.039    45137736.030 8 -42654969.001 8
  20780882.061    20780884.861    -1782339.470 8  -3707130.965 8
  20078546.392    20078549.179    22757476.994 8 -59731488.832 8
  22459712.963    22459719.099    45046361.402 8 -38073229.254 8
 86  6 19  1 35 53.0800000  0  4G 6G13G 9G11
  22105053.344    22105057.245    45156757.148 8 -42640147.366 8
  20780081.061    20780085.914    -1786543.528 8  -3710406.853 8
  20079083.664    20079087.553    22760303.870 7 -59729286.083 7
  22462633.982    22462638.562    45061700.614 8 -38061276.634 8
 86  6 19  1 35 59.0800000  0  4G 6G13G 9G11
  22108675.085    22108680.486    45175794.792 8 -42625312.846 8
  20779284.780    20779288.860    -1790729.763 8  -3713668.834 8
  20079627.334    20079630.258    22763157.011 8 -59727062.877 8
  22465552.520    22465558.461    45077044.240 8 -38049320.560 7
 86  6 19  1 36  5.0800000  0  4G 6G13G 9G11
  22112301.444    22112305.874    45194848.947 8 -42610465.469 9
  20778492.471    20778495.875    -1794898.259 8  -3716917.032 7
  20080173.953    20080179.041    22766036.320 8 -59724819.248 7
  22468473.857    22468479.189    45092392.358 8 -38037360.980 7
 86  6 19  1 36 11.0800000  0  4G 6G13G 9G11
  22115931.124    22115934.760    45213919.654 9 -42595605.186 8
  20777703.119    20777705.689    -1799048.970 8  -3720151.351 8
  20080727.610    20080731.196    22768942.028 7 -59722555.071 7
  22471394.437    22471400.428    45107745.042 8 -38025397.851 8
 86  6 19  1 36 17.0800000  0  4G 6G13G 9G11
  22119562.929    22119566.656    45233006.819 8 -42580732.071 8
  20776915.603    20776919.078    -1803182.024 9  -3723371.910 8
  20081286.046    20081290.332    22771873.942 7 -59720270.466 8
  22474316.860    22474322.326    45123102.190 9 -38013431.255 8
 86  6 19  1 36 23.0800000  0  4G 6G13G 9G11
  22123198.573    22123202.066    45252110.397 9 -42565846.177 8
  20776131.537    20776137.571    -1807297.389 8  -3726578.678 8
  20081849.037    20081851.877    22774832.080 7 -59717965.409 8
  22477240.613    22477246.301    45138463.674 7 -38001461.271 8
 86  6 19  1 36 29.0800000  0  4G 6G13G 9G11
  22126837.134    22126841.354    45271230.326 8 -42550947.531 8
  20775352.512    20775357.066    -1811395.100 9  -3729771.709 8
  20082416.521    20082420.608    22777816.498 8 -59715639.893 8
  22480165.286    22480170.805    45153829.479 9 -37989487.930 8
 86  6 19  1 36 35.0800000  0  4G 6G13G 9G11
  22130477.966    22130482.643    45290366.563 8 -42536036.180 8
  20774575.625    20774579.995    -1815475.240 9  -3732951.034 8
  20082990.381    20082993.154    22780827.035 7 -59713294.031 8
  22483090.107    22483094.092    45169199.557 8 -37977511.234 8
 86  6 19  1 36 41.0800000  0  4G 6G13G 9G11
  22134122.074    22134127.157    45309519.110 8 -42521112.138 8
  20773803.252    20773807.491    -1819537.754 8  -3736116.621 8
  20083566.563    20083570.904    22783863.664 7 -59710927.813 8
  22486014.625    22486020.172    45184573.906 9 -37965531.221 7
 86  6 19  1 36 47.0800000  0  4G 6G13G 9G11
  22137769.358    22137774.342    45328687.868 7 -42506175.458 8
  20773033.651    20773037.073    -1823582.690 8  -3739268.527 8
  20084150.185    20084153.522    22786926.347 8 -59708541.319 7
  22488941.239    22488946.199    45199952.443 8 -37953547.960 8
 86  6 19  1 36 53.0800000  0  4G 6G13G 9G11
  22141420.739    22141426.118    45347872.895 8 -42491226.091 8
  20772266.564    20772270.600    -1827610.056 7  -3742406.741 8
  20084738.394    20084742.086    22790015.370 7 -59706134.300 7
  22491868.510    22491872.781    45215335.247 8 -37941561.357 8
 86  6 19  1 36 59.0800000  0  4G 6G13G 9G11
  22145075.258    22145079.444    45367074.189 8 -42476264.057 8
  20771503.312    20771507.512    -1831619.863 8  -3745531.253 8
  20085330.645    20085333.224    22793130.521 8 -59703706.905 7
  22494797.471    22494801.723    45230722.264 8 -37929571.478 8
 86  6 19  1 37  5.0800000  0  4G 6G13G 9G11
  22148732.278    22148736.801    45386291.753 8 -42461289.344 8
  20770744.025    20770748.903    -1835611.997 9  -3748641.999 8
  20085926.945    20085932.845    22796271.990 7 -59701259.007 7
  22497725.599    22497730.542    45246113.511 7 -37917578.305 8
 86  6 19  1 37 11.0800000  0  4G 6G13G 9G11
  22152392.074    22152397.108    45405525.530 8 -42446301.985 8
  20769988.716    20769991.821    -1839586.488 9  -3751739.006 8
  20086530.786    20086533.679    22799439.580 8 -59698790.748 8
  22500654.165    22500660.212    45261508.994 7 -37905581.828 9
 86  6 19  1 37 17.0800000  0  4G 6G13G 9G11
  22156055.277    22156058.992    45424775.565 8 -42431301.967 8
  20769235.501    20769238.948    -1843543.398 8  -3754822.312 7
  20087139.649    20087143.036    22802633.351 8 -59696302.116 7
  22503586.742    22503590.206    45276908.648 8 -37893582.097 8
 86  6 19  1 37 23.0800000  0  4G 6G13G 9G11
  22159722.447    22159725.668    45444041.722 8 -42416289.379 8
  20768485.650    20768489.400    -1847482.820 8  -3757891.986 7
  20087751.370    20087755.409    22805853.403 8 -59693792.978 8
  22506516.540    22506522.354    45292312.478 8 -37881579.113 8
 86  6 19  1 37 29.0800000  0  4G 6G13G 9G11
  22163390.053    22163395.731    45463324.075 8 -42401264.177 8
  20767738.810    20767742.960    -1851404.582 8  -3760947.902 8
  20088370.217    20088374.421    22809099.621 8 -59691263.466 8
  22509450.633    22509454.175    45307720.524 9 -37869572.842 8
 86  6 19  1 37 35.0800000  0  4G 6G13G 9G11
  22167063.549    22167068.269    45482622.709 9 -42386226.289 9
  20766994.546    20767000.988    -1855308.701 8  -3763990.064 7
  20088990.960    20088995.559    22812372.127 7 -59688713.453 7
  22512381.653    22512386.965    45323132.841 7 -37857563.271 8
 86  6 19  1 37 41.0800000  0  4G 6G13G 9G11
  22170738.740    22170744.436    45501937.601 8 -42371175.740 8
  20766256.700    20766259.524    -1859195.157 8  -3767018.469 8
  20089621.198    20089624.194    22815671.047 8 -59686142.875 8
  22515315.692    22515320.928    45338549.380 8 -37845550.380 8
 86  6 19  1 37 47.0800000  0  4G 6G13G 9G11
  22174417.388    22174421.487    45521268.694 8 -42356112.570 8
  20765519.564    20765524.133    -1863063.985 8  -3770033.134 8
  20090253.019    20090256.726    22818996.268 7 -59683551.786 7
  22518249.348    22518255.480    45353970.100 8 -37833534.239 8
 86  6 19  1 37 53.0800000  0  4G 6G13G 9G11
  22178098.902    22178104.496    45540615.972 8 -42341036.766 9
  20764786.210    20764791.626    -1866915.173 9  -3773034.061 8
  20090891.307    20090894.975    22822347.782 7 -59680940.216 9
  22521184.639    22521190.500    45369394.927 8 -37821514.892 8
 86  6 19  1 37 59.0800000  0  4G 6G13G 9G11
  22181783.519    22181787.942    45559979.359 8 -42325948.424 8
  20764057.671    20764062.080    -1870748.738 8  -3776021.246 7
  20091533.469    20091536.875    22825725.507 9 -59678308.232 8
  22524120.967    22524126.739    45384823.896 8 -37809492.324 9
 86  6 19  1 38  5.0800000  0  4G 6G13G 9G11
  22185471.781    22185475.179    45579358.868 8 -42310847.512 8
  20763331.839    20763335.937    -1874564.725 8  -3778994.737 8
  20092181.653    20092185.088    22829129.570 8 -59675655.724 8
  22527058.625    22527064.011    45400257.020 7 -37797466.511 8
 86  6 19  1 38 11.0800000  0  4G 6G13G 9G11
  22189162.390    22189166.995    45598754.501 8 -42295734.050 8
  20762608.236    20762613.328    -1878363.173 7  -3781954.562 6
  20092833.808    20092837.598    22832559.923 7 -59672982.723 7
  22529996.155    22530000.771    45415694.273 8 -37785437.492 8
 86  6 19  1 38 17.0800000  0  4G 6G13G 9G11
  22192856.367    22192861.340    45618166.161 9 -42280608.081 8
  20761889.678    20761893.780    -1882144.126 8  -3784900.744 7
  20093492.970    20093495.309    22836016.580 7 -59670289.220 8
  22532935.333    22532940.308    45431135.654 8 -37773405.259 8
 86  6 19  1 38 23.0800000  0  4G 6G13G 9G11
  22196552.653    22196557.670    45637593.893 9 -42265469.593 8
  20761172.903    20761177.599    -1885907.539 8  -3787833.275 8
  20094154.417    20094157.733    22839499.442 8 -59667575.307 7
  22535873.574    22535878.518    45446581.046 8 -37761369.882 8
 86  6 19  1 38 29.0800000  0  4G 6G13G 9G11
  22200253.406    22200257.090    45657037.642 9 -42250318.635 8
  20760460.557    20760464.883    -1889653.449 8  -3790752.166 8
  20094821.442    20094826.181    22843008.611 7 -59664840.896 8
  22538813.301    22538818.040    45462030.462 7 -37749331.381 8
 86  6 19  1 38 35.0800000  0  4G 6G13G 9G11
  22203955.971    22203960.736    45676497.398 9 -42235155.202 8
  20759749.955    20759755.101    -1893381.847 9  -3793657.409 8
  20095494.889    20095499.138    22846544.029 7 -59662086.026 7
  22541752.640    22541759.759    45477483.901 8 -37737289.744 8
 86  6 19  1 38 41.0800000  0  4G 6G13G 9G11
  22207662.642    22207668.042    45695973.041 8 -42219979.389 7
  20759044.022    20759049.094    -1897092.783 7  -3796549.047 7
  20096173.178    20096174.488    22850105.676 8 -59659310.722 7
  22544695.490    22544701.012    45492941.281 7 -37725245.045 8
 86  6 19  1 38 47.0800000  0  4G 6G13G 9G11
  22211371.796    22211376.329    45715464.584 8 -42204791.173 8
  20758342.091    20758347.201    -1900786.291 9  -3799427.103 8
  20096855.885    20096860.007    22853693.510 8 -59656515.007 8
  22547637.501    22547643.025    45508402.644 8 -37713197.220 8
 86  6 19  1 38 53.0800000  0  4G 6G13G 9G11
  22215083.892    22215087.129    45734972.064 9 -42189590.556 9
  20757643.115    20757647.046    -1904462.345 9  -3802291.556 8
  20097542.828    20097546.945    22857307.533 7 -59653698.891 8
  22550579.780    22550585.662    45523867.907 8 -37701146.365 8
 86  6 19  1 38 59.0800000  0  4G 6G13G 9G11
  22218799.152    22218803.367    45754495.382 9 -42174377.575 7
  20756945.399    20756950.365    -1908121.047 9  -3805142.501 8
  20098234.919    20098239.210    22860947.751 8 -59650862.364 7
  22553523.892    22553529.261    45539337.079 8 -37689092.474 8
 86  6 19  1 39  5.0800000  0  4G 6G13G 9G11
  22222517.332    22222521.051    45774034.546 9 -42159152.268 8
  20756253.705    20756257.540    -1911762.305 8  -3807979.840 8
  20098934.146    20098937.477    22864614.232 8 -59648005.363 7
  22556468.791    22556473.029    45554810.164 7 -37677035.537 9
 86  6 19  1 39 11.0800000  0  4G 6G13G 9G11
  22226238.758    22226242.471    45793589.587 8 -42143914.585 8
  20755563.798    20755567.618    -1915386.126 8  -3810803.595 8
  20099637.103    20099639.716    22868307.053 8 -59645127.841 8
  22559413.652    22559419.818    45570287.157 8 -37664975.540 7
 86  6 19  1 39 17.0800000  0  4G 6G13G 9G11
  22229962.119    22229966.524    45813160.485 8 -42128664.546 8
  20754876.769    20754881.316    -1918992.449 8  -3813613.717 8
  20100344.081    20100346.760    22872026.121 8 -59642229.871 7
  22562360.692    22562365.095    45585768.049 7 -37652912.510 8
 86  6 19  1 39 23.0800000  0  4G 6G13G 9G11
  22233690.606    22233693.107    45832747.249 9 -42113402.138 8
  20754193.234    20754199.161    -1922581.337 8  -3816410.250 8
  20101055.720    20101061.223    22875771.429 7 -59639311.446 7
  22565306.073    22565311.575    45601252.875 7 -37640846.417 8
 86  6 19  1 39 29.0800000  0  4G 6G13G 9G11
  22237420.773    22237424.546    45852349.883 8 -42098127.360 8
  20753514.112    20753519.108    -1926152.831 8  -3819193.233 8
  20101773.997    20101778.208    22879543.015 7 -59636372.556 8
  22568253.548    22568258.776    45616741.604 8 -37628777.284 8
 86  6 19  1 39 35.0800000  0  4G 6G13G 9G11
  22241154.969    22241157.627    45871968.276 8 -42082840.310 8
  20752839.185    20752841.226    -1929706.936 8  -3821962.657 8
  20102497.523    20102500.356    22883340.997 7 -59633413.101 8
  22571202.245    22571208.777    45632234.226 8 -37616705.122 9
 86  6 19  1 39 41.0800000  0  4G 6G13G 9G11
  22244890.039    22244893.825    45891602.460 8 -42067540.965 8
  20752165.352    20752170.425    -1933243.627 8  -3824718.529 8
  20103225.149    20103228.532    22887165.208 7 -59630433.188 7
  22574149.554    22574155.246    45647730.650 9 -37604629.992 7
 86  6 19  1 39 47.0800000  0  4G 6G13G 9G11
  22248629.079    22248633.308    45911252.408 9 -42052229.320 8
  20751496.750    20751499.875    -1936762.918 8  -3827460.831 7
  20103957.981    20103960.644    22891015.704 8 -59627432.800 8
  22577100.013    22577107.012    45663230.874 8 -37592551.901 8
 86  6 19  1 39 53.0800000  0  4G 6G13G 9G11
  22252371.737    22252375.019    45930918.095 9 -42036905.406 8
  20750829.680    20750834.501    -1940264.812 9  -3830189.586 7
  20104695.889    20104699.422    22894892.463 8 -59624411.951 7
  22580051.008    22580055.738    45678734.940 7 -37580470.815 7
 86  6 19  1 39 59.0800000  0  4G 6G13G 9G11
  22256117.070    22256121.312    45950599.556 8 -42021569.215 8
  20750166.796    20750171.137    -1943749.317 8  -3832904.783 9
  20105438.187    20105442.181    22898795.453 8 -59621370.669 8
  22583001.215    22583007.575    45694242.815 7 -37568386.764 8
 86  6 19  1 40  5.0800000  0  4G 6G13G 9G11
  22259864.630    22259868.821    45970296.791 8 -42006220.724 8
  20749507.385    20749511.815    -1947216.408 8  -3835606.424 8
  20106186.446    20106189.924    22902724.838 7 -59618308.815 7
  22585953.361    22585957.791    45709754.503 7 -37556299.730 8
 86  6 19  1 40 11.0800000  0  4G 6G13G 9G11
  22263616.443    22263620.389    45990009.777 8 -41990859.966 7
  20748850.453    20748854.321    -1950665.984 9  -3838294.405 7
  20106939.498    20106942.456    22906680.575 7 -59615226.422 7
  22588904.388    22588911.037    45725270.062 7 -37544209.706 7
 86  6 19  1 40 17.0800000  0  4G 6G13G 9G11
  22267369.299    22267375.517    46009738.528 8 -41975486.908 8
  20748198.023    20748202.304    -1954098.038 8  -3840968.728 7
  20107695.949    20107699.992    22910662.659 7 -59612123.501 8
  22591860.118    22591865.599    45740789.470 7 -37532116.653 8
 86  6 19  1 40 23.0800000  0  4G 6G13G 9G11
  22271127.779    22271131.704    46029483.011 8 -41960101.613 8
  20747547.638    20747551.217    -1957512.673 8  -3843629.488 7
  20108459.106    20108463.796    22914671.123 7 -59609000.027 8
  22594813.431    22594818.580    45756312.665 7 -37520020.673 9
 86  6 19  1 40 29.0800000  0  4G 6G13G 9G11
  22274887.002    22274892.427    46049243.102 8 -41944704.160 8
  20746900.830    20746904.690    -1960909.986 8  -3846276.737 8
  20109226.353    20109230.101    22918705.800 7 -59605856.120 8
  22597767.936    22597774.133    45771839.541 8 -37507921.813 8
 86  6 19  1 40 35.0800000  0  4G 6G13G 9G11
  22278650.287    22278655.207    46069018.774 8 -41929294.554 8
  20746257.437    20746260.726    -1964289.972 8  -3848910.507 8
  20109999.125    20110003.410    22922766.868 8 -59602691.663 7
  22600723.100    22600729.734    45787370.111 8 -37495820.063 8
 86  6 19  1 40 41.0800000  0  4G 6G13G 9G11
  22282417.238    22282421.453    46088809.985 9 -41913872.852 8
  20745616.916    20745621.831    -1967652.691 8  -3851530.782 7
  20110777.768    20110780.598    22926854.145 7 -59599506.756 7
  22603679.339    22603685.696    45802904.316 8 -37483715.509 8
 86  6 19  1 40 47.0800000  0  4G 6G13G 9G11
  22286186.640    22286189.922    46108616.770 8 -41898438.990 7
  20744979.814    20744984.911    -1970998.154 9  -3854137.640 8
  20111560.064    20111564.171    22930967.622 7 -59596301.449 7
  22606637.002    22606640.824    45818442.122 7 -37471608.120 8
 86  6 19  1 40 53.0800000  0  4G 6G13G 9G11
  22289958.134    22289961.784    46128439.035 8 -41882993.087 8
  20744347.171    20744351.218    -1974326.375 8  -3856731.054 8
  20112347.877    20112351.780    22935107.344 8 -59593075.704 7
  22609593.637    22609599.353    45833983.545 8 -37459497.935 8
 86  6 19  1 40 59.0800000  0  4G 6G13G 9G11
  22293732.546    22293737.241    46148276.762 8 -41867535.105 8
  20743717.436    20743721.751    -1977637.387 9  -3859311.061 8
  20113141.688    20113144.308    22939273.348 7 -59589829.476 9
  22612552.084    22612557.455    45849528.509 7 -37447384.971 7
 86  6 19  1 41  5.0800000  0  4G 6G13G 9G11
  22297511.766    22297515.424    46168129.981 8 -41852065.082 8
  20743089.950    20743095.688    -1980931.146 8  -3861877.611 8
  20113937.801    20113942.074    22943465.547 7 -59586562.808 7
  22615510.574    22615515.726    45865077.010 7 -37435269.265 8
 86  6 19  1 41 11.0800000  0  4G 6G13G 9G11
  22301292.216    22301296.306    46187998.626 8 -41836583.009 8
  20742466.633    20742471.841    -1984207.740 9  -3864430.795 8
  20114741.466    20114745.338    22947683.914 8 -59583275.785 7
  22618469.348    22618475.574    45880629.036 7 -37423150.814 9
 86  6 19  1 41 17.0800000  0  4G 6G13G 9G11
  22305075.989    22305080.749    46207882.712 9 -41821088.939 8
  20741847.864    20741850.786    -1987467.142 8  -3866970.589 7
  20115550.549    20115552.828    22951928.558 7 -59579968.259 7
  22621430.949    22621434.940    45896184.593 8 -37411029.605 8
 86  6 19  1 41 23.0800000  0  4G 6G13G 9G11
  22308862.533    22308867.294    46227782.269 7 -41805582.793 8
  20741230.798    20741234.037    -1990709.341 9  -3869496.971 8
  20116362.468    20116365.472    22956199.547 8 -59576640.215 7
  22624391.166    22624396.293    45911743.691 8 -37398905.630 8
 86  6 19  1 41 29.0800000  0  4G 6G13G 9G11
  22312653.080    22312657.167    46247697.245 8 -41790064.654 8
  20740614.849    20740620.219    -1993934.349 8  -3872009.969 8
  20117179.622    20117182.545    22960496.837 8 -59573291.663 7
  22627352.322    22627358.005    45927306.397 8 -37386778.853 8
 86  6 19  1 41 35.0800000  0  4G 6G13G 9G11
  22316444.279    22316449.074    46267627.665 8 -41774534.455 8
  20740006.516    20740010.798    -1997142.028 8  -3874509.464 8
  20118002.280    20118005.780    22964820.492 7 -59569922.604 8
  22630314.256    22630321.516    45942872.735 8 -37374649.249 7
 86  6 19  1 41 41.0800000  0  4G 6G13G 9G11
  22320240.270    22320245.553    46287573.548 8 -41758992.234 8
  20739398.432    20739403.941    -2000332.455 8  -3876995.496 7
  20118830.591    20118834.065    22969170.356 7 -59566533.096 7
  22633277.623    22633282.332    45958442.625 9 -37362516.872 9
 86  6 19  1 41 47.0800000  0  4G 6G13G 9G11
  22324038.169    22324043.540    46307534.812 7 -41743438.005 8
  20738794.126    20738799.889    -2003505.631 8  -3879468.115 8
  20119662.334    20119667.362    22973546.539 8 -59563123.091 8
  22636241.285    22636246.470    45974016.043 8 -37350381.743 8
 86  6 19  1 41 53.0800000  0  4G 6G13G 9G11
  22327839.634    22327844.561    46327511.461 8 -41727871.806 8
  20738194.061    20738198.964    -2006661.530 9  -3881927.239 7
  20120501.625    20120503.884    22977949.072 8 -59559692.545 8
  22639205.988    22639210.987    45989593.038 8 -37338243.837 9
 86  6 19  1 41 59.0800000  0  4G 6G13G 9G11
  22331645.376    22331650.406    46347503.521 8 -41712293.583 8
  20737597.430    20737600.924    -2009800.091 8  -3884372.872 8
  20121344.688    20121347.391    22982377.989 8 -59556241.442 8
  22642170.847    22642174.887    46005173.628 9 -37326103.115 8
 86  6 19  1 42  5.0800000  0  4G 6G13G 9G11
  22335452.440    22335457.192    46367510.957 8 -41696703.389 8
  20737003.737    20737008.252    -2012921.420 8  -3886805.075 8
  20122192.692    20122196.092    22986833.260 7 -59552769.800 8
  22645136.410    22645141.518    46020757.672 8 -37313959.709 8
 86  6 19  1 42 11.0800000  0  4G 6G13G 9G11
  22339263.605    22339266.695    46387533.671 9 -41681101.283 8
  20736412.289    20736417.092    -2016025.620 8  -3889223.923 8
  20123044.306    20123048.447    22991314.782 9 -59549277.711 8
  22648102.404    22648107.045    46036345.190 8 -37301813.599 8
 86  6 19  1 42 17.0800000  0  4G 6G13G 9G11
  22343076.587    22343080.203    46407571.734 8 -41665487.200 7
  20735825.394    20735829.139    -2019112.587 8  -3891629.357 8
  20123902.984    20123904.827    22995822.704 8 -59545765.041 8
  22651068.882    22651074.600    46051936.127 7 -37289664.829 8
 86  6 19  1 42 23.0800000  0  4G 6G13G 9G11
  22346892.763    22346895.612    46427625.040 8 -41649861.260 8
  20735240.296    20735245.224    -2022182.418 8  -3894021.434 9
  20124763.823    20124768.803    23000356.809 7 -59542231.978 8
  22654036.287    22654041.806    46067530.516 9 -37277513.364 8
 86  6 19  1 42 29.0800000  0  4G 6G13G 9G11
  22350710.733    22350715.875    46447693.595 9 -41634223.436 8
  20734659.290    20734663.607    -2025235.135 9  -3896400.162 8
  20125632.883    20125635.654    23004917.202 8 -59538678.437 7
  22657003.741    22657010.244    46083128.325 8 -37265359.234 8
 86  6 19  1 42 35.0800000  0  4G 6G13G 9G11
  22354531.614    22354536.874    46467777.362 7 -41618573.760 8
  20734081.910    20734086.634    -2028270.699 9  -3898765.543 8
  20126505.588    20126509.297    23009503.916 7 -59535104.369 8
  22659972.806    22659979.014    46098729.523 8 -37253202.467 7
 86  6 19  1 42 41.0800000  0  4G 6G13G 9G11
  22358357.804    22358361.769    46487876.278 8 -41602912.267 8
  20733507.723    20733511.437    -2031289.190 8  -3901117.612 7
  20127384.013    20127386.281    23014116.822 7 -59531509.901 8
  22662943.126    22662947.381    46114334.033 9 -37241043.118 8
 86  6 19  1 42 47.0800000  0  4G 6G13G 9G11
  22362184.522    22362190.154    46507990.289 8 -41587239.018 9
  20732936.202    20732941.432    -2034290.605 9  -3903456.364 9
  20128265.530    20128269.329    23018755.935 7 -59527895.009 7
  22665911.934    22665918.603    46129941.795 8 -37228881.229 8
 86  6 19  1 42 53.0800000  0  4G 6G13G 9G11
  22366015.008    22366020.165    46528119.405 7 -41571554.014 8
  20732368.647    20732372.868    -2037274.882 9  -3905781.782 7
  20129153.326    20129156.548    23023421.246 7 -59524259.712 7
  22668883.271    22668889.183    46145552.841 8 -37216716.787 8
 86  6 19  1 42 59.0800000  0  4G 6G13G 9G11
  22369849.098    22369853.556    46548263.652 8 -41555857.204 8
  20731804.525    20731808.775    -2040242.037 9  -3908093.858 8
  20130045.372    20130050.086    23028112.923 7 -59520603.866 8
  22671854.615    22671860.365    46161167.199 8 -37204549.758 8
 86  6 19  1 43  5.0800000  0  4G 6G13G 9G11
  22373685.719    22373690.116    46568423.045 9 -41540148.596 9
  20731242.746    20731247.158    -2043192.064 9  -3910392.567 8
  20130944.765    20130948.625    23032830.956 7 -59516927.471 7
  22674827.665    22674831.411    46176784.894 8 -37192380.139 9
 86  6 19  1 43 11.0800000  0  4G 6G13G 9G11
  22377524.647    22377528.388    46588597.572 8 -41524428.199 9
  20730685.297    20730689.489    -2046124.999 8  -3912677.970 8
  20131848.234    20131851.281    23037575.308 6 -59513230.591 7
  22677798.156    22677804.965    46192405.930 9 -37180207.896 9
 86  6 19  1 43 17.0800000  0  4G 6G13G 9G11
  22381366.055    22381371.561    46608787.164 8 -41508696.064 9
  20730130.750    20730133.581    -2049040.827 7  -3914950.053 8
  20132754.433    20132758.365    23042345.963 7 -59509513.204 8
  22680773.226    22680777.689    46208030.275 7 -37168033.092 8
 86  6 19  1 43 23.0800000  0  4G 6G13G 9G11
  22385210.598    22385215.603    46628991.857 8 -41492952.159 8
  20729577.701    20729582.829    -2051939.485 8  -3917208.752 7
  20133668.316    20133672.874    23047142.841 7 -59505775.373 7
  22683747.493    22683750.558    46223657.874 8 -37155855.737 8
 86  6 19  1 43 29.0800000  0  4G 6G13G 9G11
  22389058.760    22389062.341    46649211.681 8 -41477196.461 9
  20729029.756    20729034.037    -2054821.027 8  -3919454.101 8
  20134585.854    20134590.176    23051966.112 8 -59502016.985 8
  22686721.009    22686726.791    46239288.757 8 -37143675.833 8
 86  6 19  1 43 35.0800000  0  4G 6G13G 9G11
  22392908.955    22392913.818    46669446.487 8 -41461429.089 8
  20728485.108    20728489.510    -2057685.564 8  -3921686.216 8
  20135507.181    20135511.289    23056815.693 8 -59498238.089 8
  22689696.071    22689701.729    46254922.928 9 -37131493.356 8
 86  6 19  1 43 41.0800000  0  4G 6G13G 9G11
  22396762.259    22396766.668    46689696.356 8 -41445649.968 8
  20727942.695    20727947.128    -2060533.018 7  -3923905.010 8
  20136436.143    20136439.905    23061691.547 7 -59494438.729 7
  22692672.240    22692676.306    46270560.334 8 -37119308.370 8
 86  6 19  1 43 47.0800000  0  4G 6G13G 9G11
  22400618.939    22400623.796    46709961.221 8 -41429859.181 8
  20727404.516    20727409.826    -2063363.455 8  -3926110.543 8
  20137368.842    20137373.063    23066593.694 7 -59490618.877 8
  22695648.947    22695653.221    46286201.001 8 -37107120.849 8
 86  6 19  1 43 53.0800000  0  4G 6G13G 9G11
  22404477.890    22404482.499    46730241.088 8 -41414056.700 8
  20726868.620    20726873.518    -2066176.868 9  -3928302.798 8
  20138306.323    20138312.128    23071522.199 8 -59486778.492 7
  22698625.631    22698630.106    46301844.848 8 -37094930.835 8
 86  6 19  1 43 59.0800000  0  4G 6G13G 9G11
  22408339.531    22408344.721    46750535.889 9 -41398242.577 9
  20726336.862    20726341.210    -2068973.194 9  -3930481.763 8
  20139249.260    20139254.071    23076476.941 8 -59482917.644 7
  22701603.009    22701608.027    46317491.848 8 -37082738.362 8
 86  6 19  1 44  5.0800000  0  4G 6G13G 9G11
  22412204.426    22412209.692    46770845.629 8 -41382416.814 9
  20725807.982    20725813.172    -2071752.471 8  -3932647.430 8
  20140197.090    20140201.337    23081457.949 7 -59479036.338 8
  22704581.210    22704585.295    46333142.024 8 -37070543.425 8
 86  6 19  1 44 11.0800000  0  4G 6G13G 9G11
  22416070.339    22416077.337    46791170.322 8 -41366579.400 7
  20725281.755    20725286.710    -2074514.764 8  -3934799.851 9
  20141150.475    20141154.076    23086465.300 8 -59475134.520 7
  22707560.509    22707564.362    46348795.380 7 -37058346.020 9
 86  6 19  1 44 17.0800000  0  4G 6G13G 9G11
  22419941.971    22419948.238    46811509.914 8 -41350730.392 9
  20724761.232    20724764.596    -2077260.074 8  -3936939.066 8
  20142108.022    20142112.966    23091498.844 8 -59471212.274 7
  22710538.377    22710543.431    46364451.860 8 -37046146.164 8
 86  6 19  1 44 23.0800000  0  4G 6G13G 9G11
  22423815.121    22423820.295    46831864.319 8 -41334869.829 8
  20724240.835    20724245.201    -2079988.352 9  -3939065.003 8
  20143070.906    20143074.317    23096558.813 8 -59467269.447 8
  22713519.669    22713523.218    46380111.447 9 -37033943.886 8
 86  6 19  1 44 29.0800000  0  4G 6G13G 9G11
  22427692.537    22427697.579    46852233.613 8 -41318997.665 8
  20723725.176    20723730.524    -2082699.710 8  -3941177.748 8
  20144039.390    20144043.503    23101644.960 7 -59463306.210 7
  22716499.157    22716504.150    46395774.135 8 -37021739.202 9
 86  6 19  1 44 35.0800000  0  4G 6G13G 9G11
  22431571.442    22431576.098    46872617.703 8 -41303113.965 9
  20723211.963    20723216.092    -2085394.118 9  -3943277.265 9
  20145012.728    20145016.190    23106757.354 8 -59459322.530 7
  22719481.771    22719485.731    46411439.928 9 -37009532.100 8
 86  6 19  1 44 41.0800000  0  4G 6G13G 9G11
  22435452.972    22435458.359    46893016.552 8 -41287218.761 9
  20722702.842    20722707.188    -2088071.625 8  -3945363.632 8
  20145990.414    20145993.108    23111896.062 8 -59455318.342 8
  22722462.756    22722467.525    46427108.757 9 -36997322.628 8
 86  6 19  1 44 47.0800000  0  4G 6G13G 9G11
  22439338.272    22439342.566    46913430.139 8 -41271312.074 8
  20722196.518    20722200.523    -2090732.219 8  -3947436.822 7
  20146972.718    20146976.289    23117060.924 8 -59451293.783 7
  22725445.214    22725449.479    46442780.601 8 -36985110.806 8
 86  6 19  1 44 53.0800000  0  4G 6G13G 9G11
  22443225.146    22443228.800    46933858.462 8 -41255393.909 8
  20721692.548    20721697.299    -2093375.932 8  -3949496.866 8
  20147961.506    20147964.773    23122252.038 8 -59447248.756 8
  22728426.973    22728433.412    46458455.472 9 -36972896.622 7
 86  6 19  1 44 59.0800000  0  4G 6G13G 9G11
  22447114.794    22447120.812    46954301.505 8 -41239464.278 9
  20721194.086    20721197.475    -2096002.801 9  -3951543.771 8
  20148954.990    20148956.632    23127469.424 8 -59443183.268 8
  22731410.279    22731416.240    46474133.340 9 -36960680.111 8
 86  6 19  1 45  5.0800000  0  4G 6G13G 9G11
  22451008.271    22451011.907    46974759.200 8 -41223523.222 9
  20720695.529    20720701.028    -2098612.747 9  -3953577.488 8
  20149951.939    20149954.473    23132713.025 9 -59439097.347 7
  22734394.383    22734399.894    46489814.148 8 -36948461.308 8
 86  6 19  1 45 11.0800000  0  4G 6G13G 9G11
  22454904.015    22454908.834    46995231.554 8 -41207570.758 9
  20720203.509    20720207.483    -2101205.843 8  -3955598.062 8
  20150955.753    20150957.205    23137982.767 7 -59434991.054 8
  22737379.079    22737384.501    46505497.902 8 -36936240.208 8
 86  6 19  1 45 17.0800000  0  4G 6G13G 9G11
  22458802.266    22458806.398    47015718.592 8 -41191606.831 8
  20719712.095    20719717.388    -2103782.072 8  -3957605.528 8
  20151962.178    20151964.975    23143278.876 7 -59430864.225 7
  22740364.974    22740369.207    46521184.607 8 -36924016.808 8
 86  6 19  1 45 23.0800000  0  4G 6G13G 9G11
  22462704.394    22462708.046    47036220.261 8 -41175631.542 9
  20719225.652    20719229.044    -2106341.452 9  -3959599.845 7
  20152975.585    20152977.084    23148601.136 8 -59426717.010 7
  22743349.852    22743354.160    46536874.221 9 -36911791.145 8
 86  6 19  1 45 29.0800000  0  4G 6G13G 9G11
  22466607.950    22466611.888    47056736.499 8 -41159644.867 9
  20718741.295    20718746.263    -2108883.897 8  -3961580.972 7
  20153993.062    20153996.577    23153949.741 7 -59422549.276 8
  22746336.829    22746340.880    46552566.769 8 -36899563.195 8
 86  6 19  1 45 35.0800000  0  4G 6G13G 9G11
  22470514.348    22470519.174    47077267.373 9 -41143646.791 8
  20718260.645    20718266.085    -2111409.446 9  -3963548.927 7
  20155017.058    20155019.110    23159324.499 8 -59418361.150 8
  22749322.893    22749327.592    46568262.233 8 -36887332.965 8
 86  6 19  1 45 41.0800000  0  4G 6G13G 9G11
  22474424.110    22474428.354    47097812.851 9 -41127637.326 8
  20717783.915    20717787.764    -2113918.190 9  -3965503.795 8
  20156044.152    20156046.914    23164725.496 7 -59414152.589 8
  22752310.338    22752313.365    46583960.634 8 -36875100.462 8
 86  6 19  1 45 47.0800000  0  4G 6G13G 9G11
  22478336.159    22478342.262    47118372.907 7 -41111616.516 8
  20717309.370    20717313.636    -2116410.154 8  -3967445.584 8
  20157076.313    20157079.063    23170152.718 7 -59409923.598 7
  22755298.419    22755302.899    46599661.890 9 -36862865.707 7
 86  6 19  1 45 53.0800000  0  4G 6G13G 9G11
  22482252.708    22482257.484    47138947.554 9 -41095584.347 8
  20716839.072    20716842.891    -2118885.264 8  -3969374.237 8
  20158112.973    20158116.340    23175606.294 7 -59405674.049 8
  22758287.109    22758290.116    46615366.047 8 -36850628.706 8
 86  6 19  1 45 59.0800000  0  4G 6G13G 9G11
  22486170.161    22486175.289    47159536.738 9 -41079540.832 9
  20716369.947    20716374.894    -2121343.560 8  -3971289.787 7
  20159156.701    20159159.293    23181086.078 8 -59401404.095 8
  22761276.113    22761280.575    46631073.135 8 -36838389.437 8
 86  6 19  1 46  5.0800000  0  4G 6G13G 9G11
  22490090.910    22490095.981    47180140.419 9 -41063486.032 8
  20715906.048    20715909.052    -2123785.055 8  -3973192.251 8
  20160204.893    20160207.426    23186592.037 8 -59397113.745 7
  22764266.288    22764270.023    46646783.041 8 -36826147.934 8
 86  6 19  1 46 11.0800000  0  4G 6G13G 9G11
  22494014.567    22494019.598    47200758.516 9 -41047419.988 9
  20715445.953    20715449.511    -2126209.782 9  -3975081.649 7
  20161255.844    20161259.964    23192124.253 8 -59392802.917 7
  22767254.606    22767259.869    46662495.804 8 -36813904.250 8
 86  6 19  1 46 17.0800000  0  4G 6G13G 9G11
  22497940.456    22497944.973    47221391.025 8 -41031342.718 9
  20714986.278    20714990.659    -2128617.788 8  -3976958.014 8
  20162315.176    20162318.881    23197682.687 8 -59388471.684 8
  22770245.371    22770250.323    46678211.284 8 -36801658.418 8
 86  6 19  1 46 23.0800000  0  4G 6G13G 9G11
  22501869.724    22501874.379    47242037.972 9 -41015254.197 9
  20714532.075    20714536.153    -2131009.020 9  -3978821.309 7
  20163378.763    20163379.801    23203267.284 7 -59384120.057 8
  22773236.776    22773242.474    46693929.576 8 -36789410.411 8
 86  6 19  1 46 29.0800000  0  4G 6G13G 9G11
  22505801.880    22505806.465    47262699.381 9 -40999154.411 8
  20714079.039    20714083.460    -2133383.427 8  -3980671.499 7
  20164445.086    20164448.393    23208878.195 8 -59379747.928 7
  22776228.984    22776233.227    46709650.706 8 -36777160.168 8
 86  6 19  1 46 35.0800000  0  4G 6G13G 9G11
  22509736.050    22509740.816    47283375.234 8 -40983043.362 8
  20713630.984    20713634.733    -2135741.125 9  -3982508.658 8
  20165516.810    20165520.787    23214515.353 8 -59375355.330 7
  22779220.344    22779225.191    46725374.651 8 -36764907.752 8
 86  6 19  1 46 41.0800000  0  4G 6G13G 9G11
  22513672.814    22513678.149    47304065.500 8 -40966921.103 9
  20713185.874    20713189.573    -2138082.077 8  -3984332.768 9
  20166595.695    20166599.524    23220178.804 8 -59370942.256 7
  22782213.729    22782218.520    46741101.378 8 -36752653.171 7
 86  6 19  1 46 47.0800000  0  4G 6G13G 9G11
  22517612.861    22517617.756    47324770.187 8 -40950787.598 9
  20712744.245    20712748.788    -2140406.288 9  -3986143.842 8
  20167677.944    20167681.476    23225868.495 7 -59366508.755 7
  22785205.632    22785212.181    46756830.891 8 -36740396.408 7
 86  6 19  1 46 53.0800000  0  4G 6G13G 9G11
  22521555.664    22521560.688    47345489.253 8 -40934642.871 9
  20712304.359    20712308.803    -2142713.746 8  -3987941.867 7
  20168766.104    20168769.524    23231584.341 8 -59362054.834 7
  22788199.909    22788205.251    46772563.176 8 -36728137.485 8
 86  6 19  1 46 59.0800000  0  4G 6G13G 9G11
  22525502.166    22525506.326    47366222.628 8 -40918487.010 8
  20711868.644    20711873.264    -2145004.422 8  -3989726.796 7
  20169859.135    20169862.370    23237326.529 7 -59357580.413 8
  22791194.710    22791199.002    46788298.259 8 -36715876.399 7
 86  6 19  1 47  5.0800000  0  4G 6G13G 9G11
  22529449.759    22529453.615    47386970.388 8 -40902319.932 8
  20711435.988    20711440.131    -2147278.357 9  -3991498.696 8
  20170956.791    20170959.546    23243094.959 7 -59353085.542 8
  22794189.150    22794193.657    46804036.061 8 -36703613.160 8
 86  6 19  1 47 11.0800000  0  4G 6G13G 9G11
  22533400.432    22533404.533    47407732.369 9 -40886141.768 8
  20711005.857    20711010.981    -2149535.618 8  -3993257.605 8
  20172059.035    20172063.075    23248889.575 8 -59348570.248 8
  22797184.642    22797188.905    46819776.583 8 -36691347.826 7
 86  6 19  1 47 17.0800000  0  4G 6G13G 9G11
  22537355.123    22537358.299    47428508.586 8 -40869952.506 8
  20710580.785    20710583.723    -2151776.284 8  -3995003.577 8
  20173166.159    20173170.297    23254710.310 8 -59344034.622 8
  22800179.452    22800184.620    46835519.690 8 -36679080.473 7
 86  6 19  1 47 23.0800000  0  4G 6G13G 9G11
  22541310.602    22541314.785    47449299.048 8 -40853752.169 8
  20710157.511    20710161.359    -2154000.312 8  -3996736.578 8
  20174278.704    20174282.840    23260557.246 7 -59339478.566 7
  22803176.691    22803181.240    46851265.454 8 -36666811.052 8
 86  6 19  1 47 29.0800000  0  4G 6G13G 9G11
  22545270.157    22545274.170    47470103.679 9 -40837540.773 7
  20709736.542    20709741.160    -2156207.710 8  -3998456.629 8
  20175396.689    20175401.297    23266430.325 7 -59334902.136 7
  22806173.366    22806178.541    46867013.825 9 -36654539.582 8
 86  6 19  1 47 35.0800000  0  4G 6G13G 9G11
  22549230.606    22549234.866    47490922.504 8 -40821318.321 9
  20709320.010    20709324.274    -2158398.422 8  -4000163.682 8
  20176519.661    20176523.086    23272329.646 7 -59330305.268 9
  22809170.753    22809175.962    46882764.861 8 -36642266.078 8
 86  6 19  1 47 41.0800000  0  4G 6G13G 9G11
  22553194.532    22553199.522    47511755.508 8 -40805084.811 8
  20708906.454    20708910.388    -2160572.553 9  -4001857.810 8
  20177646.628    20177650.852    23278255.135 8 -59325688.014 7
  22812170.118    22812172.778    46898518.425 8 -36629990.567 7
 86  6 19  1 47 47.0800000  0  4G 6G13G 9G11
  22557161.658    22557167.570    47532602.672 8 -40788840.290 8
  20708495.960    20708499.857    -2162729.977 8  -4003538.915 8
  20178780.489    20178783.081    23284206.904 7 -59321050.286 8
  22815166.666    22815171.846    46914274.646 8 -36617712.991 7
 86  6 19  1 47 53.0800000  0  4G 6G13G 9G11
  22561132.328    22561136.388    47553463.987 8 -40772584.732 8
  20708087.065    20708093.048    -2164870.729 9  -4005207.025 9
  20179917.386    20179920.295    23290184.770 8 -59316392.205 8
  22818165.443    22818170.295    46930033.471 7 -36605433.410 8
 86  6 19  1 47 59.0800000  0  4G 6G13G 9G11
  22565105.044    22565108.857    47574339.408 8 -40756318.184 8
  20707684.666    20707687.980    -2166994.951 9  -4006862.265 8
  20181059.107    20181063.921    23296188.868 7 -59311713.693 7
  22821165.684    22821169.916    46945794.795 8 -36593151.855 7
 86  6 19  1 48  5.0800000  0  4G 6G13G 9G11
  22569079.458    22569083.833    47595228.922 8 -40740040.651 8
  20707282.848    20707287.491    -2169102.583 8  -4008504.565 8
  20182206.933    20182211.064    23302219.161 7 -59307014.754 7
  22824164.771    22824169.413    46961558.678 7 -36580868.310 7
 86  6 19  1 48 11.0800000  0  4G 6G13G 9G11
  22573057.426    22573061.779    47616132.506 9 -40723752.159 8
  20706885.785    20706887.812    -2171193.626 9  -4010133.960 8
  20183360.257    20183363.922    23308275.612 7 -59302295.440 7
  22827164.334    22827170.581    46977325.078 8 -36568582.818 8
 86  6 19  1 48 17.0800000  0  4G 6G13G 9G11
  22577037.567    22577042.015    47637050.163 9 -40707452.692 8
  20706490.356    20706493.249    -2173268.079 9  -4011750.411 8
  20184517.522    20184520.614    23314358.290 7 -59297555.703 7
  22830165.801    22830170.869    46993094.037 9 -36556295.329 8
 86  6 19  1 48 23.0800000  0  4G 6G13G 9G11
  22581020.577    22581026.283    47657981.871 8 -40691142.281 9
  20706098.644    20706102.955    -2175326.001 8  -4013353.979 7
  20185678.772    20185683.191    23320467.123 7 -59292795.572 7
  22833165.557    22833171.559    47008865.497 8 -36544005.880 8
 86  6 19  1 48 29.0800000  0  4G 6G13G 9G11
  22585006.995    22585011.112    47678927.597 8 -40674820.947 8
  20705710.768    20705715.052    -2177367.284 8  -4014944.596 8
  20186846.810    20186851.685    23326602.124 7 -59288015.057 7
  22836168.782    22836173.819    47024639.493 7 -36531714.447 7
 86  6 19  1 48 35.0800000  0  4G 6G13G 9G11
  22588994.710    22589000.592    47699887.347 8 -40658488.681 8
  20705324.738    20705329.452    -2179392.078 9  -4016522.358 8
  20188021.404    20188022.259    23332763.356 7 -59283214.102 8
  22839170.175    22839175.987    47040416.006 8 -36519421.068 8
 86  6 19  1 48 41.0800000  0  4G 6G13G 9G11
  22592987.430    22592992.142    47720861.056 8 -40642145.548 8
  20704943.123    20704947.098    -2181400.415 9  -4018087.293 7
  20189196.475    20189201.545    23338950.746 8 -59278392.760 6
  22842172.417    22842177.523    47056194.971 7 -36507125.780 7
 86  6 19  1 48 47.0800000  0  4G 6G13G 9G11
  22596980.484    22596984.443    47741848.716 8 -40625791.547 8
  20704563.476    20704568.111    -2183392.290 8  -4019639.400 8
  20190379.273    20190382.852    23345164.203 7 -59273551.097 7
  22845177.026    22845181.328    47071976.360 8 -36494828.602 9
 86  6 19  1 48 53.0800000  0  4G 6G13G 9G11
  22600977.104    22600982.624    47762850.271 9 -40609426.696 7
  20704186.712    20704192.224    -2185367.580 7  -4021178.583 8
  20191566.999    20191570.311    23351403.855 7 -59268689.043 7
  22848178.994    22848185.290    47087760.186 7 -36482529.517 7
 86  6 19  1 48 59.0800000  0  4G 6G13G 9G11
  22604976.039    22604980.181    47783865.697 9 -40593051.053 8
  20703814.730    20703818.452    -2187326.438 8  -4022704.971 7
  20192760.333    20192762.130    23357669.666 7 -59263806.582 8
  22851183.749    22851188.868    47103546.407 8 -36470228.580 8
 86  6 19  1 49  5.0800000  0  4G 6G13G 9G11
  22608976.982    22608983.057    47804894.964 8 -40576664.622 8
  20703445.038    20703450.162    -2189268.815 8  -4024218.502 8
  20193955.894    20193960.215    23363961.613 8 -59258903.774 7
  22854188.131    22854192.165    47119334.983 7 -36457925.781 8
 86  6 19  1 49 11.0800000  0  4G 6G13G 9G11
  22612981.782    22612986.785    47825938.072 9 -40560267.407 8
  20703078.515    20703083.221    -2191194.783 7  -4025719.262 7
  20195160.356    20195161.728    23370279.639 8 -59253980.648 7
  22857193.496    22857199.740    47135125.948 7 -36445621.151 8
 86  6 19  1 49 17.0800000  0  4G 6G13G 9G11
  22616989.169    22616993.224    47846995.008 8 -40543859.411 7
  20702713.932    20702719.264    -2193104.349 9  -4027207.228 8
  20196365.686    20196369.853    23376623.802 8 -59249037.146 7
  22860197.740    22860204.629    47150919.268 8 -36433314.673 8
 86  6 19  1 49 23.0800000  0  4G 6G13G 9G11
  22620998.852    22621003.001    47868065.761 8 -40527440.644 8
  20702354.269    20702359.363    -2194997.494 8  -4028682.394 7
  20197579.019    20197580.897    23382994.007 7 -59244073.330 8
  22863204.765    22863208.093    47166714.930 8 -36421006.375 7
 86  6 19  1 49 29.0800000  0  4G 6G13G 9G11
  22625010.681    22625015.672    47889150.259 8 -40511011.186 8
  20701997.219    20702002.066    -2196874.163 8  -4030144.738 8
  20198796.465    20198798.955    23389390.386 7 -59239089.174 8
  22866210.118    22866215.990    47182512.876 8 -36408696.287 8
 86  6 19  1 49 35.0800000  0  4G 6G13G 9G11
  22629025.689    22629030.429    47910248.542 8 -40494570.973 7
  20701643.553    20701647.515    -2198734.461 8  -4031594.311 8
  20200016.088    20200021.594    23395812.878 7 -59234084.639 7
  22869217.218    22869221.942    47198313.205 8 -36396384.343 7
 86  6 19  1 49 41.0800000  0  4G 6G13G 9G11
  22633043.685    22633048.704    47931360.628 8 -40478120.013 8
  20701293.178    20701297.104    -2200578.300 9  -4033031.075 8
  20201245.118    20201247.895    23402261.546 8 -59229059.703 7
  22872223.625    22872228.942    47214115.933 6 -36384070.544 8
 86  6 19  1 49 47.0800000  0  4G 6G13G 9G11
  22637064.050    22637069.247    47952486.572 8 -40461658.257 8
  20700946.064    20700949.452    -2202405.624 8  -4034454.958 8
  20202476.764    20202479.717    23408736.461 7 -59224014.313 7
  22875231.032    22875236.652    47229921.079 7 -36371754.850 8
 86  6 19  1 49 53.0800000  0  4G 6G13G 9G11
  22641085.981    22641091.087    47973626.243 8 -40445185.773 8
  20700600.469    20700605.390    -2204216.497 8  -4035866.021 8
  20203713.155    20203715.891    23415237.537 8 -59218948.547 7
  22878240.280    22878245.682    47245728.580 7 -36359437.328 7
 86  6 19  1 49 59.0800000  0  4G 6G13G 9G11
  22645111.636    22645116.362    47994779.685 9 -40428702.592 8
  20700259.297    20700264.086    -2206010.917 8  -4037264.270 9
  20204955.931    20204960.625    23421764.672 7 -59213862.458 8
  22881248.863    22881253.652    47261538.383 8 -36347118.010 9
 86  6 19  1 50  5.0800000  0  4G 6G13G 9G11
  22649141.040    22649144.220    48015946.789 7 -40412208.750 8
  20699920.983    20699925.131    -2207788.882 9  -4038649.705 9
  20206202.421    20206206.783    23428318.011 8 -59208755.972 7
  22884257.931    22884263.507    47277350.433 8 -36334796.927 8
 86  6 19  1 50 11.0800000  0  4G 6G13G 9G11
  22653170.677    22653174.602    48037127.598 8 -40395704.236 8
  20699585.266    20699589.840    -2209550.502 9  -4040022.387 9
  20207453.772    20207459.322    23434897.510 8 -59203629.097 7
  22887266.503    22887272.096    47293164.827 8 -36322474.039 8
 86  6 19  1 50 17.0800000  0  4G 6G13G 9G11
  22657204.028    22657209.216    48058322.051 8 -40379189.081 8
  20699253.938    20699258.558    -2211295.708 8  -4041382.282 8
  20208711.220    20208716.196    23441503.138 7 -59198481.857 6
  22890276.440    22890282.163    47308981.438 8 -36310149.418 8
 86  6 19  1 50 23.0800000  0  4G 6G13G 9G11
  22661240.194    22661244.403    48079530.163 8 -40362663.291 7
  20698924.684    20698929.513    -2213024.504 8  -4042729.402 8
  20209973.227    20209978.888    23448134.921 7 -59193314.245 8
  22893288.067    22893292.454    47324800.315 7 -36297823.026 8
 86  6 19  1 50 29.0800000  0  4G 6G13G 9G11
  22665277.457    22665282.616    48100751.918 7 -40346126.880 9
  20698599.379    20698603.183    -2214736.896 8  -4044063.739 8
  20211242.083    20211245.772    23454792.834 7 -59188126.253 8
  22896296.906    22896302.804    47340621.451 8 -36285494.883 9
 86  6 19  1 50 35.0800000  0  4G 6G13G 9G11
  22669318.243    22669324.078    48121987.231 8 -40329579.895 8
  20698275.655    20698280.726    -2216432.960 9  -4045385.337 7
  20212512.578    20212516.921    23461476.827 7 -59182917.959 7
  22899309.100    22899314.792    47356444.780 8 -36273165.008 8
 86  6 19  1 50 41.0800000  0  4G 6G13G 9G11
  22673361.349    22673365.744    48143236.116 8 -40313022.343 8
  20697956.839    20697960.470    -2218112.704 8  -4046694.222 7
  20213789.520    20213792.500    23468186.994 7 -59177689.261 8
  22902320.607    22902327.049    47372270.291 7 -36260833.461 8
 86  6 19  1 50 47.0800000  0  4G 6G13G 9G11
  22677407.572    22677413.580    48164498.496 8 -40296454.263 8
  20697639.833    20697643.891    -2219776.111 8  -4047990.399 8
  20215070.460    20215075.164    23474923.181 8 -59172440.286 8
  22905332.103    22905337.830    47388097.966 8 -36248500.201 8
 86  6 19  1 50 53.0800000  0  4G 6G13G 9G11
  22681456.940    22681462.791    48185774.419 7 -40279875.633 8
  20697327.174    20697331.180    -2221423.295 9  -4049273.909 8
  20216358.002    20216362.054    23481685.424 8 -59167171.018 7
  22908344.315    22908348.977    47403927.835 9 -36236165.252 8
 86  6 19  1 50 59.0800000  0  4G 6G13G 9G11
  22685506.904    22685513.134    48207063.800 8 -40263286.522 8
  20697015.773    20697020.432    -2223054.206 8  -4050544.742 9
  20217649.867    20217653.669    23488473.775 8 -59161881.406 8
  22911357.509    22911363.625    47419759.832 9 -36223828.635 8
 86  6 19  1 51  5.0800000  0  4G 6G13G 9G11
  22689560.983    22689565.659    48228366.682 8 -40246686.892 8
  20696708.767    20696713.162    -2224668.888 8  -4051802.939 8
  20218947.428    20218950.819    23495288.152 7 -59156571.499 8
  22914371.134    22914376.808    47435594.009 8 -36211490.313 8
 86  6 19  1 51 11.0800000  0  4G 6G13G 9G11
  22693618.262    22693623.689    48249683.033 8 -40230076.758 8
  20696405.360    20696409.258    -2226267.372 8  -4053048.521 7
  20220249.797    20220253.479    23502128.569 9 -59151241.297 8
  22917383.304    22917389.591    47451430.346 8 -36199150.328 8
 86  6 19  1 51 17.0800000  0  4G 6G13G 9G11
  22697677.678    22697681.032    48271012.768 8 -40213456.190 8
  20696104.138    20696108.202    -2227849.579 8  -4054281.406 8
  20221555.303    20221560.731    23508995.159 7 -59145890.721 8
  22920398.749    22920403.052    47467268.787 9 -36186808.691 7
 86  6 19  1 51 23.0800000  0  4G 6G13G 9G11
  22701738.883    22701743.234    48292355.907 9 -40196825.184 8
  20695806.144    20695809.506    -2229415.555 9  -4055501.641 8
  20222866.717    20222871.064    23515887.772 8 -59140519.857 7
  22923413.456    22923418.227    47483109.243 8 -36174465.474 8
 86  6 19  1 51 29.0800000  0  4G 6G13G 9G11
  22705803.085    22705806.527    48313712.450 9 -40180183.727 7
  20695510.361    20695514.916    -2230965.290 8  -4056709.214 7
  20224183.887    20224187.930    23522806.398 7 -59135128.721 8
  22926428.122    22926432.089    47498951.773 8 -36162120.665 8
 86  6 19  1 51 35.0800000  0  4G 6G13G 9G11
  22709869.357    22709873.038    48335082.340 9 -40163531.875 8
  20695218.887    20695223.022    -2232498.797 9  -4057904.167 8
  20225505.128    20225508.570    23529751.145 7 -59129717.223 7
  22929443.470    22929447.749    47514796.378 8 -36149774.213 8
 86  6 19  1 51 41.0800000  0  4G 6G13G 9G11
  22713938.647    22713942.796    48356465.567 8 -40146869.628 9
  20694929.281    20694933.809    -2234016.081 8  -4059086.465 8
  20226830.891    20226834.945    23536721.898 8 -59124285.471 7
  22932457.690    22932463.383    47530643.060 8 -36137426.152 8
 86  6 19  1 51 47.0800000  0  4G 6G13G 9G11
  22718010.335    22718014.189    48377862.051 8 -40130197.043 7
  20694643.825    20694648.909    -2235517.229 8  -4060256.197 8
  20228163.747    20228166.905    23543718.732 8 -59118833.399 7
  22935474.256    22935478.924    47546491.777 8 -36125076.506 7
 86  6 19  1 51 53.0800000  0  4G 6G13G 9G11
  22722084.591    22722088.343    48399271.882 8 -40113514.063 9
  20694361.206    20694365.564    -2237002.141 9  -4061413.269 7
  20229497.946    20229503.267    23550741.539 8 -59113361.096 7
  22938489.541    22938494.382    47562342.505 8 -36112725.294 8
 86  6 19  1 51 59.0800000  0  4G 6G13G 9G11
  22726161.158    22726163.632    48420694.936 7 -40096820.785 8
  20694081.948    20694086.685    -2238470.844 9  -4062557.723 7
  20230841.764    20230844.381    23557790.292 7 -59107868.548 7
  22941508.008    22941513.352    47578195.194 8 -36100372.552 7
 86  6 19  1 52  5.0800000  0  4G 6G13G 9G11
  22730239.408    22730244.765    48442131.165 8 -40080117.240 8
  20693804.988    20693811.125    -2239923.519 9  -4063689.665 8
  20232186.981    20232190.828    23564865.069 8 -59102355.744 8
  22944523.939    22944528.942    47594049.825 9 -36088018.304 8
 86  6 19  1 52 11.0800000  0  4G 6G13G 9G11
  22734321.980    22734326.652    48463580.621 9 -40063403.408 7
  20693532.488    20693536.798    -2241360.072 8  -4064809.062 8
  20233537.858    20233542.766    23571965.788 8 -59096822.729 8
  22947541.655    22947546.645    47609906.392 8 -36075662.548 7
 86  6 19  1 52 17.0800000  0  4G 6G13G 9G11
  22738406.833    22738411.177    48485043.271 7 -40046679.293 9
  20693262.026    20693267.209    -2242780.508 8  -4065915.894 7
  20234894.201    20234898.190    23579092.481 7 -59091269.454 7
  22950559.403    22950564.564    47625764.896 8 -36063305.276 8
 86  6 19  1 52 23.0800000  0  4G 6G13G 9G11
  22742492.412    22742497.190    48506519.052 7 -40029944.919 8
  20692995.579    20693000.131    -2244184.842 8  -4067010.177 7
  20236256.077    20236258.996    23586245.245 7 -59085695.880 7
  22953577.514    22953583.222    47641625.330 8 -36050946.482 8
 86  6 19  1 52 29.0800000  0  4G 6G13G 9G11
  22746580.693    22746587.127    48528008.085 8 -40013200.234 8
  20692730.307    20692734.932    -2245573.015 9  -4068091.850 9
  20237623.088    20237624.662    23593424.066 7 -59080101.987 7
  22956595.947    22956601.678    47657487.736 8 -36038586.188 8
 86  6 19  1 52 35.0800000  0  4G 6G13G 9G11
  22750673.559    22750678.812    48549510.316 7 -39996445.275 8
  20692469.593    20692473.299    -2246944.933 8  -4069160.884 8
  20238993.565    20238996.285    23600628.954 7 -59074487.782 7
  22959615.734    22959620.346    47673352.124 8 -36026224.327 8
 86  6 19  1 52 41.0800000  0  4G 6G13G 9G11
  22754767.896    22754773.156    48571025.766 9 -39979679.999 8
  20692211.746    20692217.001    -2248300.673 8  -4070217.307 8
  20240368.574    20240372.407    23607859.872 7 -59068853.318 7
  22962634.401    22962638.616    47689218.545 9 -36013860.883 8
 86  6 19  1 52 47.0800000  0  4G 6G13G 9G11
  22758864.216    22758869.165    48592554.349 8 -39962904.473 8
  20691957.672    20691961.717    -2249640.261 9  -4071261.131 8
  20241751.261    20241753.572    23615116.840 8 -59063198.536 8
  22965654.427    22965659.505    47705086.935 8 -36001495.911 9
 86  6 19  1 52 53.0800000  0  4G 6G13G 9G11
  22762963.869    22762968.556    48614096.017 8 -39946118.765 8
  20691705.883    20691709.648    -2250963.810 8  -4072292.470 8
  20243135.816    20243139.182    23622399.807 8 -59057523.495 7
  22968675.130    22968679.114    47720957.222 7 -35989129.466 7
 86  6 19  1 52 59.0800000  0  4G 6G13G 9G11
  22767066.802    22767071.111    48635650.705 8 -39929322.914 8
  20691456.159    20691461.065    -2252271.378 8  -4073311.363 9
  20244526.502    20244530.148    23629708.710 7 -59051828.264 7
  22971694.182    22971699.901    47736829.302 8 -35976761.606 8
 86  6 19  1 53  5.0800000  0  4G 6G13G 9G11
  22771171.088    22771174.466    48657218.416 8 -39912516.918 8
  20691210.205    20691214.802    -2253562.922 9  -4074317.752 8
  20245922.220    20245924.806    23637043.603 7 -59046112.759 8
  22974715.335    22974719.704    47752703.213 8 -35964392.327 9
 86  6 19  1 53 11.0800000  0  4G 6G13G 9G11
  22775276.453    22775281.891    48678799.097 9 -39895700.811 7
  20690968.253    20690972.152    -2254838.481 8  -4075311.695 8
  20247322.667    20247326.276    23644404.441 7 -59040377.045 8
  22977736.605    22977740.899    47768578.868 8 -35952021.694 8
 86  6 19  1 53 17.0800000  0  4G 6G13G 9G11
  22779385.396    22779390.815    48700392.686 8 -39878874.648 8
  20690727.054    20690732.949    -2256098.099 8  -4076293.204 8
  20248727.598    20248731.967    23651791.059 6 -59034621.241 8
  22980757.206    22980761.873    47784456.275 8 -35939649.688 9
 86  6 19  1 53 23.0800000  0  4G 6G13G 9G11
  22783497.265    22783501.617    48721999.171 8 -39862038.435 8
  20690491.148    20690494.931    -2257341.763 8  -4077262.289 9
  20250138.318    20250142.651    23659203.586 8 -59028845.259 7
  22983779.066    22983784.703    47800335.424 9 -35927276.336 8
 86  6 19  1 53 29.0800000  0  4G 6G13G 9G11
  22787611.760    22787615.785    48743618.558 8 -39845192.175 9
  20690258.235    20690262.974    -2258569.503 8  -4078218.985 8
  20251554.506    20251557.465    23666641.966 7 -59023049.129 7
  22986801.169    22986806.580    47816216.343 9 -35914901.593 8
 86  6 19  1 53 35.0800000  0  4G 6G13G 9G11
  22791728.216    22791732.988    48765250.847 8 -39828335.861 8
  20690026.627    20690032.703    -2259781.357 8  -4079163.262 8
  20252974.379    20252979.021    23674106.370 7 -59017232.716 8
  22989823.202    22989828.417    47832099.014 8 -35902525.495 8
 86  6 19  1 53 41.0800000  0  4G 6G13G 9G11
  22795846.317    22795852.024    48786896.055 9 -39811469.488 8
  20689799.556    20689804.621    -2260977.235 9  -4080095.127 8
  20254400.835    20254403.821    23681596.633 7 -59011396.152 7
  22992846.648    22992850.336    47847983.406 8 -35890148.047 9
 86  6 19  1 53 47.0800000  0  4G 6G13G 9G11
  22799968.175    22799973.054    48808554.106 9 -39794593.076 8
  20689574.849    20689578.987    -2262157.071 8  -4081014.469 8
  20255828.869    20255834.250    23689112.777 7 -59005539.413 7
  22995869.901    22995873.868    47863869.599 8 -35877769.196 9
 86  6 19  1 53 53.0800000  0  4G 6G13G 9G11
  22804091.762    22804096.624    48830225.001 8 -39777706.686 9
  20689353.511    20689358.034    -2263321.008 8  -4081921.446 8
  20257263.766    20257269.461    23696654.802 7 -58999662.510 7
  22998892.384    22998897.984    47879757.518 8 -35865389.012 8
 86  6 19  1 53 59.0800000  0  4G 6G13G 9G11
  22808219.513    22808223.161    48851908.668 8 -39760810.332 8
  20689134.470    20689138.641    -2264468.997 8  -4082815.979 8
  20258705.108    20258708.992    23704222.756 7 -58993765.430 7
  23001916.369    23001921.261    47895647.154 8 -35853007.489 8
 86  6 19  1 54  5.0800000  0  4G 6G13G 9G11
  22812347.670    22812351.795    48873605.104 8 -39743904.023 9
  20688918.871    20688923.506    -2265601.118 9  -4083698.143 8
  20260150.515    20260155.633    23711816.566 8 -58987848.165 6
  23004941.103    23004944.885    47911538.453 8 -35840624.660 8
 86  6 19  1 54 11.0800000  0  4G 6G13G 9G11
  22816478.487    22816482.583    48895314.390 9 -39726987.706 8
  20688706.346    20688711.218    -2266717.310 8  -4084567.899 7
  20261599.817    20261604.095    23719436.276 7 -58981910.756 7
  23007964.997    23007969.847    47927431.437 8 -35828240.523 8
 86  6 19  1 54 17.0800000  0  4G 6G13G 9G11
  22820611.992    22820615.598    48917036.441 8 -39710061.434 8
  20688497.073    20688501.037    -2267817.635 9  -4085425.295 8
  20263055.501    20263059.034    23727081.921 7 -58975953.107 7
  23010989.416    23010994.861    47943326.104 7 -35815855.070 8
 86  6 19  1 54 23.0800000  0  4G 6G13G 9G11
  22824748.063    22824751.964    48938771.264 8 -39693125.232 8
  20688291.405    20688295.195    -2268902.066 9  -4086270.313 8
  20264514.467    20264520.519    23734753.434 7 -58969975.296 7
  23014013.431    23014018.400    47959222.488 8 -35803468.280 9
 86  6 19  1 54 29.0800000  0  4G 6G13G 9G11
  22828885.880    22828891.749    48960518.841 8 -39676179.062 8
  20688087.094    20688092.619    -2269970.574 8  -4087102.912 8
  20265980.568    20265984.981    23742450.981 8 -58963977.230 7
  23017040.128    23017044.481    47975120.626 8 -35791080.133 8
 86  6 19  1 54 35.0800000  0  4G 6G13G 9G11
  22833026.916    22833031.297    48982279.260 7 -39659222.919 8
  20687887.012    20687891.298    -2271023.090 8  -4087923.040 9
  20267449.737    20267453.563    23750174.436 7 -58957958.953 7
  23020065.045    23020070.644    47991020.479 8 -35778690.644 8
 86  6 19  1 54 41.0800000  0  4G 6G13G 9G11
  22837170.122    22837175.424    49004052.497 8 -39642256.772 8
  20687690.505    20687694.596    -2272059.652 8  -4088730.748 7
  20268924.934    20268928.445    23757923.903 7 -58951920.393 7
  23023090.665    23023096.611    48006922.048 8 -35766299.814 8
 86  6 19  1 54 47.0800000  0  4G 6G13G 9G11
  22841315.908    22841321.712    49025838.444 8 -39625280.720 8
  20687496.923    20687500.544    -2273080.359 8  -4089526.110 8
  20270404.093    20270407.383    23765699.338 8 -58945861.624 7
  23026117.397    23026122.721    48022825.304 8 -35753907.677 8
 86  6 19  1 54 53.0800000  0  4G 6G13G 9G11
  22845464.116    22845469.385    49047637.037 8 -39608294.811 8
  20687304.443    20687309.162    -2274085.205 8  -4090309.104 8
  20271889.271    20271892.101    23773500.684 8 -58939782.653 7
  23029144.987    23029149.617    48038730.169 8 -35741514.283 8
 86  6 19  1 54 59.0800000  0  4G 6G13G 9G11
  22849614.161    22849619.876    49069448.271 8 -39591299.062 8
  20687115.827    20687121.147    -2275074.198 8  -4091079.750 9
  20273378.903    20273381.963    23781327.911 7 -58933683.540 7
  23032171.039    23032176.619    48054636.679 9 -35729119.605 8
 86  6 19  1 55  5.0800000  0  4G 6G13G 9G11
  22853767.473    22853773.434    49091272.168 8 -39574293.452 7
  20686931.676    20686936.178    -2276047.319 8  -4091838.032 8
  20274874.332    20274876.568    23789180.919 8 -58927564.297 7
  23035198.452    23035203.189    48070544.804 8 -35716723.671 8
 86  6 19  1 55 11.0800000  0  4G 6G13G 9G11
  22857923.470    22857929.021    49113108.637 8 -39557278.033 8
  20686749.460    20686752.482    -2277004.574 8  -4092583.936 8
  20276372.425    20276376.237    23797059.853 8 -58921424.880 8
  23038225.642    23038230.812    48086454.513 8 -35704326.499 8
 86  6 19  1 55 17.0800000  0  4G 6G13G 9G11
  22862080.721    22862085.825    49134957.669 8 -39540252.826 8
  20686570.882    20686575.102    -2277946.014 7  -4093317.529 8
  20277876.219    20277880.202    23804964.630 7 -58915265.308 7
  23041254.067    23041259.419    48102365.800 8 -35691928.102 8
 86  6 19  1 55 23.0800000  0  4G 6G13G 9G11
  22866240.831    22866246.119    49156819.256 8 -39523217.822 8
  20686395.237    20686399.070    -2278871.745 9  -4094038.877 8
  20279385.451    20279389.164    23812895.208 8 -58909085.656 7
  23044282.505    23044287.481    48118278.639 9 -35679528.490 9
 86  6 19  1 55 29.0800000  0  4G 6G13G 9G11
  22870402.824    22870409.238    49178693.299 7 -39506173.140 9
  20686220.912    20686226.162    -2279781.740 8  -4094747.950 8
  20280900.076    20280902.479    23820851.550 7 -58902885.894 7
  23047309.596    23047314.879    48134192.968 8 -35667127.736 9
 86  6 19  1 55 35.0800000  0  4G 6G13G 9G11
  22874568.199    22874574.150    49200579.759 9 -39489118.761 7
  20686050.759    20686056.100    -2280676.004 8  -4095444.786 9
  20282418.120    20282422.053    23828833.606 8 -58896666.103 7
  23050339.260    23050344.219    48150108.741 9 -35654725.829 8
 86  6 19  1 55 41.0800000  0  4G 6G13G 9G11
  22878735.322    22878740.607    49222478.630 8 -39472054.706 8
  20685884.465    20685888.200    -2281554.694 9  -4096129.480 8
  20283941.657    20283946.375    23836841.482 8 -58890426.219 7
  23053368.825    23053372.326    48166026.029 8 -35642322.747 9
 86  6 19  1 55 47.0800000  0  4G 6G13G 9G11
  22882904.727    22882910.123    49244389.950 8 -39454980.961 8
  20685719.521    20685724.300    -2282417.678 9  -4096801.937 9
  20285469.720    20285474.976    23844875.105 7 -58884166.250 7
  23056397.256    23056402.026    48181944.797 8 -35629918.524 8
 86  6 19  1 55 53.0800000  0  4G 6G13G 9G11
  22887076.944    22887082.642    49266313.653 8 -39437897.584 8
  20685557.959    20685563.118    -2283265.064 8  -4097462.237 7
  20287004.585    20287007.669    23852934.525 7 -58877886.189 6
  23059427.790    23059431.498    48197864.939 8 -35617513.230 7
 86  6 19  1 55 59.0800000  0  4G 6G13G 9G11
  22891250.532    22891255.952    49288249.730 9 -39420804.528 8
  20685399.762    20685405.396    -2284096.780 8  -4098110.321 9
  20288543.434    20288547.113    23861019.718 7 -58871586.040 7
  23062457.119    23062462.341    48213786.532 8 -35605106.797 9
 86  6 19  1 56  5.0800000  0  3G13G 9G11
  20685243.899    20685250.163    -2284912.792 9  -4098746.178 8
  20290085.767    20290090.151    23869130.631 7 -58865265.848 7
  23065485.821    23065491.753    48229709.518 8 -35592699.285 8
 86  6 19  1 56 11.0800000  0  3G13G 9G11
  20685092.694    20685097.860    -2285713.035 8  -4099369.735 8
  20291634.996    20291639.207    23877267.308 7 -58858925.585 7
  23068516.576    23068522.028    48245633.969 8 -35580290.616 8
 86  6 19  1 56 17.0800000  0  3G13G 9G11
  20684942.836    20684947.890    -2286497.596 9  -4099981.083 9
  20293188.515    20293191.792    23885429.744 7 -58852565.247 8
  23071548.132    23071552.761    48261559.840 8 -35567880.861 7
 86  6 19  1 56 23.0800000  0  3G13G 9G11
  20684796.010    20684801.848    -2287266.407 8  -4100580.161 9
  20294746.209    20294749.431    23893618.057 7 -58846184.759 7
  23074577.740    23074583.045    48277487.160 8 -35555469.965 8
 86  6 19  1 56 29.0800000  0  4G12G13G 9G11
                  22156641.474   -20325046.115 9
  20684653.749    20684657.965    -2288019.521 9  -4101167.005 9
  20296309.563    20296312.802    23901832.141 7 -58839784.170 8
  23077609.135    23077613.891    48293415.927 7 -35543057.940 8
 86  6 19  1 56 35.0800000  0  4G12G13G 9G11
                  22153588.394   -20341096.986 9
  20684511.934    20684518.218    -2288757.030 9  -4101741.684 8
  20297877.871    20297880.308    23910072.077 7 -58833363.450 8
  23080639.755    23080645.569    48309346.107 7 -35530644.820 9
 86  6 19  1 56 41.0800000  0  4G12G13G 9G11
                  22150565.518   -20357133.442 9
  20684375.953    20684380.826    -2289478.883 9  -4102304.160 9
  20299451.158    20299454.059    23918337.822 8 -58826922.613 7
  23083672.458    23083677.666    48325277.709 9 -35518230.590 8
 86  6 19  1 56 47.0800000  0  4G12G13G 9G11
  22147515.885    22147520.803   -20373154.937 8  25968623.936 8
  20684240.626    20684245.653    -2290185.044 8  -4102854.416 8
  20301028.035    20301031.388    23926629.271 8 -58820461.750 8
  23086704.454    23086708.923    48341210.701 7 -35505815.284 8
 86  6 19  1 56 53.0800000  0  4G12G13G 9G11
  22144471.681    22144476.109   -20389161.644 9  25956151.186 8
  20684109.573    20684113.909    -2290875.673 9  -4103392.560 9
  20302611.124    20302615.824    23934946.426 7 -58813980.846 7
  23089736.404    23089740.819    48357145.030 8 -35493398.920 8
 86  6 19  1 56 59.0800000  0  4G12G13G 9G11
  22141428.195    22141432.694   -20405153.678 8  25943690.358 8
  20683981.258    20683985.661    -2291550.750 8  -4103918.601 8
  20304197.517    20304201.750    23943289.310 7 -58807479.901 7
  23092770.248    23092774.092    48373080.692 7 -35480981.527 8
 86  6 19  1 57  5.0800000  0  4G12G13G 9G11
  22138388.226    22138392.457   -20421131.026 8  25931240.476 7
  20683856.880    20683860.543    -2292210.316 8  -4104432.539 8
  20305789.559    20305794.644    23951657.825 7 -58800958.990 7
  23095801.660    23095805.856    48389017.632 7 -35468563.135 9
 86  6 19  1 57 11.0800000  0  4G12G13G 9G11
  22135350.303    22135355.032   -20437093.657 9  25918802.054 8
  20683734.195    20683738.293    -2292854.351 8  -4104934.404 8
  20307388.550    20307391.729    23960052.018 7 -58794418.061 7
  23098834.408    23098840.097    48404955.813 8 -35456143.787 8
 86  6 19  1 57 17.0800000  0  4G12G13G 9G11
  22132314.967    22132320.594   -20453041.572 9  25906375.116 8
  20683613.801    20683617.143    -2293482.933 9  -4105424.193 8
  20308989.572    20308993.614    23968471.843 7 -58787857.167 7
  23101867.251    23101872.334    48420895.222 7 -35443723.473 8
 86  6 19  1 57 23.0800000  0  4G12G13G 9G11
  22129283.881    22129289.259   -20468974.704 8  25893959.692 8
  20683496.705    20683501.614    -2294095.967 9  -4105901.885 8
  20310595.392    20310602.061    23976917.288 7 -58781276.310 6
  23104899.803    23104905.953    48436835.943 7 -35431302.140 9
 86  6 19  1 57 29.0800000  0  4G12G13G 9G11
  22126253.617    22126258.764   -20484892.990 9  25881555.822 9
  20683383.904    20683389.063    -2294693.529 9  -4106367.513 8
  20312210.339    20312212.744    23985388.426 7 -58774675.438 7
  23107935.817    23107940.101    48452777.874 7 -35418879.873 9
 86  6 19  1 57 35.0800000  0  4G12G13G 9G11
  22123228.753    22123232.614   -20500796.516 9  25869163.480 9
  20683272.464    20683276.566    -2295275.621 8  -4106821.092 8
  20313825.185    20313830.636    23993885.124 7 -58768054.636 6
  23110969.547    23110973.603    48468720.960 7 -35406456.691 8
 86  6 19  1 57 41.0800000  0  4G12G13G 9G11
  22120204.260    22120208.686   -20516685.201 9  25856782.687 9
  20683164.566    20683169.712    -2295842.219 8  -4107262.601 8
  20315447.847    20315452.519    24002407.412 7 -58761413.893 7
  23114002.759    23114007.908    48484665.251 8 -35394032.576 8
 86  6 19  1 57 47.0800000  0  4G12G13G 9G11
  22117184.699    22117187.603   -20532559.097 9  25844413.417 8
  20683060.409    20683064.105    -2296393.422 8  -4107692.102 7
  20317073.674    20317078.731    24010955.368 8 -58754753.152 7
  23117036.483    23117041.595    48500610.629 8 -35381607.616 8
 86  6 19  1 57 53.0800000  0  4G12G13G 9G11
  22114166.443    22114170.865   -20548418.106 8  25832055.743 8
  20682958.491    20682962.220    -2296929.220 8  -4108109.596 8
  20318706.872    20318708.997    24019528.943 8 -58748072.434 6
  23120071.302    23120077.389    48516557.114 8 -35369181.787 8
 86  6 19  1 57 59.0800000  0  4G12G13G 9G11
  22111150.369    22111155.762   -20564262.254 9  25819709.658 8
  20682859.116    20682863.549    -2297449.638 8  -4108515.120 8
  20320341.179    20320347.451    24028127.974 7 -58741371.908 7
  23123105.591    23123111.338    48532504.751 8 -35356755.075 8
 86  6 19  1 58  5.0800000  0  4G12G13G 9G11
  22108139.429    22108143.485   -20580091.501 9  25807375.176 9
  20682762.230    20682767.509    -2297954.693 8  -4108908.677 8
  20321982.758    20321988.084    24036752.545 7 -58734651.459 7
  23126140.746    23126146.436    48548453.596 7 -35344327.406 8
 86  6 19  1 58 11.0800000  0  4G12G13G 9G11
  22105129.989    22105134.623   -20595905.723 9  25795052.404 8
  20682670.826    20682674.701    -2298444.335 8  -4109290.210 8
  20323630.045    20323633.902    24045402.808 7 -58727911.008 6
  23129177.534    23129182.416    48564403.589 7 -35331898.857 7
 86  6 19  1 58 17.0800000  0  4G12G13G 9G11
  22102122.408    22102127.518   -20611704.926 9  25782741.350 8
  20682579.442    20682584.725    -2298918.544 8  -4109659.716 8
  20325281.619    20325284.981    24054078.691 7 -58721150.583 7
  23132210.131    23132217.511    48580354.708 8 -35319469.408 8
 86  6 19  1 58 23.0800000  0  4G12G13G 9G11
  22099120.402    22099123.400   -20627489.126 9  25770441.969 8
  20682491.965    20682496.380    -2299377.361 9  -4110017.236 9
  20326936.993    20326941.838    24062780.136 8 -58714370.226 7
  23135246.648    23135252.982    48596307.009 7 -35307039.058 8
 86  6 19  1 58 29.0800000  0  4G12G13G 9G11
  22096118.684    22096123.390   -20643258.244 9  25758154.349 9
  20682407.130    20682411.784    -2299820.784 9  -4110362.757 8
  20328597.232    20328600.703    24071507.232 8 -58707569.906 6
  23138282.840    23138288.555    48612260.459 8 -35294607.806 8
 86  6 19  1 58 35.0800000  0  4G12G13G 9G11
  22093120.508    22093124.515   -20659012.193 9  25745878.535 8
  20682326.948    20682331.020    -2300248.765 9  -4110696.249 9
  20330264.928    20330267.024    24080259.964 9 -58700749.586 8
  23141317.634    23141323.595    48628215.108 8 -35282175.610 8
 86  6 19  1 58 41.0800000  0  4G12G13G 9G11
  22090126.339    22090130.271   -20674750.943 9  25733614.588 7
  20682248.384    20682251.818    -2300661.257 8  -4111017.672 8
  20331933.657    20331938.147    24089038.340 8 -58693909.287 6
  23144355.742    23144361.322    48644170.937 8 -35269742.504 7
 86  6 19  1 58 47.0800000  0  4G12G13G 9G11
  22087133.554    22087138.027   -20690474.402 9  25721362.542 8
  20682173.334    20682177.383    -2301058.267 9  -4111327.023 8
  20333609.366    20333612.803    24097842.410 7 -58687048.960 7
  23147390.895    23147397.427    48660128.002 8 -35257308.442 7
 86  6 19  1 58 53.0800000  0  4G12G13G 9G11
  22084144.351    22084149.504   -20706182.560 9  25709122.415 8
  20682098.551    20682103.719    -2301439.840 9  -4111624.349 9
  20335289.302    20335292.025    24106672.159 7 -58680168.656 7
  23150429.043    23150433.499    48676086.206 8 -35244873.490 8
 86  6 19  1 58 59.0800000  0  4G12G13G 9G11
  22081157.566    22081162.652   -20721875.419 9  25696894.222 9
  20682029.972    20682034.655    -2301806.046 9  -4111909.695 9
  20336974.721    20336978.100    24115527.557 8 -58673268.335 6
  23153466.743    23153471.154    48692045.540 7 -35232437.652 8
 86  6 19  1 59  5.0800000  0  4G12G13G 9G11
  22078174.901    22078177.944   -20737553.042 9  25684677.893 8
  20681962.948    20681967.613    -2302156.958 8  -4112183.131 8
  20338665.426    20338667.222    24124408.450 8 -58666348.158 7
  23156503.802    23156508.168    48708005.979 7 -35220000.952 7
 86  6 19  1 59 11.0800000  0  4G12G13G 9G11
  22075194.903    22075198.900   -20753215.453 9  25672473.411 7
  20681899.079    20681904.084    -2302492.520 9  -4112444.614 8
  20340360.346    20340362.729    24133314.933 8 -58659408.064 7
  23159540.181    23159545.638    48723967.505 8 -35207563.397 8
 86  6 19  1 59 17.0800000  0  4G12G13G 9G11
  22072216.858    22072221.271   -20768862.560 9  25660280.873 7
  20681838.054    20681842.751    -2302812.769 8  -4112694.159 7
  20342059.244    20342063.643    24142246.980 8 -58652448.013 7
  23162578.510    23162583.346    48739930.052 8 -35195125.050 8
 86  6 19  1 59 23.0800000  0  4G12G13G 9G11
  22069242.761    22069246.108   -20784494.367 9  25648100.247 8
  20681779.654    20681784.011    -2303117.721 8  -4112931.777 8
  20343763.740    20343767.335    24151204.511 8 -58645468.127 7
  23165614.516    23165621.487    48755893.642 8 -35182685.905 7
 86  6 19  1 59 29.0800000  0  4G12G13G 9G11
  22066271.601    22066275.318   -20800110.870 9  25635931.544 8
  20681724.853    20681731.135    -2303407.389 9  -4113157.484 8
  20345473.115    20345476.784    24160187.606 7 -58638468.319 6
  23168653.479    23168658.457    48771858.289 8 -35170245.935 7
 86  6 19  1 59 35.0800000  0  4G12G13G 9G11
  22063301.613    22063304.731   -20815712.029 9  25623774.796 7
  20681672.981    20681676.127    -2303681.822 8  -4113371.319 8
  20347187.986    20347189.897    24169196.117 8 -58631448.681 7
  23171691.777    23171697.173    48787823.925 7 -35157805.182 8
 86  6 19  1 59 41.0800000  0  4G12G13G 9G11
  22060335.969    22060339.786   -20831297.810 9  25611630.028 7
  20681624.276    20681627.760    -2303941.041 8  -4113573.315 7
  20348907.619    20348909.956    24178230.195 7 -58624409.159 6
  23174730.081    23174734.674    48803790.545 8 -35145363.664 8
 86  6 19  1 59 47.0800000  0  4G12G13G 9G11
  22057373.412    22057377.281   -20846868.245 9  25599497.234 8
  20681575.770    20681581.038    -2304184.982 8  -4113763.387 8
  20350631.194    20350634.015    24187289.831 7 -58617349.714 7
  23177769.903    23177773.910    48819758.132 7 -35132921.388 8
 86  6 19  1 59 53.0800000  0  4G12G13G 9G11
  22054413.539    22054417.777   -20862423.261 9  25587376.444 8
  20681533.294    20681536.798    -2304413.769 8  -4113941.663 7
  20352358.311    20352362.388    24196374.936 7 -58610270.406 7
  23180808.267    23180812.469    48835726.697 7 -35120478.354 8
 86  6 19  1 59 59.0800000  0  4G12G13G 9G11
  22051455.863    22051460.392   -20877962.758 9  25575267.739 8
  20681492.325    20681498.183    -2304627.355 8  -4114108.099 8
  20354092.159    20354095.096    24205485.445 7 -58603171.298 7
  23183847.112    23183851.900    48851696.205 8 -35108034.577 7
 86  6 19  2  0  5.0800000  0  4G12G13G 9G11
  22048502.115    22048505.274   -20893486.810 9  25563171.073 8
  20681455.030    20681459.821    -2304825.709 8  -4114262.659 8
  20355830.680    20355835.049    24214621.336 6 -58596052.451 7
  23186884.618    23186890.962    48867666.626 8 -35095590.111 7
 86  6 19  2  0 11.0800000  0  4G12G13G 9G11
  22045550.890    22045554.956   -20908995.405 9  25551086.465 8
  20681420.230    20681424.213    -2305008.836 8  -4114405.340 8
  20357574.465    20357578.119    24223782.765 7 -58588913.659 7
  23189925.208    23189930.166    48883637.912 7 -35083144.955 8
 86  6 19  2  0 17.0800000  0  4G12G13G 9G11
  22042602.297    22042604.990   -20924488.538 9  25539013.891 7
  20681388.095    20681392.130    -2305176.820 8  -4114536.241 8
  20359322.637    20359327.042    24232969.643 7 -58581755.066 6
  23192964.485    23192968.391    48899610.069 8 -35070699.133 9
 86  6 19  2  0 23.0800000  0  4G12G13G 9G11
  22039656.923    22039660.577   -20939966.225 9  25526953.361 8
  20681360.083    20681362.828    -2305329.706 8  -4114655.370 8
  20361075.100    20361079.750    24242181.732 7 -58574576.815 6
  23196004.879    23196007.697    48915583.040 8 -35058252.663 8
 86  6 19  2  0 29.0800000  0  4G12G13G 9G11
  22036714.987    22036719.100   -20955428.394 9  25514904.908 7
  20681333.221    20681336.476    -2305467.540 9  -4114762.777 8
  20362832.799    20362837.218    24251419.278 7 -58567378.737 7
  23199043.237    23199046.933    48931556.875 8 -35045805.521 7
 86  6 19  2  0 35.0800000  0  4G12G13G 9G11
  22033775.947    22033778.821   -20970875.043 9  25502868.570 9
  20681310.008    20681313.681    -2305590.317 8  -4114858.447 7
  20364596.322    20364598.770    24260682.129 7 -58560160.925 7
  23202083.998    23202086.437    48947531.501 8 -35033357.775 7
 86  6 19  2  0 41.0800000  0  4G12G13G 9G11
  22030838.465    22030842.516   -20986306.178 9  25490844.308 7
  20681289.553    20681293.487    -2305698.048 8  -4114942.393 8
  20366363.736    20366366.356    24269970.384 7 -58552923.336 7
  23205124.833    23205128.090    48963506.857 8 -35020909.442 8
 86  6 19  2  0 47.0800000  0  4G12G13G 9G11
  22027905.384    22027909.027   -21001721.765 9  25478832.164 7
  20681271.656    20681275.830    -2305790.694 8  -4115014.587 8
  20368135.865    20368138.742    24279283.869 8 -58545666.080 7
  23208164.688    23208168.124    48979482.998 8 -35008460.511 8
 86  6 19  2  0 53.0800000  0  4G12G13G 9G11
  22024974.896    22024978.921   -21017121.779 9  25466832.153 8
  20681258.251    20681261.017    -2305868.313 8  -4115075.075 8
  20369913.054    20369916.977    24288622.734 7 -58538389.049 6
  23211204.286    23211208.992    48995459.985 8 -34996010.908 6
 86  6 19  2  0 59.0800000  0  4G12G13G 9G11
  22022047.523    22022050.312   -21032506.079 9  25454844.398 7
  20681245.144    20681249.075    -2305930.833 9  -4115123.782 8
  20371696.813    20371698.064    24297986.898 7 -58531092.312 7
  23214244.950    23214247.882    49011437.825 8 -34983560.652 7
 86  6 19  2  1  5.0800000  0  4G12G13G 9G11
  22019123.044    22019126.578   -21047874.726 9  25442868.825 8
  20681235.607    20681240.353    -2305978.189 8  -4115160.681 7
  20373482.380    20373486.265    24307376.572 8 -58523775.666 7
  23217285.539    23217289.395    49027416.524 8 -34971109.709 8
 86  6 19  2  1 11.0800000  0  4G12G13G 9G11
  22016200.942    22016204.932   -21063227.611 9  25430905.538 8
  20681230.449    20681234.193    -2306010.377 8  -4115185.781 8
  20375274.676    20375275.822    24316791.697 7 -58516439.221 7
  23220325.432    23220329.127    49043396.090 8 -34958658.107 8
 86  6 19  2  1 17.0800000  0  4G12G13G 9G11
  22013282.552    22013286.568   -21078564.618 9  25418954.626 8
  20681226.159    20681230.170    -2306027.507 9  -4115199.114 8
  20377070.325    20377074.314    24326232.239 7 -58509082.949 7
  23223366.573    23223371.834    49059376.533 8 -34946205.828 8
 86  6 19  2  1 23.0800000  0  4G12G13G 9G11
  22010365.916    22010372.135   -21093885.732 9  25407016.105 8
  20681226.322    20681230.483    -2306029.503 8  -4115200.679 9
  20378873.058    20378875.791    24335698.175 9 -58501706.889 7
  23226408.278    23226412.147    49075357.831 9 -34933752.883 9
 86  6 19  2  1 29.0800000  0  4G12G13G 9G11
  22007453.635    22007458.742   -21109190.889 9  25395090.008 8
  20681229.420    20681233.229    -2306016.405 8  -4115190.473 8
  20380678.209    20380679.078    24345189.552 7 -58494311.023 6
  23229449.792    23229453.912    49091339.942 8 -34921299.280 7
 86  6 19  2  1 35.0800000  0  4G12G13G 9G11
  22004544.193    22004548.699   -21124480.090 9  25383176.351 8
  20681234.421    20681239.129    -2305988.166 9  -4115168.463 8
  20382488.746    20382491.703    24354706.412 8 -58486895.305 6
  23232490.020    23232495.656    49107322.907 8 -34908845.020 8
 86  6 19  2  1 41.0800000  0  4G12G13G 9G11
  22001638.454    22001643.064   -21139753.377 9  25371275.084 8
  20681241.531    20681246.526    -2305944.788 9  -4115134.664 9
  20384304.566    20384309.360    24364248.659 8 -58479459.785 7
  23235532.535    23235537.064    49123306.738 7 -34896390.103 8
 86  6 19  2  1 47.0800000  0  4G12G13G 9G11
  21998734.398    21998739.715   -21155010.817 9  25359386.173 8
  20681254.124    20681258.167    -2305886.412 8  -4115089.172 8
  20386125.849    20386129.567    24373816.239 8 -58472004.532 7
  23238574.009    23238580.080    49139291.359 9 -34883934.554 8
 86  6 19  2  1 53.0800000  0  4G12G13G 9G11
  21995834.737    21995839.242   -21170252.412 9  25347509.620 8
  20681269.018    20681271.234    -2305813.166 9  -4115032.097 8
  20387950.836    20387954.727    24383409.142 8 -58464529.541 6
  23241616.757    23241621.369    49155276.621 7 -34871478.509 9
 86  6 19  2  1 59.0800000  0  4G12G13G 9G11
  21992937.029    21992940.728   -21185478.077 9  25335645.452 7
  20681285.219    20681289.502    -2305724.980 9  -4114963.390 8
  20389781.995    20389784.387    24393027.354 6 -58457034.829 7
  23244658.412    23244662.281    49171262.602 8 -34859021.910 9
 86  6 19  2  2  5.0800000  0  4G12G13G 9G11
  21990043.939    21990046.106   -21200687.839 9  25323793.688 8
  20681304.775    20681309.007    -2305621.838 9  -4114883.015 8
  20391616.842    20391619.052    24402670.699 8 -58449520.538 7
  23247700.508    23247705.331    49187249.248 8 -34846564.782 9
 86  6 19  2  2 11.0800000  0  4G12G13G 9G11
  21987152.046    21987154.817   -21215881.727 9  25311954.292 7
  20681327.187    20681330.252    -2305503.838 9  -4114791.064 9
  20393455.059    20393460.068    24412339.230 8 -58441986.622 7
  23250742.606    23250746.406    49203236.451 8 -34834107.234 7
 86  6 19  2  2 17.0800000  0  4G12G13G 9G11
  21984263.592    21984267.107   -21231059.737 9  25300127.281 8
  20681352.043    20681356.896    -2305371.035 8  -4114687.586 8
  20395300.671    20395303.799    24422032.874 7 -58434433.125 7
  23253784.851    23253790.438    49219224.221 8 -34821649.238 8
 86  6 19  2  2 23.0800000  0  4G12G13G 9G11
  21981377.487    21981381.435   -21246221.852 9  25288312.655 8
  20681379.660    20681383.563    -2305223.484 9  -4114572.608 9
  20397149.909    20397152.837    24431751.752 8 -58426860.013 6
  23256827.323    23256831.656    49235212.561 9 -34809190.803 8
 86  6 19  2  2 29.0800000  0  4G12G13G 9G11
  21978495.626    21978500.094   -21261368.000 9  25276510.465 8
  20681410.625    20681415.099    -2305061.119 8  -4114446.077 8
  20399004.482    20399007.400    24441495.712 8 -58419267.286 7
  23259869.990    23259874.390    49251201.398 8 -34796731.967 7
 86  6 19  2  2 35.0800000  0  4G12G13G 9G11
  21975616.910    21975619.957   -21276498.135 9  25264720.746 8
  20681444.328    20681449.222    -2304883.958 8  -4114308.030 8
  20400862.225    20400866.574    24451264.879 8 -58411654.966 6
  23262912.641    23262917.633    49267190.821 8 -34784272.681 8
 86  6 19  2  2 41.0800000  0  4G12G13G 9G11
  21972740.784    21972744.897   -21291612.296 9  25252943.484 7
  20681481.281    20681484.877    -2304691.986 8  -4114158.447 8
  20402727.507    20402730.825    24461059.078 8 -58404023.119 7
  23265955.918    23265960.191    49283180.755 9 -34771813.008 8
 86  6 19  2  2 47.0800000  0  4G12G13G 9G11
  21969866.984    21969871.284   -21306710.421 9  25241178.720 7
  20681520.323    20681524.010    -2304485.258 9  -4113997.367 7
  20404595.894    20404599.447    24470878.451 8 -58396371.659 7
  23268997.709    23269002.474    49299171.277 8 -34759352.852 8
 86  6 19  2  2 53.0800000  0  4G12G13G 9G11
  21966996.950    21967000.959   -21321792.412 9  25229426.516 8
  20681562.115    20681565.823    -2304263.670 9  -4113824.695 8
  20406468.763    20406472.938    24480723.019 8 -58388700.564 6
  23272041.551    23272046.291    49315162.365 8 -34746892.286 7
 86  6 19  2  2 59.0800000  0  4G12G13G 9G11
  21964130.361    21964133.282   -21336858.198 9  25217686.936 8
  20681607.736    20681611.236    -2304027.218 8  -4113640.450 8
  20408347.323    20408351.430    24490592.835 8 -58381009.802 7
  23275084.353    23275089.615    49331154.033 8 -34734431.247 7
 86  6 19  2  3  5.0800000  0  4G12G13G 9G11
  21961266.886    21961270.793   -21351907.778 9  25205959.996 8
  20681654.588    20681659.452    -2303775.878 7  -4113444.603 8
  20410230.789    20410234.294    24500487.894 8 -58373299.363 6
  23278128.423    23278132.764    49347146.361 9 -34721969.697 7
 86  6 19  2  3 11.0800000  0  4G12G13G 9G11
  21958405.373    21958410.202   -21366941.098 9  25194245.727 8
  20681705.757    20681709.797    -2303509.611 8  -4113237.113 8
  20412118.384    20412121.271    24510408.222 7 -58365569.249 6
  23281170.339    23281176.357    49363139.378 8 -34709507.602 8
 86  6 19  2  3 17.0800000  0  4G12G13G 9G11
  21955548.916    21955551.630   -21381958.093 9  25182544.177 7
  20681758.419    20681763.257    -2303228.455 8  -4113018.031 8
  20414011.245    20414014.535    24520353.827 7 -58357819.429 6
  23284215.088    23284219.865    49379133.033 8 -34697045.039 8
 86  6 19  2  3 23.0800000  0  4G12G13G 9G11
  21952693.437    21952697.755   -21396958.718 9  25170855.378 8
  20681814.784    20681819.574    -2302932.516 8  -4112787.432 9
  20415908.379    20415911.131    24530324.628 8 -58350049.979 7
  23287257.585    23287263.269    49395127.285 8 -34684581.976 8
 86  6 19  2  3 29.0800000  0  4G12G13G 9G11
  21949841.145    21949845.832   -21411942.999 9  25159179.308 8
  20681874.059    20681878.679    -2302621.760 9  -4112545.277 8
  20417809.309    20417814.706    24540320.638 7 -58342260.874 7
  23290302.343    23290307.742    49411122.133 9 -34672118.461 8
 86  6 19  2  3 35.0800000  0  4G12G13G 9G11
  21946993.896    21946997.842   -21426910.973 8  25147515.956 7
  20681937.522    20681940.465    -2302296.243 8  -4112291.633 8
  20419716.957    20419719.326    24550341.831 8 -58334452.168 7
  23293345.735    23293351.019    49427117.542 9 -34659654.512 8
 86  6 19  2  3 41.0800000  0  4G12G13G 9G11
  21944147.626    21944153.230   -21441862.706 9  25135865.255 8
  20682000.931    20682005.858    -2301956.022 8  -4112026.514 8
  20421627.448    20421632.350    24560387.932 7 -58326624.028 7
  23296391.647    23296395.838    49443113.375 8 -34647190.240 8
 86  6 19  2  3 47.0800000  0  4G12G13G 9G11
  21941305.604    21941310.744   -21456798.116 9  25124227.280 8
  20682067.720    20682074.345    -2301601.128 8  -4111749.978 7
  20423544.647    20423548.599    24570459.155 8 -58318776.324 7
  23299434.451    23299439.106    49459109.652 8 -34634725.609 8
 86  6 19  2  3 53.0800000  0  4G12G13G 9G11
  21938466.649    21938472.014   -21471717.234 9  25112601.995 8
  20682139.456    20682144.064    -2301231.609 9  -4111462.031 8
  20425467.387    20425469.975    24580555.360 7 -58310909.163 7
  23302479.255    23302483.130    49475106.309 8 -34622260.685 9
 86  6 19  2  3 59.0800000  0  4G12G13G 9G11
  21935630.388    21935634.747   -21486620.037 8  25100989.410 9
  20682211.206    20682216.065    -2300847.513 8  -4111162.734 9
  20427391.958    20427396.706    24590676.595 7 -58303022.497 7
  23305522.743    23305527.512    49491103.285 9 -34609795.513 8
 86  6 19  2  4  5.0800000  0  4G12G13G 9G11
  21932797.403    21932802.935   -21501506.527 9  25089389.557 9
  20682287.681    20682292.909    -2300448.781 9  -4110852.029 9
  20429322.402    20429325.480    24600822.873 7 -58295116.313 7
  23308566.040    23308572.529    49507100.673 9 -34597330.034 8
 86  6 19  2  4 11.0800000  0  4G12G13G 9G11
  21929968.557    21929973.655   -21516376.606 9  25077802.486 7
  20682366.872    20682370.212    -2300035.335 8  -4110529.873 9
  20431257.782    20431262.073    24610994.066 7 -58287190.705 7
  23311610.188    23311616.586    49523098.437 8 -34584864.248 8
 86  6 19  2  4 17.0800000  0  4G12G13G 9G11
  21927141.748    21927146.039   -21531230.179 8  25066228.271 8
  20682447.588    20682452.412    -2299607.282 8  -4110196.314 7
  20433198.953    20433203.502    24621190.432 6 -58279245.499 7
  23314655.474    23314660.565    49539096.645 8 -34572398.105 8
 86  6 19  2  4 23.0800000  0  4G12G13G 9G11
  21924319.530    21924323.844   -21546067.288 8  25054666.890 7
  20682532.102    20682537.005    -2299164.600 8  -4109851.363 9
  20435142.867    20435148.432    24631411.860 8 -58271280.760 6
  23317699.435    23317704.744    49555095.331 9 -34559931.610 8
 86  6 19  2  4 29.0800000  0  4G12G13G 9G11
  21921498.637    21921503.672   -21560887.888 9  25043118.368 9
  20682618.627    20682623.833    -2298707.255 8  -4109494.986 9
  20437093.491    20437098.159    24641658.248 7 -58263296.566 7
  23320743.945    23320748.387    49571094.409 8 -34547464.800 8
 86  6 19  2  4 35.0800000  0  4G12G13G 9G11
  21918682.178    21918685.547   -21575692.055 9  25031582.662 8
  20682709.094    20682712.862    -2298235.321 7  -4109127.246 8
  20439047.310    20439051.587    24651929.606 7 -58255292.900 7
  23323789.028    23323794.450    49587093.889 9 -34534997.672 8
 86  6 19  2  4 41.0800000  0  4G12G13G 9G11
  21915867.777    21915871.400   -21590479.689 8  25020059.822 8
  20682801.696    20682805.415    -2297748.831 9  -4108748.167 7
  20441006.867    20441012.738    24662225.993 8 -58247269.745 7
  23326834.321    23326838.405    49603093.710 8 -34522530.290 9
 86  6 19  2  4 47.0800000  0  4G12G13G 9G11
  21913056.936    21913060.943   -21605250.782 8  25008549.889 8
  20682897.730    20682901.226    -2297247.759 7  -4108357.727 8
  20442970.972    20442976.879    24672547.249 8 -58239227.225 6
  23329878.802    23329884.775    49619093.826 8 -34510062.679 9
 86  6 19  2  4 53.0800000  0  4G12G13G 9G11
  21910249.301    21910254.373   -21620005.353 8  24997052.814 8
  20682995.258    20683000.320    -2296732.082 9  -4107955.901 8
  20444939.403    20444943.484    24682893.461 7 -58231165.236 7
  23332923.245    23332927.359    49635094.259 8 -34497594.801 8
 86  6 19  2  4 59.0800000  0  4G12G13G 9G11
  21907444.299    21907449.505   -21634743.286 9  24985568.711 8
  20683096.485    20683099.964    -2296201.861 8  -4107542.728 9
  20446915.183    20446918.386    24693264.764 8 -58223083.701 7
  23335968.329    23335972.826    49651095.028 9 -34485126.677 8
 86  6 19  2  5  5.0800000  0  4G12G13G 9G11
  21904644.037    21904647.796   -21649464.479 9  24974097.655 8
  20683200.745    20683204.215    -2295657.089 9  -4107118.240 8
  20448893.380    20448896.582    24703661.093 7 -58214982.664 7
  23339013.264    23339018.002    49667096.242 8 -34472658.196 8
 86  6 19  2  5 11.0800000  0  4G12G13G 9G11
  21901845.181    21901850.347   -21664168.907 8  24962639.653 8
  20683307.548    20683310.770    -2295097.674 8  -4106682.321 8
  20450876.269    20450880.071    24714082.489 8 -58206862.114 7
  23342057.592    23342062.254    49683097.855 8 -34460189.414 9
 86  6 19  2  5 17.0800000  0  4G12G13G 9G11
  21899050.308    21899054.861   -21678856.557 8  24951194.739 8
  20683415.449    20683420.136    -2294523.678 9  -4106235.045 7
  20452863.216    20452866.637    24724528.817 8 -58198722.112 7
  23345102.292    23345107.063    49699099.828 8 -34447720.355 8
 86  6 19  2  5 23.0800000  0  4G12G13G 9G11
  21896259.434    21896263.186   -21693527.442 9  24939762.861 8
  20683527.869    20683531.699    -2293935.137 9  -4105776.451 8
  20454856.760    20454860.993    24735000.143 7 -58190562.647 7
  23348148.321    23348153.467    49715102.142 8 -34435251.023 8
 86  6 19  2  5 29.0800000  0  4G12G13G 9G11
  21893469.388    21893474.486   -21708181.584 9  24928344.066 9
  20683642.317    20683646.230    -2293332.091 8  -4105306.546 9
  20456854.818    20456856.568    24745496.338 7 -58182383.795 7
  23351193.109    23351198.751    49731104.713 8 -34422781.494 8
 86  6 19  2  5 35.0800000  0  4G12G13G 9G11
  21890685.506    21890689.747   -21722818.888 8  24916938.372 8
  20683760.613    20683763.768    -2292714.537 8  -4104825.326 7
  20458856.037    20458859.210    24756017.417 7 -58174185.551 7
  23354238.179    23354242.595    49747107.608 8 -34410311.715 9
 86  6 19  2  5 41.0800000  0  4G12G13G 9G11
  21887902.380    21887906.880   -21737439.381 9  24905545.783 8
  20683880.925    20683884.594    -2292082.418 8  -4104332.770 8
  20460863.208    20460867.135    24766563.498 7 -58165967.841 7
  23357283.481    23357288.343    49763110.806 8 -34397841.692 9
 86  6 19  2  5 47.0800000  0  4G12G13G 9G11
  21885124.594    21885127.936   -21752043.070 8  24894166.284 9
  20684003.484    20684008.029    -2291435.882 8  -4103828.977 7
  20462875.375    20462877.966    24777134.358 7 -58157730.800 8
  23360329.564    23360334.669    49779114.210 8 -34385371.507 8
 86  6 19  2  5 53.0800000  0  4G12G13G 9G11
  21882348.348    21882351.642   -21766629.929 9  24882799.901 8
  20684129.561    20684132.946    -2290774.963 9  -4103313.973 8
  20464891.540    20464894.337    24787730.158 7 -58149474.337 7
  23363374.348    23363379.196    49795117.862 8 -34372901.144 8
 86  6 19  2  5 59.0800000  0  4G12G13G 9G11
  21879575.861    21879579.895   -21781199.884 9  24871446.697 8
  20684257.873    20684261.877    -2290099.491 8  -4102787.616 9
  20466911.793    20466915.133    24798350.845 8 -58141198.477 6
  23366419.838    23366425.027    49811121.730 8 -34360430.587 8
 86  6 19  2  6  5.0800000  0  4G12G13G 9G11
  21876806.231    21876810.966   -21795752.961 9  24860106.644 8
  20684388.087    20684393.812    -2289409.577 8  -4102250.030 9
  20468937.570    20468941.377    24808996.248 7 -58132903.368 7
  23369464.457    23369470.180    49827125.846 9 -34347959.860 9
 86  6 19  2  6 11.0800000  0  4G12G13G 9G11
  21874039.354    21874044.385   -21810289.131 9  24848779.755 8
  20684523.243    20684527.545    -2288705.285 8  -4101701.234 8
  20470967.465    20470971.980    24819666.528 8 -58124588.848 7
  23372510.523    23372515.930    49843130.184 8 -34335488.954 8
 86  6 19  2  6 17.0800000  0  4G12G13G 9G11
  21871276.908    21871281.448   -21824808.403 9  24837466.046 8
  20684658.715    20684664.918    -2287986.604 8  -4101141.222 8
  20473003.108    20473006.577    24830361.564 8 -58116255.082 8
  23375557.082    23375561.590    49859134.666 8 -34323017.940 8
 86  6 19  2  6 23.0800000  0  4G12G13G 9G11
  21868517.643    21868522.295   -21839310.739 9  24826165.532 8
  20684799.190    20684804.286    -2287253.687 9  -4100570.112 8
  20475044.060    20475046.867    24841081.410 7 -58107901.955 6
  23378601.609    23378607.868    49875139.268 8 -34310546.820 8
 86  6 19  2  6 29.0800000  0  4G12G13G 9G11
  21865760.899    21865766.304   -21853796.247 9  24814878.117 8
  20684941.275    20684945.493    -2286506.467 8  -4099987.855 9
  20477086.116    20477092.760    24851826.033 7 -58099529.514 7
  23381647.400    23381652.813    49891144.013 8 -34298075.597 9
 86  6 19  2  6 35.0800000  0  4G12G13G 9G11
  21863006.832    21863011.732   -21868264.863 9  24803603.873 8
  20685086.347    20685092.105    -2285745.024 8  -4099394.532 9
  20479137.135    20479141.329    24862595.326 8 -58091137.846 8
  23384693.347    23384697.879    49907148.824 8 -34285604.322 8
 86  6 19  2  6 41.0800000  0  4G12G13G 9G11
  21860257.371    21860262.159   -21882716.517 8  24792342.861 8
  20685233.828    20685238.028    -2284969.287 8  -4098790.062 8
  20481190.836    20481193.698    24873389.240 8 -58082727.023 8
  23387737.703    23387744.410    49923153.660 8 -34273133.033 8
 86  6 19  2  6 47.0800000  0  4G12G13G 9G11
  21857511.227    21857515.327   -21897151.173 8  24781095.066 9
  20685384.360    20685388.822    -2284179.384 8  -4098174.557 8
  20483249.655    20483253.087    24884207.911 8 -58074296.891 7
  23390785.258    23390789.291    49939158.558 7 -34260661.681 8
 86  6 19  2  6 53.0800000  0  4G12G13G 9G11
  21854767.937    21854771.474   -21911568.718 9  24769860.619 8
  20685537.533    20685540.954    -2283375.114 9  -4097547.843 8
  20485313.217    20485315.974    24895051.284 8 -58065847.513 9
  23393829.041    23393834.857    49955163.618 8 -34248190.223 8
 86  6 19  2  6 59.0800000  0  4G12G13G 9G11
  21852026.455    21852032.188   -21925969.182 8  24758639.492 8
  20685693.045    20685697.151    -2282556.525 8  -4096909.985 9
  20487381.300    20487385.091    24905919.453 7 -58057378.823 8
  23396875.450    23396880.929    49971168.785 7 -34235718.667 8
 86  6 19  2  7  5.0800000  0  4G12G13G 9G11
  21849289.634    21849294.705   -21940352.455 9  24747431.745 7
  20685851.912    20685854.996    -2281723.568 8  -4096260.933 9
  20489453.409    20489458.270    24916812.303 8 -58048890.884 6
  23399921.505    23399926.523    49987174.080 8 -34223247.011 8
 86  6 19  2  7 11.0800000  0  4G12G13G 9G11
  21846556.012    21846560.683   -21954718.530 9  24736237.406 9
  20686012.957    20686016.768    -2280876.303 9  -4095600.721 8
  20491531.277    20491534.644    24927730.070 7 -58040383.535 6
  23402968.277    23402972.458    50003179.581 7 -34210775.201 8
 86  6 19  2  7 17.0800000  0  4G12G13G 9G11
  21843826.191    21843831.742   -21969067.359 9  24725056.505 8
  20686177.093    20686181.556    -2280014.720 8  -4094929.364 9
  20493614.441    20493617.723    24938672.602 7 -58031856.898 7
  23406013.594    23406017.951    50019185.265 8 -34198303.248 9
 86  6 19  2  7 23.0800000  0  4G12G13G 9G11
  21841098.939    21841103.100   -21983398.956 9  24713889.025 9
  20686343.567    20686347.799    -2279138.836 9  -4094246.851 9
  20495701.114    20495706.386    24949639.957 8 -58023310.905 7
  23409057.351    23409064.653    50035191.057 8 -34185831.212 9
 86  6 19  2  7 29.0800000  0  4G12G13G 9G11
  21838374.166    21838379.031   -21997713.283 8  24702735.008 8
  20686512.567    20686517.280    -2278248.683 9  -4093553.222 9
  20497792.244    20497795.778    24960631.942 8 -58014745.713 8
  23412104.696    23412110.165    50051196.991 8 -34173359.066 9
 86  6 19  2  7 35.0800000  0  4G12G13G 9G11
  21835653.760    21835658.320   -22012010.320 9  24691594.462 8
  20686684.414    20686689.209    -2277344.282 7  -4092848.497 9
  20499889.583    20499892.849    24971648.692 7 -58006161.270 7
  23415150.684    23415155.731    50067202.983 7 -34160886.875 8
 86  6 19  2  7 41.0800000  0  4G12G13G 9G11
  21832935.945    21832940.998   -22026290.079 9  24680467.378 8
  20686860.072    20686864.654    -2276425.611 8  -4092132.655 8
  20501990.212    20501993.597    24982690.046 6 -57997557.600 7
  23418196.348    23418201.890    50083208.990 8 -34148414.666 9
 86  6 19  2  7 47.0800000  0  4G12G13G 9G11
  21830222.683    21830226.124   -22040552.642 9  24669353.686 8
  20687035.995    20687042.253    -2275492.817 8  -4091405.796 8
  20504095.366    20504100.309    24993755.906 7 -57988934.857 7
  23421241.735    23421247.997    50099214.971 7 -34135942.482 8
 86  6 19  2  7 53.0800000  0  4G12G13G 9G11
  21827511.474    21827515.538   -22054798.031 9  24658253.400 8
  20687217.916    20687222.124    -2274546.025 9  -4090668.041 9
  20506205.236    20506210.371    25004846.315 7 -57980292.973 8
  23424288.180    23424293.211    50115220.806 7 -34123470.429 8
 86  6 19  2  7 59.0800000  0  4G12G13G 9G11
  21824803.282    21824808.076   -22069026.201 9  24647166.502 8
  20687400.479    20687404.826    -2273585.149 9  -4089919.297 9
  20508321.558    20508326.708    25015961.356 7 -57971631.912 6
  23427333.423    23427338.717    50131226.509 8 -34110998.440 8
 86  6 19  2  8  5.0800000  0  4G12G13G 9G11
  21822099.623    21822104.125   -22083237.086 9  24636093.092 7
  20687585.691    20687589.552    -2272610.115 8  -4089159.535 8
  20510441.231    20510446.350    25027100.857 7 -57962951.809 7
  23430380.499    23430385.384    50147232.207 8 -34098526.483 9
 86  6 19  2  8 11.0800000  0  4G12G13G 9G11
  21819398.232    21819403.655   -22097430.650 9  24625033.165 8
  20687773.433    20687779.580    -2271620.996 9  -4088388.804 8
  20512565.535    20512570.006    25038264.863 7 -57954252.579 7
  23433426.163    23433430.258    50163237.876 7 -34086054.550 9
 86  6 19  2  8 17.0800000  0  4G12G13G 9G11
  21816701.562    21816705.170   -22111606.790 9  24613986.826 8
  20687964.897    20687969.236    -2270617.724 8  -4087607.020 8
  20514695.457    20514698.233    25049453.511 8 -57945534.154 7
  23436470.681    23436476.354    50179243.503 8 -34073582.637 9
 86  6 19  2  8 23.0800000  0  4G12G13G 9G11
  21814006.178    21814011.256   -22125765.444 8  24602954.118 8
  20688158.112    20688162.869    -2269600.315 9  -4086814.238 9
  20516828.048    20516833.209    25060666.871 7 -57936796.478 6
  23439515.965    23439522.414    50195249.182 7 -34061110.676 9
 86  6 19  2  8 29.0800000  0  4G12G13G 9G11
  21811314.586    21811319.809   -22139906.639 9  24591934.999 9
  20688354.320    20688359.713    -2268568.659 9  -4086010.362 9
  20518966.138    20518972.265    25071904.723 7 -57928039.712 7
  23442562.735    23442567.457    50211254.832 7 -34048638.747 8
 86  6 19  2  8 35.0800000  0  4G12G13G 9G11
  21808626.769    21808633.197   -22154030.306 9  24580929.545 9
  20688554.001    20688557.291    -2267522.897 8  -4085195.474 8
  20521111.363    20521113.715    25083167.220 7 -57919263.741 7
  23445607.864    23445613.874    50227260.519 8 -34036166.797 9
 86  6 19  2  8 41.0800000  0  4G12G13G 9G11
  21805942.715    21805948.579   -22168136.418 8  24569937.779 7
  20688755.099    20688759.551    -2266463.030 8  -4084369.610 9
  20523258.534    20523261.739    25094454.223 8 -57910468.666 7
  23448653.912    23448658.641    50243266.140 7 -34023694.894 8
 86  6 19  2  8 47.0800000  0  4G12G13G 9G11
  21803262.187    21803267.366   -22182224.970 9  24558959.676 8
  20688959.402    20688963.647    -2265389.117 9  -4083532.782 8
  20525411.068    20525415.603    25105765.813 7 -57901654.451 7
  23451700.176    23451705.565    50259271.721 7 -34011223.022 8
 86  6 19  2  8 53.0800000  0  4G12G13G 9G11
  21800585.080    21800589.936   -22196296.019 9  24547995.228 9
  20689166.275    20689170.997    -2264301.088 8  -4082684.969 8
  20527568.048    20527571.914    25117101.938 9 -57892821.122 7
  23454744.839    23454751.134    50275277.195 8 -33998751.225 9
 86  6 19  2  8 59.0800000  0  4G12G13G 9G11
  21797909.763    21797915.471   -22210349.530 9  24537044.438 7
  20689376.379    20689380.272    -2263199.060 9  -4081826.246 8
  20529729.349    20529733.699    25128462.531 7 -57883968.704 7
  23457791.801    23457797.160    50291282.617 8 -33986279.462 8
 86  6 19  2  9  5.0800000  0  4G12G13G 9G11
  21795238.874    21795244.176   -22224385.501 9  24526107.320 8
  20689587.958    20689593.314    -2262083.089 8  -4080956.653 8
  20531897.474    20531900.309    25139847.612 9 -57875097.216 7
  23460837.119    23460843.303    50307287.944 8 -33973807.803 8
 86  6 19  2  9 11.0800000  0  4G12G13G 9G11
  21792571.102    21792577.647   -22238403.870 9  24515183.914 8
  20689802.623    20689808.120    -2260953.162 8  -4080076.194 8
  20534067.157    20534072.574    25151257.051 8 -57866206.742 7
  23463882.594    23463888.307    50323293.085 7 -33961336.260 8
 86  6 19  2  9 17.0800000  0  4G12G13G 9G11
  21789907.549    21789912.881   -22252404.624 9  24504274.248 8
  20690021.199    20690025.857    -2259809.300 8  -4079184.866 8
  20536244.962    20536247.079    25162691.002 8 -57857297.158 7
  23466929.250    23466933.855    50339298.101 8 -33948864.829 8
 86  6 19  2  9 23.0800000  0  4G12G13G 9G11
  21787247.322    21787253.128   -22266387.770 9  24493378.287 9
  20690241.608    20690245.215    -2258651.448 9  -4078282.641 8
  20538424.003    20538427.748    25174149.374 7 -57848368.571 7
  23469973.862    23469979.694    50355302.976 8 -33936393.495 8
 86  6 19  2  9 29.0800000  0  4G12G13G 9G11
  21784589.345    21784593.827   -22280353.233 9  24482496.111 8
  20690465.617    20690468.377    -2257479.582 8  -4077369.512 8
  20540608.137    20540612.781    25185632.116 8 -57839420.971 7
  23473018.822    23473025.270    50371307.710 8 -33923922.286 8
 86  6 19  2  9 35.0800000  0  4G12G13G 9G11
  21781934.600    21781940.295   -22294300.931 9  24471627.779 8
  20690689.759    20690694.228    -2256293.770 8  -4076445.496 8
  20542799.227    20542803.750    25197139.324 8 -57830454.328 7
  23476065.725    23476070.620    50387312.292 8 -33911451.200 8
 86  6 19  2  9 41.0800000  0  4G12G13G 9G11
  21779284.028    21779289.801   -22308230.922 9  24460773.234 8
  20690917.819    20690923.321    -2255094.043 8  -4075510.645 9
  20544993.457    20544996.874    25208670.859 8 -57821468.717 7
  23479110.741    23479116.264    50403316.661 7 -33898980.262 9
 86  6 19  2  9 47.0800000  0  4G12G13G 9G11
  21776636.444    21776642.139   -22322143.138 9  24449932.554 8
  20691148.890    20691152.385    -2253880.442 7  -4074564.980 9
  20547193.670    20547196.727    25220226.839 8 -57812464.052 6
  23482157.070    23482160.586    50419320.841 8 -33886509.480 8
 86  6 19  2  9 53.0800000  0  4G12G13G 9G11
  21773992.576    21773998.272   -22336037.581 8  24439105.713 8
  20691383.526    20691387.409    -2252653.061 8  -4073608.570 8
  20549396.959    20549399.498    25231807.015 8 -57803440.553 7
  23485202.030    23485206.147    50435324.774 8 -33874038.874 8
 86  6 19  2  9 59.0800000  0  4G12G13G 9G11
  21771352.764    21771357.146   -22349914.295 9  24428292.690 7
  20691618.598    20691623.283    -2251411.898 8  -4072641.443 8
  20551604.684    20551608.760    25243411.617 7 -57794398.004 8
  23488247.704    23488253.183    50451328.418 8 -33861568.530 8
 86  6 19  2 10  5.0800000  0  4G12G13G 9G11
  21768715.363    21768720.153   -22363773.225 9  24417493.530 7
  20691857.545    20691861.799    -2250156.859 8  -4071663.485 8
  20553816.836    20553820.664    25255040.484 8 -57785336.553 8
  23491292.411    23491297.711    50467331.831 7 -33849098.331 8
 86  6 19  2 10 11.0800000  0  4G12G13G 9G11
  21766081.367    21766086.144   -22377614.372 9  24406708.222 7
  20692099.240    20692104.916    -2248887.973 8  -4070674.748 8
  20556035.109    20556037.394    25266693.643 8 -57776256.159 8
  23494336.838    23494343.680    50483335.019 8 -33836628.333 8
 86  6 19  2 10 17.0800000  0  4G12G13G 9G11
  21763451.396    21763455.793   -22391437.662 8  24395936.827 8
  20692342.716    20692348.165    -2247605.220 8  -4069675.198 8
  20558258.267    20558260.077    25278371.193 7 -57767156.786 7
  23497383.302    23497388.434    50499337.945 8 -33824158.516 8
 86  6 19  2 10 23.0800000  0  4G12G13G 9G11
  21760823.872    21760828.233   -22405243.096 9  24385179.345 8
  20692590.263    20692594.435    -2246308.597 8  -4068664.846 8
  20560484.523    20560487.179    25290073.045 7 -57758038.456 7
  23500427.944    23500433.737    50515340.603 8 -33811688.922 8
 86  6 19  2 10 29.0800000  0  4G12G13G 9G11
  21758199.143    21758204.782   -22419030.695 9  24374435.760 9
  20692839.048    20692842.886    -2244998.128 8  -4067643.705 8
  20562715.203    20562718.587    25301799.160 7 -57748901.238 7
  23503473.903    23503479.662    50531343.033 8 -33799219.503 8
 86  6 19  2 10 35.0800000  0  4G12G13G 9G11
  21755580.115    21755584.161   -22432800.347 9  24363706.169 7
  20693091.956    20693095.952    -2243673.794 9  -4066611.753 8
  20564952.340    20564954.280    25313549.608 8 -57739745.040 7
  23506517.920    23506524.109    50547345.205 8 -33786750.288 8
 86  6 19  2 10 41.0800000  0  4G12G13G 9G11
  21752964.035    21752967.540   -22446552.062 9  24352990.546 7
  20693346.398    20693350.979    -2242335.635 8  -4065569.015 8
  20567191.827    20567194.375    25325324.301 8 -57730569.970 7
  23509564.068    23509569.540    50563347.111 9 -33774281.269 7
 86  6 19  2 10 47.0800000  0  4G12G13G 9G11
  21750350.100    21750353.957   -22460285.746 9  24342288.977 9
  20693603.433    20693606.940    -2240983.646 8  -4064515.533 8
  20569438.149    20569441.093    25337123.313 8 -57721375.938 8
  23512609.171    23512613.739    50579348.731 8 -33761812.485 7
 86  6 19  2 10 53.0800000  0  4G12G13G 9G11
  21747739.526    21747743.518   -22474001.403 8  24331601.461 8
  20693863.787    20693867.637    -2239617.803 9  -4063451.243 8
  20571686.962    20571689.915    25348946.563 7 -57712163.034 8
  23515653.839    23515659.240    50595350.072 7 -33749343.909 7
 86  6 19  2 10 59.0800000  0  4G12G13G 9G11
  21745132.751    21745137.317   -22487698.985 9  24320928.009 8
  20694126.752    20694130.643    -2238238.179 9  -4062376.206 8
  20573940.889    20573944.946    25360794.127 7 -57702931.170 8
  23518699.371    23518702.977    50611351.181 8 -33736875.521 9
 86  6 19  2 11  5.0800000  0  4G12G13G 9G11
  21742529.571    21742533.771   -22501378.475 9  24310268.669 8
  20694392.276    20694395.644    -2236844.781 8  -4061290.446 8
  20576199.223    20576203.810    25372665.984 8 -57693680.379 7
  23521742.860    23521746.883    50627351.947 8 -33724407.395 8
 86  6 19  2 11 11.0800000  0  4G12G13G 9G11
  21739930.091    21739934.539   -22515039.938 9  24299623.372 8
  20694659.035    20694662.507    -2235437.681 9  -4060193.993 8
  20578465.602    20578468.268    25384561.963 7 -57684410.788 7
  23524788.763    23524793.479    50643352.402 8 -33711939.521 7
 86  6 19  2 11 17.0800000  0  4G12G13G 9G11
  21737334.037    21737339.138   -22528683.361 9  24288992.135 8
  20694929.828    20694934.530    -2234016.987 8  -4059086.956 7
  20580733.671    20580736.671    25396482.026 7 -57675122.442 7
  23527832.873    23527837.846    50659352.389 8 -33699471.992 7
 86  6 19  2 11 23.0800000  0  4G12G13G 9G11
  21734740.856    21734745.782   -22542308.650 9  24278375.025 8
  20695203.239    20695206.889    -2232582.622 8  -4057969.276 8
  20583005.676    20583009.815    25408426.294 8 -57665815.222 8
  23530877.773    23530882.704    50675352.018 9 -33687004.772 8
 86  6 19  2 11 29.0800000  0  4G12G13G 9G11
  21732152.770    21732156.390   -22555915.863 9  24267772.015 8
  20695477.807    20695483.141    -2231134.589 8  -4056840.935 8
  20585282.929    20585286.730    25420394.675 9 -57656489.221 8
  23533921.892    23533926.956    50691351.222 8 -33674537.860 7
 86  6 19  2 11 35.0800000  0  4G12G13G 9G11
  21729566.813    21729569.876   -22569504.970 9  24257183.096 8
  20695756.394    20695760.833    -2229672.919 8  -4055701.967 8
  20587564.509    20587568.816    25432387.224 6 -57647144.381 8
  23536966.849    23536971.218    50707350.036 8 -33662071.264 8
 86  6 19  2 11 41.0800000  0  4G12G13G 9G11
  21726983.741    21726988.035   -22583075.992 9  24246608.272 8
  20696037.338    20696041.412    -2228197.593 8  -4054552.350 9
  20589851.232    20589856.795    25444403.843 9 -57637780.781 8
  23540010.816    23540016.527    50723348.444 8 -33649604.963 8
 86  6 19  2 11 47.0800000  0  4G12G13G 9G11
  21724404.549    21724408.401   -22596628.741 9  24236047.692 8
  20696321.560    20696324.010    -2226708.613 8  -4053392.117 9
  20592143.393    20592146.340    25456444.590 8 -57628398.401 7
  23543055.639    23543060.479    50739346.465 9 -33637138.991 8
 86  6 19  2 11 53.0800000  0  4G12G13G 9G11
  21721829.542    21721833.613   -22610163.234 9  24225501.329 8
  20696607.343    20696611.777    -2225205.989 9  -4052221.235 8
  20594439.634    20594443.967    25468509.481 8 -57618997.190 7
  23546100.081    23546104.823    50755344.100 9 -33624673.310 8
 86  6 19  2 11 59.0800000  0  4G12G13G 9G11
  21719257.195    21719260.762   -22623679.468 9  24214969.198 8
  20696896.455    20696899.192    -2223689.793 9  -4051039.783 8
  20596739.162    20596743.673    25480598.481 7 -57609577.201 8
  23549143.017    23549148.016    50771341.350 7 -33612207.922 8
 86  6 19  2 12  5.0800000  0  4G12G13G 9G11
  21716688.214    21716693.723   -22637177.458 9  24204451.286 9
  20697187.346    20697190.411    -2222160.015 8  -4049847.749 8
  20599044.954    20599048.325    25492711.476 8 -57600138.496 7
  23552187.324    23552192.453    50787338.135 8 -33599742.898 8
 86  6 19  2 12 11.0800000  0  4G12G13G 9G11
  21714123.945    21714127.462   -22650657.152 9  24193947.633 8
  20697480.325    20697484.780    -2220616.594 8  -4048645.089 9
  20601354.605    20601358.434    25504848.421 8 -57590681.144 7
  23555231.798    23555236.072    50803334.467 8 -33587278.226 7
 86  6 19  2 12 17.0800000  0  4G12G13G 9G11
  21711562.480    21711566.460   -22664118.617 9  24183458.181 9
  20697776.093    20697781.381    -2219059.643 8  -4047431.875 9
  20603669.104    20603673.314    25517009.430 8 -57581205.043 8
  23558275.897    23558279.952    50819330.361 8 -33574813.908 8
 86  6 19  2 12 23.0800000  0  4G12G13G 9G11
  21709004.202    21709008.016   -22677561.824 9  24172982.954 9
  20698074.700    20698080.268    -2217489.180 8  -4046208.135 9
  20605986.404    20605990.285    25529194.475 8 -57571710.195 8
  23561318.367    23561323.674    50835325.761 9 -33562349.964 8
 86  6 19  2 12 29.0800000  0  4G12G13G 9G11
  21706448.999    21706452.412   -22690986.688 9  24162522.018 9
  20698375.517    20698381.032    -2215905.181 9  -4044973.854 9
  20608310.001    20608315.282    25541403.571 8 -57562196.626 7
  23564362.481    23564368.246    50851320.699 8 -33549886.393 7
 86  6 19  2 12 35.0800000  0  4G12G13G 9G11
  21703899.295    21703902.528   -22704393.120 9  24152075.449 8
  20698680.460    20698684.654    -2214307.640 9  -4043729.021 9
  20610638.625    20610642.242    25553636.507 9 -57552664.467 7
  23567406.651    23567412.607    50867315.137 8 -33537423.192 7
 86  6 19  2 12 41.0800000  0  4G12G13G 9G11
  21701350.049    21701354.424   -22717781.195 9  24141643.186 8
  20698987.904    20698992.154    -2212696.602 9  -4042473.670 9
  20612970.856    20612974.934    25565893.463 9 -57543113.605 8
  23570450.615    23570455.006    50883309.060 8 -33524960.396 7
 86  6 19  2 12 47.0800000  0  4G12G13G 9G11
  21698805.783    21698810.366   -22731150.828 9  24131225.294 7
  20699295.357    20699300.135    -2211072.176 9  -4041207.874 9
  20615308.038    20615311.331    25578174.379 8 -57533544.060 7
  23573493.591    23573498.970    50899302.422 8 -33512498.041 8
 86  6 19  2 12 53.0800000  0  4G12G13G 9G11
  21696265.846    21696269.282   -22744501.961 9  24120821.820 8
  20699607.842    20699612.846    -2209434.221 9  -4039931.550 9
  20617649.346    20617652.177    25590479.383 8 -57523955.755 7
  23576537.423    23576542.384    50915295.270 9 -33500036.101 8
 86  6 19  2 12 59.0800000  0  4G12G13G 9G11
  21693729.182    21693731.657   -22757834.562 9  24110432.778 8
  20699922.497    20699926.813    -2207782.630 8  -4038644.592 8
  20619995.902    20619999.816    25602808.358 8 -57514348.752 7
  23579580.338    23579584.816    50931287.644 9 -33487574.512 7
 86  6 19  2 13  5.0800000  0  4G12G13G 9G11
  21691194.606    21691199.278   -22771148.598 9  24100058.200 8
  20700238.215    20700243.117    -2206117.551 9  -4037347.130 8
  20622346.731    20622349.111    25615161.281 8 -57504723.110 8
  23582623.381    23582629.710    50947279.553 9 -33475113.296 8
 86  6 19  2 13 11.0800000  0  4G12G13G 9G11
  21688663.893    21688668.114   -22784444.085 8  24089698.089 8
  20700558.064    20700563.300    -2204439.038 8  -4036039.192 8
  20624701.072    20624705.949    25627538.134 7 -57495078.809 7
  23585666.686    23585671.605    50963270.998 8 -33462652.429 8
 86  6 19  2 13 17.0800000  0  4G12G13G 9G11
  21686138.321    21686142.678   -22797721.079 9  24079352.385 7
  20700881.639    20700885.176    -2202747.126 8  -4034720.824 8
  20627061.353    20627066.159    25639938.884 8 -57485415.899 8
  23588710.462    23588713.639    50979261.860 8 -33450192.023 8
 86  6 19  2 13 23.0800000  0  4G12G13G 9G11
  21683615.588    21683619.382   -22810979.602 9  24069021.064 7
  20701205.224    20701208.957    -2201041.872 8  -4033392.057 8
  20629425.256    20629429.583    25652363.517 8 -57475734.372 7
  23591752.080    23591757.608    50995252.064 9 -33437732.129 7
 86  6 19  2 13 29.0800000  0  4G12G13G 9G11
  21681095.550    21681099.837   -22824219.611 9  24058704.184 9
  20701530.958    20701536.335    -2199323.320 8  -4032052.931 9
  20631795.774    20631798.672    25664811.816 8 -57466034.396 7
  23594794.804    23594800.715    51011241.645 9 -33425272.713 8
 86  6 19  2 13 35.0800000  0  4G12G13G 9G11
  21678579.056    21678583.442   -22837441.034 9  24048401.764 8
  20701860.528    20701865.612    -2197591.401 8  -4030703.367 8
  20634167.854    20634172.077    25677284.009 8 -57456315.808 7
  23597837.606    23597843.305    51027230.582 8 -33412813.813 9
 86  6 19  2 13 41.0800000  0  4G12G13G 9G11
  21676067.300    21676071.012   -22850643.782 9  24038113.923 8
  20702192.288    20702198.157    -2195846.125 9  -4029343.416 9
  20636545.110    20636549.166    25689779.904 8 -57446578.757 7
  23600880.164    23600886.703    51043218.874 9 -33400355.416 7
 86  6 19  2 13 47.0800000  0  4G12G13G 9G11
  21673557.966    21673562.554   -22863827.924 8  24027840.565 8
  20702527.642    20702532.474    -2194087.479 7  -4027973.045 9
  20638927.823    20638931.913    25702299.634 8 -57436823.127 8
  23603922.393    23603928.424    51059206.553 8 -33387897.488 7
 86  6 19  2 13 53.0800000  0  4G12G13G 9G11
  21671052.358    21671056.887   -22876993.369 9  24017581.767 8
  20702864.449    20702869.369    -2192315.499 8  -4026592.284 8
  20641314.539    20641319.234    25714843.153 8 -57427048.955 7
  23606965.021    23606969.929    51075193.614 8 -33375440.043 8
 86  6 19  2 13 59.0800000  0  4G12G13G 9G11
  21668550.947    21668555.492   -22890140.188 8  24007337.503 8
  20703203.586    20703209.591    -2190530.208 8  -4025201.146 8
  20643707.560    20643710.109    25727410.491 8 -57417256.236 7
  23610008.065    23610012.282    51091180.008 8 -33362983.123 8
 86  6 19  2 14  5.0800000  0  4G12G13G 9G11
  21666052.755    21666057.799   -22903268.375 8  23997107.753 8
  20703546.731    20703551.492    -2188731.657 9  -4023799.685 8
  20646102.526    20646106.212    25740001.520 8 -57407445.047 7
  23613048.842    23613054.752    51107165.701 8 -33350526.744 8
 86  6 19  2 14 11.0800000  0  4G12G13G 9G11
  21663557.221    21663563.211   -22916377.858 8  23986892.573 8
  20703891.070    20703896.313    -2186919.800 8  -4022387.854 8
  20648502.341    20648507.638    25752616.298 8 -57397615.350 8
  23616091.818    23616095.060    51123150.763 9 -33338070.852 8
 86  6 19  2 14 17.0800000  0  4G12G13G 9G11
  21661066.769    21661071.169   -22929468.626 9  23976691.969 8
  20704238.936    20704244.222    -2185094.553 8  -4020965.583 9
  20650908.146    20650912.306    25765254.844 8 -57387767.132 7
  23619132.326    23619137.436    51139135.212 9 -33325615.451 6
 86  6 19  2 14 23.0800000  0  4G12G13G 9G11
  21658578.584    21658584.566   -22942540.558 9  23966506.055 8
  20704588.815    20704593.679    -2183255.901 8  -4019532.876 8
  20653317.909    20653322.964    25777917.221 8 -57377900.352 7
  23622173.755    23622179.245    51155119.068 9 -33313160.496 8
 86  6 19  2 14 29.0800000  0  4G12G13G 9G11
  21656095.436    21656100.039   -22955593.530 9  23956334.902 9
  20704942.118    20704946.214    -2181403.847 8  -4018089.717 8
  20655730.961    20655733.723    25790603.540 8 -57368014.919 6
  23625216.026    23625221.850    51171102.410 9 -33300705.945 7
 86  6 19  2 14 35.0800000  0  4G12G13G 9G11
  21653614.056    21653619.848   -22968627.535 9  23946178.535 9
  20705296.899    20705299.967    -2179538.483 8  -4016636.181 8
  20658150.159    20658154.026    25803313.562 8 -57358110.999 7
  23628258.004    23628262.093    51187085.183 8 -33288251.850 8
 86  6 19  2 14 41.0800000  0  4G12G13G 9G11
  21651137.981    21651142.628   -22981642.557 8  23936036.960 7
  20705654.274    20705658.283    -2177659.769 9  -4015172.255 8
  20660572.934    20660576.740    25816047.359 8 -57348188.554 7
  23631299.072    23631303.301    51203067.386 9 -33275798.199 8
 86  6 19  2 14 47.0800000  0  4G12G13G 9G11
  21648664.158    21648670.574   -22994638.640 9  23925910.132 9
  20706013.403    20706018.785    -2175767.843 8  -4013698.030 9
  20663000.015    20663003.657    25828804.915 8 -57338247.626 8
  23634340.771    23634345.089    51219048.891 8 -33263345.069 8
 86  6 19  2 14 53.0800000  0  4G12G13G 9G11
  21646195.091    21646200.420   -23007615.883 8  23915798.008 9
  20706376.586    20706380.980    -2173862.802 8  -4012213.573 7
  20665434.241    20665437.245    25841586.087 9 -57328288.271 8
  23637381.396    23637386.188    51235029.621 8 -33250892.560 8
 86  6 19  2 14 59.0800000  0  4G12G13G 9G11
  21643730.235    21643733.910   -23020574.311 9  23905700.530 8
  20706741.111    20706745.403    -2171944.620 9  -4010718.889 9
  20667870.444    20667873.016    25854390.816 8 -57318310.559 7
  23640421.787    23640426.056    51251009.555 9 -33238440.674 7
 86  6 19  2 15  5.0800000  0  4G12G13G 9G11
  21641266.845    21641272.024   -23033513.849 8  23895617.771 9
  20707108.791    20707113.442    -2170013.295 9  -4009213.962 8
  20670309.538    20670315.593    25867219.095 8 -57308314.503 8
  23643461.378    23643467.131    51266988.681 8 -33225989.397 8
 86  6 19  2 15 11.0800000  0  4G12G13G 9G11
  21638808.903    21638812.643   -23046434.500 9  23885549.730 8
  20707478.700    20707483.724    -2168068.820 8  -4007698.774 8
  20672756.290    20672759.846    25880071.039 8 -57298300.021 8
  23646502.910    23646508.168    51282967.016 8 -33213538.768 8
 86  6 19  2 15 17.0800000  0  4G12G13G 9G11
  21636352.885    21636359.284   -23059336.241 8  23875496.425 8
  20707850.386    20707855.005    -2166111.273 8  -4006173.419 8
  20675206.179    20675210.745    25892946.402 7 -57288267.272 8
  23649543.742    23649548.606    51298944.444 9 -33201088.820 8
 86  6 19  2 15 23.0800000  0  4G12G13G 9G11
  21633901.915    21633907.118   -23072219.026 9  23865457.889 8
  20708226.368    20708230.700    -2164140.603 8  -4004637.827 7
  20677662.003    20677664.875    25905845.283 8 -57278216.187 8
  23652583.663    23652588.755    51314921.140 8 -33188639.447 8
 86  6 19  2 15 29.0800000  0  4G12G13G 9G11
  21631454.197    21631459.548   -23085082.840 9  23855434.142 8
  20708603.425    20708606.913    -2162156.872 9  -4003092.057 7
  20680119.768    20680125.205    25918767.616 8 -57268146.855 8
  23655623.058    23655628.366    51330897.088 8 -33176190.670 7
 86  6 19  2 15 35.0800000  0  4G12G13G 9G11
  21629009.128    21629014.995   -23097927.660 8  23845425.188 8
  20708983.492    20708988.968    -2160160.040 8  -4001536.088 8
  20682583.594    20682588.868    25931713.600 8 -57258059.072 7
  23658663.055    23658669.860    51346872.214 8 -33163742.511 8
 86  6 19  2 15 41.0800000  0  4G12G13G 9G11
  21626568.988    21626573.402   -23110753.427 9  23835431.082 8
  20709366.436    20709370.680    -2158150.147 8  -3999969.932 8
  20685051.901    20685056.771    25944683.050 8 -57247953.021 6
  23661702.861    23661708.091    51362846.536 8 -33151295.005 7
 86  6 19  2 15 47.0800000  0  4G12G13G 9G11
  21624131.703    21624137.000   -23123560.073 8  23825451.881 8
  20709751.804    20709755.161    -2156127.185 8  -3998393.598 9
  20687523.834    20687529.723    25957676.068 8 -57237828.603 7
  23664741.600    23664748.139    51378820.079 9 -33138848.101 7
 86  6 19  2 15 53.0800000  0  4G12G13G 9G11
  21621698.717    21621702.687   -23136347.642 9  23815487.556 8
  20710138.477    20710141.780    -2154091.162 8  -3996807.090 8
  20690001.316    20690005.479    25970692.525 8 -57227685.898 7
  23667782.743    23667786.637    51394792.728 8 -33126401.867 8
 86  6 19  2 15 59.0800000  0  4G12G13G 9G11
  21619268.672    21619273.728   -23149116.075 9  23805538.124 8
  20710528.473    20710532.799    -2152042.169 9  -3995210.455 8
  20692482.767    20692486.555    25983732.503 9 -57217524.881 7
  23670821.014    23670826.738    51410764.575 8 -33113956.284 7
 86  6 19  2 16  5.0800000  0  4G12G13G 9G11
  21616842.846    21616847.574   -23161865.320 9  23795603.646 8
  20710920.693    20710925.640    -2149980.055 8  -3993603.613 8
  20694968.854    20694973.129    25996795.918 8 -57207345.604 8
  23673861.966    23673867.252    51426735.585 9 -33101511.351 8
 86  6 19  2 16 11.0800000  0  4G12G13G 9G11
  21614420.737    21614425.442   -23174595.346 8  23785684.147 9
  20711315.860    20711320.240    -2147904.903 8  -3991986.620 8
  20697459.496    20697461.915    26009882.762 8 -57197148.067 8
  23676899.796    23676904.771    51442705.782 8 -33089067.047 8
 86  6 19  2 16 17.0800000  0  4G12G13G 9G11
  21612001.761    21612006.798   -23187306.190 9  23775779.597 8
  20711714.164    20711718.457    -2145816.753 9  -3990359.488 8
  20699953.997    20699958.432    26022993.154 8 -57186932.192 8
  23679939.185    23679945.056    51458675.197 8 -33076623.355 8
 86  6 19  2 16 23.0800000  0  4G12G13G 9G11
  21609586.833    21609591.482   -23199997.781 8  23765890.039 7
  20712113.553    20712117.750    -2143715.611 8  -3988722.233 8
  20702453.131    20702457.594    26036126.940 8 -57176698.070 8
  23682976.110    23682982.452    51474643.818 8 -33064180.269 8
 86  6 19  2 16 29.0800000  0  4G12G13G 9G11
  21607175.094    21607180.451   -23212670.095 9  23756015.516 8
  20712515.606    20712519.125    -2141601.472 7  -3987074.842 8
  20704957.281    20704962.218    26049284.242 7 -57166445.629 7
  23686016.321    23686020.624    51490611.654 8 -33051737.802 8
 86  6 19  2 16 35.0800000  0  4G12G13G 9G11
  21604767.647    21604771.344   -23225323.075 9  23746156.048 8
  20712920.859    20712923.836    -2139474.298 8  -3985417.305 9
  20707465.865    20707468.068    26062464.875 8 -57156175.021 8
  23689054.654    23689059.358    51506578.648 8 -33039295.993 8
 86  6 19  2 16 41.0800000  0  4G12G13G 9G11
  21602363.519    21602368.109   -23237956.743 9  23736311.634 8
  20713328.168    20713331.917    -2137334.158 9  -3983749.670 7
  20709977.959    20709982.766    26075669.043 8 -57145886.051 9
  23692092.629    23692098.815    51522544.762 8 -33026854.886 8
 86  6 19  2 16 47.0800000  0  4G12G13G 9G11
  21599962.717    21599967.616   -23250571.091 9  23726482.263 8
  20713737.875    20713740.786    -2135180.930 9  -3982071.823 8
  20712493.904    20712499.615    26088896.539 9 -57135578.909 7
  23695131.569    23695134.948    51538509.937 8 -33014414.490 8
 86  6 19  2 16 53.0800000  0  4G12G13G 9G11
  21597566.535    21597569.984   -23263166.140 9  23716667.946 8
  20714150.202    20714154.314    -2133014.764 8  -3980383.904 8
  20715016.691    20715020.370    26102147.409 8 -57125253.566 7
  23698168.512    23698173.561    51554474.188 7 -33001974.816 8
 86  6 19  2 16 59.0800000  0  4G12G13G 9G11
  21595174.038    21595178.099   -23275741.898 8  23706868.662 7
  20714564.838    20714568.258    -2130835.774 9  -3978685.985 8
  20717541.888    20717545.719    26115421.536 8 -57114910.098 7
  23701205.896    23701211.819    51570437.465 7 -32989535.905 8
 86  6 19  2 17  5.0800000  0  4G12G13G 9G11
  21592784.209    21592788.635   -23288298.337 9  23697084.417 9
  20714981.471    20714985.262    -2128643.950 9  -3976978.072 9
  20720072.379    20720076.460    26128718.940 8 -57104548.479 8
  23704244.044    23704249.239    51586399.740 7 -32977097.772 8
 86  6 19  2 17 11.0800000  0  4G12G13G 9G11
  21590399.118    21590401.649   -23300835.428 9  23687315.252 8
  20715401.745    20715405.051    -2126439.335 9  -3975260.181 8
  20722606.656    20722612.631    26142039.483 7 -57094168.842 8
  23707280.655    23707288.028    51602361.072 7 -32964660.369 7
 86  6 19  2 17 17.0800000  0  4G12G13G 9G11
  21588016.627    21588020.639   -23313353.274 9  23677561.091 8
  20715823.990    20715826.291    -2124222.004 8  -3973532.392 8
  20725146.971    20725151.118    26155383.089 8 -57083771.228 8
  23710318.487    23710323.265    51618321.442 8 -32952223.729 8
 86  6 19  2 17 23.0800000  0  4G12G13G 9G11
  21585637.752    21585641.498   -23325851.799 9  23667821.983 8
  20716247.491    20716251.136    -2121991.894 8  -3971794.650 8
  20727690.573    20727694.348    26168750.035 8 -57073355.449 8
  23713356.861    23713360.982    51634280.748 8 -32939787.911 8
 86  6 19  2 17 29.0800000  0  4G12G13G 9G11
  21583262.953    21583267.312   -23338330.858 9  23658098.051 9
  20716675.606    20716677.721    -2119748.999 9  -3970046.936 7
  20730239.392    20730241.997    26182140.082 7 -57062921.640 8
  23716392.524    23716397.988    51650239.085 7 -32927352.864 7
 86  6 19  2 17 35.0800000  0  4G12G13G 9G11
  21580892.253    21580896.306   -23350790.376 9  23648389.331 8
  20717104.590    20717107.147    -2117493.207 9  -3968289.184 7
  20732791.073    20732795.718    26195553.429 8 -57052469.693 8
  23719427.612    23719434.706    51666196.429 7 -32914918.579 9
 86  6 19  2 17 41.0800000  0  4G12G13G 9G11
  21578525.730    21578529.664   -23363230.345 9  23638695.845 8
  20717534.979    20717538.662    -2115224.629 8  -3966521.462 8
  20735346.923    20735352.403    26208990.053 8 -57041999.589 7
  23722464.377    23722471.426    51682152.753 8 -32902485.083 8
 86  6 19  2 17 47.0800000  0  4G12G13G 9G11
  21576162.045    21576165.390   -23375650.753 9  23629017.607 8
  20717970.042    20717972.479    -2112943.261 9  -3964743.770 8
  20737908.809    20737913.284    26222449.932 7 -57031511.388 7
  23725501.025    23725507.298    51698108.103 7 -32890052.345 8
 86  6 19  2 17 53.0800000  0  4G12G13G 9G11
  21573801.889    21573805.582   -23388051.580 9  23619354.631 8
  20718406.578    20718410.879    -2110649.044 8  -3962956.067 9
  20740475.315    20740478.200    26235932.926 7 -57021005.154 7
  23728537.192    23728542.437    51714062.463 7 -32877620.382 7
 86  6 19  2 17 59.0800000  0  4G12G13G 9G11
  21571446.200    21571449.531   -23400432.805 9  23609706.929 8
  20718844.337    20718849.262    -2108342.067 9  -3961158.419 8
  20743044.584    20743049.424    26249439.169 8 -57010480.819 8
  23731574.687    23731579.841    51730015.878 8 -32865189.162 8
 86  6 19  2 18  5.0800000  0  4G12G13G 9G11
  21569092.928    21569097.870   -23412794.449 9  23600074.469 9
  20719286.590    20719290.895    -2106022.358 8  -3959350.855 7
  20745619.755    20745622.701    26262968.504 8 -56999938.480 8
  23734610.171    23734614.493    51745968.324 7 -32852758.694 8
 86  6 19  2 18 11.0800000  0  4G12G13G 9G11
  21566744.343    21566749.455   -23425136.506 9  23590457.290 9
  20719732.073    20719735.059    -2103689.894 8  -3957533.356 8
  20748196.759    20748201.554    26276521.031 8 -56989378.074 7
  23737645.092    23737650.484    51761919.774 8 -32840328.990 8
 86  6 19  2 18 17.0800000  0  4G12G13G 9G11
  21564399.055    21564404.446   -23437458.880 9  23580855.435 8
  20720176.160    20720181.761    -2101344.669 8  -3955705.906 8
  20750780.583    20750785.756    26290096.693 8 -56978799.641 7
  23740680.667    23740685.391    51777870.261 7 -32827900.055 8
 86  6 19  2 18 23.0800000  0  4G12G13G 9G11
  21562058.221    21562061.937   -23449761.601 9  23571268.916 8
  20720625.933    20720628.922    -2098986.621 8  -3953868.467 9
  20753369.696    20753373.527    26303695.553 8 -56968203.130 8
  23743715.054    23743720.079    51793819.718 7 -32815471.913 8
 86  6 19  2 18 29.0800000  0  4G12G13G 9G11
  21559721.622    21559725.444   -23462044.492 9  23561697.824 9
  20721076.539    20721081.818    -2096615.855 8  -3952021.125 9
  20755961.385    20755964.977    26317317.437 8 -56957588.663 7
  23746750.695    23746755.564    51809768.195 7 -32803044.538 8
 86  6 19  2 18 35.0800000  0  4G12G13G 9G11
  21557387.726    21557391.666   -23474307.713 9  23552142.078 7
  20721530.802    20721535.239    -2094232.350 9  -3950163.856 8
  20758557.454    20758562.186    26330962.476 8 -56946956.179 7
  23749783.693    23749789.633    51825715.578 7 -32790618.003 9
 86  6 19  2 18 41.0800000  0  4G12G13G 9G11
  21555057.399    21555061.674   -23486551.220 9  23542601.679 8
  20721985.920    20721989.648    -2091836.113 9  -3948296.656 8
  20761159.465    20761161.877    26344630.625 8 -56936305.671 7
  23752819.168    23752825.219    51841661.886 7 -32778192.319 8
 86  6 19  2 18 47.0800000  0  4G12G13G 9G11
  21552731.892    21552736.144   -23498775.029 9  23533076.633 8
  20722445.106    20722448.169    -2089427.206 8  -3946419.576 8
  20763763.870    20763769.789    26358321.834 8 -56925637.206 7
  23755853.463    23755857.805    51857607.122 7 -32765767.465 8
 86  6 19  2 18 53.0800000  0  4G12G13G 9G11
  21550409.778    21550414.266   -23510979.023 9  23523567.022 8
  20722905.080    20722909.960    -2087005.723 9  -3944532.715 8
  20766373.997    20766378.347    26372035.943 7 -56914950.899 7
  23758887.224    23758893.159    51873551.260 8 -32753343.477 8
 86  6 19  2 18 59.0800000  0  4G12G13G 9G11
  21548090.573    21548094.861   -23523163.257 9  23514072.819 8
  20723368.755    20723372.834    -2084571.601 8  -3942635.992 8
  20768988.822    20768992.862    26385772.993 8 -56904246.704 7
  23761920.902    23761927.142    51889494.296 7 -32740920.338 9
 86  6 19  2 19  5.0800000  0  4G12G13G 9G11
  21545775.426    21545779.995   -23535327.705 9  23504594.031 8
  20723833.234    20723838.403    -2082124.893 9  -3940729.466 8
  20771607.535    20771610.631    26399533.030 8 -56893524.592 8
  23764954.074    23764961.172    51905436.184 7 -32728498.095 9
 86  6 19  2 19 11.0800000  0  4G12G13G 9G11
  21543464.263    21543468.767   -23547472.258 9  23495130.739 7
  20724302.420    20724305.650    -2079665.720 8  -3938813.220 9
  20774228.947    20774232.947    26413315.978 8 -56882784.642 8
  23767988.957    23767993.631    51921376.976 7 -32716076.703 9
 86  6 19  2 19 17.0800000  0  4G12G13G 9G11
  21541157.907    21541160.996   -23559596.966 9  23485682.915 9
  20724771.719    20724776.820    -2077193.907 9  -3936887.140 8
  20776857.292    20776862.156    26427121.965 8 -56872026.727 7
  23771020.807    23771027.617    51937316.635 8 -32703656.202 8
 86  6 19  2 19 23.0800000  0  4G12G13G 9G11
  21538853.727    21538857.788   -23571701.870 9  23476250.531 8
  20725245.278    20725248.850    -2074709.544 8  -3934951.278 9
  20779488.609    20779492.790    26440950.816 8 -56861251.013 7
  23774054.565    23774060.122    51953255.185 7 -32691236.564 8
 86  6 19  2 19 29.0800000  0  4G12G13G 9G11
  21536553.628    21536558.894   -23583786.853 8  23466833.664 8
  20725720.299    20725724.787    -2072212.636 8  -3933005.631 8
  20782125.214    20782128.893    26454802.623 8 -56850457.393 8
  23777089.239    23777092.841    51969192.647 8 -32678817.763 9
 86  6 19  2 19 35.0800000  0  4G12G13G 9G11
  21534257.701    21534262.438   -23595851.831 9  23457432.376 8
  20726198.553    20726202.512    -2069703.127 9  -3931050.169 9
  20784765.023    20784768.083    26468677.373 9 -56839645.898 7
  23780119.792    23780125.888    51985129.017 7 -32666399.824 9
 86  6 19  2 19 41.0800000  0  4G12G13G 9G11
  21531966.131    21531970.677   -23607896.816 9  23448046.669 8
  20726678.971    20726682.978    -2067181.069 9  -3929084.936 7
  20787409.902    20787411.135    26482574.957 7 -56828816.619 7
  23783152.294    23783158.565    52001064.250 7 -32653982.762 9
 86  6 19  2 19 47.0800000  0  4G12G13G 9G11
  21529677.324    21529683.042   -23619921.889 8  23438676.482 8
  20727159.880    20727165.302    -2064646.525 9  -3927109.961 7
  20790057.617    20790062.972    26496495.469 8 -56817969.479 7
  23786184.583    23786190.581    52016998.290 8 -32641566.642 8
 86  6 19  2 19 53.0800000  0  4G12G13G 9G11
  21527392.133    21527397.697   -23631927.111 9  23429321.768 9
  20727644.415    20727649.492    -2062099.461 8  -3925125.237 8
  20792711.653    20792714.517    26510438.720 8 -56807104.599 7
  23789215.156    23789222.642    52032931.058 8 -32629151.495 9
 86  6 19  2 19 59.0800000  0  4G12G13G 9G11
  21525113.173    21525117.486   -23643912.407 9  23419982.580 8
  20728131.907    20728135.974    -2059539.997 8  -3923130.851 7
  20795369.794    20795372.890    26524404.782 8 -56796221.952 7
  23792247.959    23792253.914    52048862.549 7 -32616737.365 8
 86  6 19  2 20  5.0800000  0  4G12G13G 9G11
  21522835.974    21522839.350   -23655877.790 8  23410658.901 8
  20728621.399    20728626.099    -2056968.182 8  -3921126.842 8
  20798030.977    20798034.520    26538393.516 8 -56785321.650 8
  23795279.131    23795285.504    52064792.772 8 -32604324.212 8
 86  6 19  2 20 11.0800000  0  4G12G13G 9G11
  21520562.369    21520567.183   -23667823.240 9  23401350.753 8
  20729112.207    20729118.224    -2054383.947 9  -3919113.150 9
  20800697.410    20800702.415    26552404.962 7 -56774403.653 8
  23798310.595    23798315.876    52080721.749 7 -32591912.026 8
 86  6 19  2 20 17.0800000  0  4G12G13G 9G11
  21518292.295    21518296.961   -23679748.617 9  23392058.260 8
  20729606.679    20729611.293    -2051787.325 8  -3917089.804 8
  20803367.400    20803371.585    26566439.170 8 -56763467.905 7
  23801341.663    23801347.364    52096649.477 7 -32579500.810 7
 86  6 19  2 20 23.0800000  0  4G12G13G 9G11
  21516027.866    21516031.873   -23691653.880 9  23382781.432 8
  20730102.836    20730107.587    -2049178.208 8  -3915056.720 8
  20806042.135    20806047.373    26580496.154 8 -56752514.402 7
  23804372.331    23804377.008    52112576.013 7 -32567090.549 8
 86  6 19  2 20 29.0800000  0  4G12G13G 9G11
  21513765.354    21513770.574   -23703539.010 9  23373520.287 8
  20730601.477    20730607.035    -2046556.716 9  -3913014.000 8
  20808723.023    20808726.047    26594575.946 7 -56741543.152 7
  23807402.424    23807409.287    52128501.317 9 -32554681.219 8
 86  6 19  2 20 35.0800000  0  4G12G13G 9G11
  21511507.959    21511512.236   -23715404.039 9  23364274.827 8
  20731102.660    20731107.570    -2043922.871 8  -3910961.650 8
  20811407.018    20811409.597    26608678.444 8 -56730554.190 7
  23810432.978    23810438.053    52144425.404 8 -32542272.843 8
 86  6 19  2 20 41.0800000  0  4G12G13G 9G11
  21509253.364    21509258.163   -23727248.939 9  23355045.031 8
  20731605.838    20731612.517    -2041276.724 8  -3908899.731 8
  20814094.028    20814098.212    26622803.627 7 -56719547.566 7
  23813462.730    23813467.262    52160348.246 7 -32529865.450 8
 86  6 19  2 20 47.0800000  0  4G12G13G 9G11
  21507004.371    21507008.226   -23739073.677 9  23345830.932 8
  20732113.338    20732118.241    -2038618.301 8  -3906828.222 8
  20816786.408    20816790.000    26636951.368 8 -56708523.351 8
  23816493.492    23816499.690    52176269.784 8 -32517459.062 9
 86  6 19  2 20 53.0800000  0  4G12G13G 9G11
  21504757.909    21504761.885   -23750878.247 9  23336632.572 8
  20732619.890    20732625.321    -2035947.576 9  -3904747.134 9
  20819482.865    20819486.155    26651121.814 8 -56697481.441 8
  23819523.195    23819528.075    52192189.958 8 -32505053.725 9
 86  6 19  2 20 59.0800000  0  4G12G13G 9G11
  21502515.041    21502519.765   -23762662.738 9  23327449.863 8
  20733131.268    20733135.903    -2033264.557 8  -3902656.466 8
  20822183.377    20822188.225    26665314.753 8 -56686422.012 8
  23822550.754    23822556.987    52208108.813 9 -32492649.412 9
 86  6 19  2 21  5.0800000  0  4G12G13G 9G11
  21500276.001    21500280.713   -23774427.032 9  23318282.864 8
  20733643.814    20733649.122    -2030569.153 8  -3900556.155 9
  20824888.878    20824892.658    26679530.406 8 -56675344.892 8
  23825580.879    23825587.547    52224026.381 8 -32480246.135 9
 86  6 19  2 21 11.0800000  0  4G12G13G 9G11
  21498041.945    21498044.750   -23786171.060 8  23309131.683 8
  20734159.362    20734163.849    -2027861.318 8  -3898446.143 8
  20827598.526    20827601.856    26693768.697 7 -56664250.132 8
  23828609.105    23828615.007    52239942.618 8 -32467843.863 9
 86  6 19  2 21 17.0800000  0  4G12G13G 9G11
  21495810.504    21495814.876   -23797894.778 9  23299996.324 8
  20734677.199    20734682.019    -2025141.130 9  -3896326.519 8
  20830311.955    20830316.716    26708029.580 7 -56653137.753 7
  23831638.177    23831642.655    52255857.612 8 -32455442.570 8
 86  6 19  2 21 23.0800000  0  4G12G13G 9G11
  21493583.248    21493588.528   -23809598.092 9  23290876.849 7
  20735196.864    20735200.836    -2022408.565 8  -3894197.241 8
  20833029.084    20833034.367    26722313.083 8 -56642007.753 7
  23834667.704    23834672.988    52271771.346 7 -32443042.269 9
 86  6 19  2 21 29.0800000  0  4G12G13G 9G11
  21491360.126    21491364.017   -23821281.016 9  23281773.269 8
  20735719.045    20735724.610    -2019663.660 9  -3892058.356 8
  20835752.328    20835756.372    26736619.259 8 -56630860.097 7
  23837694.074    23837699.151    52287683.849 8 -32430642.917 9
 86  6 19  2 21 35.0800000  0  4G12G13G 9G11
  21489140.645    21489145.617   -23832943.613 9  23272685.530 8
  20736243.050    20736249.104    -2016906.497 8  -3889909.902 8
  20838479.681    20838482.916    26750948.032 7 -56619694.820 8
  23840721.290    23840726.896    52303595.099 8 -32418244.557 9
 86  6 19  2 21 41.0800000  0  4G12G13G 9G11
  21486925.405    21486930.219   -23844585.868 9  23263613.646 9
  20736771.344    20736775.332    -2014137.141 9  -3887751.970 8
  20841209.911    20841213.958    26765299.395 7 -56608511.954 8
  23843749.699    23843754.752    52319505.009 8 -32405847.218 8
 86  6 19  2 21 47.0800000  0  4G12G13G 9G11
  21484713.159    21484718.533   -23856207.833 9  23254557.578 8
  20737300.526    20737304.698    -2011355.601 8  -3885584.539 9
  20843945.592    20843950.421    26779673.196 7 -56597311.591 8
  23846776.843    23846782.289    52335413.536 8 -32393450.977 9
 86  6 19  2 21 53.0800000  0  4G12G13G 9G11
  21482507.524    21482510.579   -23867809.349 9  23245517.438 8
  20737831.743    20737836.369    -2008561.973 9  -3883407.673 8
  20846684.281    20846689.629    26794069.552 8 -56586093.652 8
  23849804.958    23849810.187    52351320.681 8 -32381055.799 9
 86  6 19  2 21 59.0800000  0  4G12G13G 9G11
  21480302.236    21480307.364   -23879390.476 8  23236493.183 8
  20738366.815    20738369.122    -2005756.206 9  -3881221.362 7
  20849428.904    20849433.381    26808488.169 7 -56574858.371 8
  23852831.446    23852836.905    52367226.429 8 -32368661.713 8
 86  6 19  2 22  5.0800000  0  4G12G13G 9G11
  21478102.970    21478107.123   -23890951.192 8  23227484.829 8
  20738902.103    20738907.262    -2002938.253 9  -3879025.550 8
  20852176.448    20852179.624    26822929.311 7 -56563605.549 8
  23855856.237    23855863.664    52383130.738 8 -32356268.754 9
 86  6 19  2 22 11.0800000  0  4G12G13G 9G11
  21475907.884    21475909.863   -23902491.472 8  23218492.400 8
  20739441.550    20739445.220    -2000108.086 8  -3876820.233 9
  20854929.901    20854932.836    26837392.793 7 -56552335.300 7
  23858884.331    23858888.960    52399033.652 8 -32343876.883 8
 86  6 19  2 22 17.0800000  0  4G12G13G 9G11
  21473714.697    21473718.897   -23914011.295 9  23209515.915 9
  20739981.121    20739986.214    -1997265.794 8  -3874605.455 8
  20857684.630    20857688.993    26851878.671 8 -56541047.622 8
  23861908.529    23861915.445    52414935.187 8 -32331486.077 8
 86  6 19  2 22 23.0800000  0  4G12G13G 9G11
  21471526.558    21471531.217   -23925510.663 9  23200555.379 8
  20740525.262    20740529.048    -1994411.377 9  -3872381.233 8
  20860446.209    20860450.885    26866386.985 9 -56529742.449 7
  23864934.742    23864940.705    52430835.328 9 -32319096.373 9
 86  6 19  2 22 29.0800000  0  4G12G13G 9G11
  21469341.487    21469345.709   -23936989.512 9  23191610.819 8
  20741071.438    20741074.487    -1991544.891 8  -3870147.609 7
  20863211.650    20863215.529    26880917.614 7 -56518419.872 7
  23867961.138    23867965.509    52446734.026 8 -32306707.774 9
 86  6 19  2 22 35.0800000  0  4G12G13G 9G11
  21467162.054    21467165.492   -23948447.856 9  23182682.238 8
  20741618.321    20741622.786    -1988666.335 9  -3867904.583 8
  20865981.210    20865985.951    26895470.561 8 -56507079.923 7
  23870985.222    23870991.043    52462631.286 8 -32294320.299 9
 86  6 19  2 22 41.0800000  0  4G12G13G 9G11
  21464984.866    21464989.557   -23959885.641 9  23173769.693 8
  20742167.986    20742172.061    -1985775.673 8  -3865652.118 9
  20868754.626    20868759.309    26910045.842 7 -56495722.563 6
  23874010.072    23874016.833    52478527.085 8 -32281933.978 8
 86  6 19  2 22 47.0800000  0  4G12G13G 9G11
  21462812.090    21462817.624   -23971302.891 9  23164873.123 8
  20742720.553    20742725.734    -1982872.927 8  -3863390.237 8
  20871531.729    20871536.410    26924643.417 8 -56484347.847 8
  23877034.912    23877041.843    52494421.492 7 -32269548.731 9
 86  6 19  2 22 53.0800000  0  4G12G13G 9G11
  21460643.733    21460648.099   -23982699.499 9  23155992.658 8
  20743275.447    20743279.937    -1979957.984 8  -3861118.863 7
  20874314.597    20874317.717    26939263.387 8 -56472955.661 7
  23880058.956    23880065.615    52510314.523 8 -32257164.555 8
 86  6 19  2 22 59.0800000  0  4G12G13G 9G11
  21458478.849    21458484.548   -23994075.361 9  23147128.343 8
  20743832.542    20743836.450    -1977030.950 8  -3858838.058 8
  20877101.851    20877105.409    26953905.784 8 -56461546.007 7
  23883082.928    23883089.514    52526206.193 9 -32244781.442 9
 86  6 19  2 23  5.0800000  0  4G12G13G 9G11
  21456318.671    21456322.257   -24005430.482 9  23138280.213 8
  20744392.541    20744396.253    -1974091.796 9  -3856547.801 8
  20879891.691    20879895.455    26968570.663 8 -56450118.828 7
  23886106.786    23886113.595    52542096.562 8 -32232399.336 8
 86  6 19  2 23 11.0800000  0  4G12G13G 9G11
  21454161.560    21454165.599   -24016764.888 9  23129448.208 8
  20744954.504    20744957.803    -1971140.571 9  -3854248.148 8
  20882686.834    20882690.382    26983257.865 8 -56438674.265 7
  23889130.584    23889136.589    52557985.539 8 -32220018.328 8
 86  6 19  2 23 17.0800000  0  4G12G13G 9G11
  21452009.653    21452012.566   -24028078.443 9  23120632.442 8
  20745518.776    20745521.678    -1968177.302 9  -3851939.104 7
  20885486.177    20885489.092    26997967.339 9 -56427212.329 7
  23892154.576    23892160.379    52573873.129 9 -32207638.397 8
 86  6 19  2 23 23.0800000  0  4G12G13G 9G11
  21449859.576    21449862.993   -24039371.318 9  23111832.800 9
  20746084.304    20746087.805    -1965202.024 9  -3849620.705 8
  20888288.931    20888293.953    27012698.998 7 -56415733.140 8
  23895177.861    23895183.500    52589759.227 8 -32195259.616 8
 86  6 19  2 23 29.0800000  0  4G12G13G 9G11
  21447715.063    21447718.461   -24050643.517 9  23103049.273 8
  20746653.858    20746655.766    -1962214.812 9  -3847293.001 9
  20891096.455    20891100.055    27027452.815 8 -56404236.667 7
  23898200.237    23898205.724    52605643.785 8 -32182882.045 9
 86  6 19  2 23 35.0800000  0  4G12G13G 9G11
  21445574.517    21445579.426   -24061895.048 9  23094281.835 8
  20747224.009    20747226.214    -1959215.725 9  -3844956.052 8
  20893908.818    20893910.903    27042228.718 8 -56392722.966 7
  23901222.301    23901227.958    52621526.790 9 -32170505.687 9
 86  6 19  2 23 41.0800000  0  4G12G13G 9G11
  21443435.832    21443440.396   -24073125.918 9  23085530.516 9
  20747796.393    20747799.191    -1956204.804 9  -3842609.878 8
  20896723.959    20896727.356    27057026.701 9 -56381192.062 7
  23904244.337    23904249.903    52637408.138 9 -32158130.613 8
 86  6 19  2 23 47.0800000  0  4G12G13G 9G11
  21441303.041    21441307.428   -24084336.114 9  23076795.301 8
  20748372.023    20748374.155    -1953181.998 8  -3840254.443 8
  20899544.767    20899548.665    27071846.753 7 -56369643.980 7
  23907266.514    23907271.916    52653287.922 9 -32145756.767 9
 86  6 19  2 23 53.0800000  0  4G12G13G 9G11
  21439173.959    21439177.760   -24095525.653 9  23068076.180 8
  20748948.556    20748951.711    -1950147.371 9  -3837889.803 8
  20902368.678    20902370.905    27086688.792 8 -56358078.758 8
  23910288.272    23910294.767    52669166.046 9 -32133384.206 9
 86  6 19  2 23 59.0800000  0  4G12G13G 9G11
  21437048.517    21437052.836   -24106694.423 9  23059373.250 8
  20749529.010    20749532.366    -1947100.918 8  -3835515.951 8
  20905197.945    20905202.063    27101552.873 7 -56346496.369 8
  23913310.697    23913315.562    52685042.642 8 -32121012.840 8
 86  6 19  2 24  5.0800000  0  4G12G13G 9G11
  21434926.557    21434931.507   -24117842.340 9  23050686.563 8
  20750110.119    20750115.071    -1944042.564 9  -3833132.818 8
  20908030.731    20908033.352    27116439.127 8 -56334896.687 8
  23916330.375    23916336.095    52700917.719 8 -32108642.648 8
 86  6 19  2 24 11.0800000  0  4G12G13G 9G11
  21432809.506    21432814.548   -24128969.395 9  23042016.127 8
  20750695.340    20750698.254    -1940972.260 9  -3830740.379 9
  20910865.558    20910871.697    27131347.497 7 -56323279.792 7
  23919351.187    23919355.977    52716791.291 9 -32096273.637 8
 86  6 19  2 24 17.0800000  0  4G12G13G 9G11
  21430695.706    21430699.360   -24140075.504 9  23033362.015 8
  20751281.593    20751284.110    -1937890.029 9  -3828338.634 8
  20913707.543    20913712.869    27146277.929 8 -56311645.688 7
  23922372.011    23922377.459    52732663.351 9 -32083905.807 7
 86  6 19  2 24 23.0800000  0  4G12G13G 9G11
  21428587.031    21428591.516   -24151160.623 9  23024724.259 7
  20751870.554    20751874.392    -1934795.900 9  -3825927.638 8
  20916553.079    20916556.226    27161230.422 8 -56299994.405 8
  23925390.906    23925395.999    52748533.865 9 -32071539.171 8
 86  6 19  2 24 29.0800000  0  4G12G13G 9G11
  21426481.267    21426485.723   -24162224.832 9  23016102.797 8
  20752460.792    20752464.163    -1931690.022 8  -3823507.466 8
  20919402.193    20919406.556    27176204.972 8 -56288325.915 8
  23928410.615    23928416.253    52764402.844 9 -32059173.737 8
 86  6 19  2 24 35.0800000  0  4G12G13G 9G11
  21424379.022    21424382.846   -24173268.178 8  23007497.598 8
  20753054.369    20753058.201    -1928572.412 8  -3821078.161 9
  20922256.464    20922260.368    27191201.352 8 -56276640.422 8
  23931430.998    23931436.226    52780270.223 9 -32046809.547 8
 86  6 19  2 24 41.0800000  0  4G12G13G 9G11
  21422282.331    21422287.806   -24184290.618 9  22998908.679 8
  20753649.641    20753653.199    -1925443.063 9  -3818639.714 8
  20925114.022    20925119.428    27206219.735 8 -56264937.800 8
  23934449.991    23934455.216    52796135.974 8 -32034446.628 8
 86  6 19  2 24 47.0800000  0  4G12G13G 9G11
  21420189.109    21420193.359   -24195291.976 9  22990336.196 8
  20754247.174    20754250.943    -1922301.809 8  -3816191.985 8
  20927977.329    20927981.395    27221260.059 7 -56253218.079 7
  23937469.270    23937475.530    52812000.106 9 -32022084.964 8
 86  6 19  2 24 53.0800000  0  4G12G13G 9G11
  21418099.944    21418103.643   -24206272.359 9  22981780.048 9
  20754847.295    20754851.165    -1919148.813 8  -3813735.087 7
  20930841.952    20930846.767    27236322.283 7 -56241481.276 7
  23940486.866    23940493.841    52827862.655 8 -32009724.539 8
 86  6 19  2 24 59.0800000  0  4G12G13G 9G11
  21416013.653    21416017.499   -24217231.772 9  22973240.254 9
  20755450.387    20755453.351    -1915984.065 9  -3811269.061 8
  20933713.840    20933716.958    27251406.483 7 -56229727.371 7
  23943505.973    23943511.262    52843723.617 9 -31997365.350 7
 86  6 19  2 25  5.0800000  0  4G12G13G 9G11
  21413933.143    21413936.804   -24228170.134 9  22964716.847 8
  20756054.041    20756056.829    -1912807.580 9  -3808793.880 7
  20936588.761    20936591.990    27266512.644 8 -56217956.328 8
  23946524.086    23946527.837    52859582.965 7 -31985007.417 7
 86  6 19  2 25 11.0800000  0  4G12G13G 9G11
  21411854.926    21411860.227   -24239087.478 9  22956209.825 8
  20756660.359    20756665.234    -1909619.351 8  -3806309.546 8
  20939467.484    20939470.674    27281640.554 8 -56206168.363 7
  23949541.953    23949545.979    52875440.673 8 -31972650.772 8
 86  6 19  2 25 17.0800000  0  4G12G13G 9G11
  21409780.513    21409785.350   -24249983.735 9  22947719.230 9
  20757269.603    20757273.602    -1906419.462 9  -3803816.126 8
  20942350.182    20942353.349    27296790.320 8 -56194363.366 7
  23952558.290    23952564.144    52891296.748 8 -31960295.401 7
 86  6 19  2 25 23.0800000  0  4G12G13G 9G11
  21407711.632    21407715.510   -24260858.958 8  22939245.037 8
  20757879.976    20757883.826    -1903207.901 9  -3801313.614 8
  20945236.031    20945240.494    27311961.868 8 -56182541.378 7
  23955575.846    23955580.715    52907151.080 8 -31947941.369 8
 86  6 19  2 25 29.0800000  0  4G12G13G 9G11
  21405646.140    21405650.243   -24271713.100 9  22930787.259 9
  20758493.379    20758498.836    -1899984.779 9  -3798802.089 8
  20948127.588    20948131.527    27327155.291 7 -56170702.349 8
  23958592.031    23958598.057    52923003.721 9 -31935588.685 7
 86  6 19  2 25 35.0800000  0  4G12G13G 9G11
  21403584.861    21403588.787   -24282546.177 9  22922345.894 8
  20759109.295    20759112.609    -1896750.101 8  -3796281.562 8
  20951022.489    20951027.818    27342370.392 7 -56158846.430 7
  23961608.313    23961614.500    52938854.609 9 -31923237.319 8
 86  6 19  2 25 41.0800000  0  4G12G13G 9G11
  21401527.292    21401531.905   -24293358.164 8  22913920.982 8
  20759727.821    20759731.180    -1893503.710 9  -3793751.913 8
  20953923.072    20953926.481    27357607.245 8 -56146973.560 7
  23964624.250    23964630.547    52954703.859 9 -31910887.263 8
 86  6 19  2 25 47.0800000  0  4G12G13G 9G11
  21399474.370    21399478.719   -24304148.900 8  22905512.611 7
  20760347.374    20760351.711    -1890245.659 8  -3791213.171 8
  20956826.428    20956829.644    27372865.839 8 -56135083.766 7
  23967639.332    23967645.577    52970551.476 9 -31898538.478 7
 86  6 19  2 25 53.0800000  0  4G12G13G 9G11
  21397425.310    21397429.202   -24314918.482 8  22897120.733 8
  20760969.579    20760973.420    -1886976.000 8  -3788665.380 8
  20959734.604    20959737.615    27388146.289 7 -56123176.926 9
  23970656.100    23970660.467    52986397.437 8 -31886190.977 7
 86  6 19  2 25 59.0800000  0  4G12G13G 9G11
  21395379.038    21395383.831   -24325666.753 9  22888745.449 8
  20761594.093    20761597.708    -1883694.768 9  -3786108.569 8
  20962644.456    20962649.700    27403448.489 7 -56111253.138 8
  23973670.265    23973675.746    53002241.779 8 -31873844.731 8
 86  6 19  2 26  5.0800000  0  4G12G13G 9G11
  21393337.599    21393342.378   -24336393.706 9  22880386.789 8
  20762220.212    20762224.444    -1880401.915 8  -3783542.704 8
  20965562.339    20965566.938    27418772.491 8 -56099312.372 7
  23976684.638    23976690.631    53018084.480 8 -31861499.778 7
 86  6 19  2 26 11.0800000  0  4G12G13G 9G11
  21391300.645    21391305.639   -24347099.395 9  22872044.690 7
  20762849.346    20762853.017    -1877097.345 7  -3780967.720 7
  20968482.897    20968486.532    27434118.067 8 -56087354.769 7
  23979699.491    23979704.605    53033925.548 8 -31849156.097 7
 86  6 19  2 26 17.0800000  0  4G12G13G 9G11
  21389266.861    21389271.875   -24357783.717 8  22863719.240 8
  20763479.685    20763483.513    -1873781.133 8  -3778383.674 8
  20971406.470    20971412.375    27449485.514 8 -56075380.161 7
  23982713.848    23982719.398    53049764.976 8 -31836813.674 7
 86  6 19  2 26 23.0800000  0  4G12G13G 9G11
  21387237.349    21387243.576   -24368446.644 9  22855410.467 8
  20764113.665    20764117.788    -1870453.292 9  -3775790.542 9
  20974334.850    20974338.501    27464874.663 8 -56063388.614 7
  23985729.097    23985732.206    53065602.793 8 -31824472.517 7
 86  6 19  2 26 29.0800000  0  4G12G13G 9G11
  21385212.307    21385219.052   -24379088.195 9  22847118.346 8
  20764749.289    20764753.284    -1867113.833 8  -3773188.370 8
  20977267.953    20977272.563    27480285.500 7 -56051380.169 8
  23988740.479    23988745.998    53081438.919 8 -31812132.675 7
 86  6 19  2 26 35.0800000  0  4G12G13G 9G11
  21383192.165    21383196.760   -24389708.354 9  22838842.904 8
  20765386.515    20765391.917    -1863762.765 9  -3770577.148 9
  20980204.047    20980208.127    27495717.947 8 -56039354.900 8
  23991754.871    23991760.123    53097273.340 7 -31799794.172 7
 86  6 19  2 26 41.0800000  0  4G12G13G 9G11
  21381174.947    21381179.647   -24400307.098 9  22830584.135 8
  20766026.982    20766030.696    -1860400.193 9  -3767956.954 8
  20983144.121    20983147.467    27511172.056 7 -56027312.743 7
  23994767.127    23994770.295    53113106.059 7 -31787456.985 6
 86  6 19  2 26 47.0800000  0  4G12G13G 9G11
  21379161.439    21379167.851   -24410884.526 8  22822341.978 8
  20766668.238    20766673.408    -1857026.132 9  -3765327.813 7
  20986089.631    20986094.703    27526647.665 9 -56015253.828 7
  23997779.711    23997784.948    53128936.977 8 -31775121.216 7
 86  6 19  2 26 53.0800000  0  4G12G13G 9G11
  21377153.423    21377158.229   -24421440.610 9  22814116.465 8
  20767312.797    20767317.211    -1853640.647 9  -3762689.788 9
  20989038.613    20989042.389    27542144.691 8 -56003178.228 7
  24000791.296    24000795.933    53144766.016 8 -31762786.897 6
 86  6 19  2 26 59.0800000  0  4G12G13G 9G11
  21375148.449    21375153.639   -24431975.433 9  22805907.509 8
  20767959.655    20767963.872    -1850243.851 9  -3760042.915 8
  20991992.305    20991996.236    27557663.185 8 -55991085.906 8
  24003803.820    24003808.564    53160593.218 9 -31750454.006 7
 86  6 19  2 27  5.0800000  0  4G12G13G 9G11
  21373149.076    21373154.026   -24442488.937 9  22797715.167 8
  20768608.294    20768610.856    -1846835.643 9  -3757387.173 8
  20994949.692    20994953.203    27573203.098 8 -55978976.891 8
  24006813.989    24006820.349    53176418.529 8 -31738122.599 7
 86  6 19  2 27 11.0800000  0  4G12G13G 9G11
  21371151.389    21371156.802   -24452981.018 9  22789539.538 8
  20769258.627    20769263.377    -1843416.142 9  -3754722.630 9
  20997910.346    20997914.163    27588764.401 7 -55966851.190 8
  24009826.599    24009831.932    53192242.006 7 -31725792.618 7
 86  6 19  2 27 17.0800000  0  4G12G13G 9G11
  21369159.301    21369164.407   -24463451.643 8  22781380.589 9
  20769911.276    20769914.853    -1839985.291 8  -3752049.240 8
  21000875.996    21000879.640    27604347.128 8 -55954708.808 7
  24012838.226    24012842.917    53208063.654 7 -31713464.050 7
 86  6 19  2 27 23.0800000  0  4G12G13G 9G11
  21367171.904    21367175.210   -24473900.828 9  22773238.371 9
  20770567.079    20770571.095    -1836543.055 9  -3749366.970 8
  21003844.588    21003849.209    27619951.228 9 -55942549.772 7
  24015847.953    24015851.765    53223883.481 7 -31701136.921 7
 86  6 19  2 27 29.0800000  0  4G12G13G 9G11
  21365186.933    21365191.764   -24484328.563 8  22765112.868 8
  20771224.450    20771228.000    -1833089.495 9  -3746675.886 9
  21006818.991    21006822.699    27635576.747 9 -55930374.050 7
  24018856.355    24018863.127    53239701.525 8 -31688811.193 7
 86  6 19  2 27 35.0800000  0  4G12G13G 9G11
  21363206.633    21363209.877   -24494734.667 8  22757004.210 8
  20771883.017    20771887.024    -1829624.481 8  -3743975.872 8
  21009797.008    21009800.778    27651223.769 8 -55918181.567 7
  24021867.011    24021871.344    53255517.755 8 -31676486.850 7
 86  6 19  2 27 41.0800000  0  4G12G13G 9G11
  21361230.888    21361234.632   -24505119.114 8  22748912.438 8
  20772545.624    20772549.111    -1826148.057 8  -3741266.963 8
  21012778.706    21012782.156    27666892.263 9 -55905972.366 7
  24024877.589    24024882.211    53271332.221 7 -31664163.896 7
 86  6 19  2 27 47.0800000  0  4G12G13G 9G11
  21359258.809    21359262.770   -24515481.900 9  22740837.536 8
  20773209.164    20773212.552    -1822660.214 9  -3738549.162 9
  21015764.719    21015767.623    27682582.201 7 -55893746.440 7
  24027885.181    24027891.948    53287144.971 7 -31651842.261 8
 86  6 19  2 27 53.0800000  0  4G12G13G 9G11
  21357291.444    21357295.116   -24525823.119 9  22732779.441 8
  20773873.933    20773878.781    -1819161.010 9  -3735822.512 9
  21018753.468    21018756.722    27698293.535 9 -55881503.845 7
  24030894.144    24030898.898    53302955.912 6 -31639522.054 7
 86  6 19  2 27 59.0800000  0  4G12G13G 9G11
  21355326.080    21355330.371   -24536142.664 9  22724738.245 8
  20774543.086    20774546.688    -1815650.499 8  -3733087.049 9
  21021747.290    21021750.156    27714026.210 8 -55869244.612 8
  24033903.065    24033907.697    53318765.028 7 -31627203.274 6
 86  6 19  2 28  5.0800000  0  4G12G13G 9G11
  21353367.107    21353370.315   -24546440.557 9  22716713.915 8
  20775212.941    20775216.585    -1812128.762 8  -3730342.837 9
  21024744.305    21024748.182    27729780.237 9 -55856968.768 6
  24036911.237    24036916.009    53334572.275 7 -31614885.938 8
 86  6 19  2 28 11.0800000  0  4G12G13G 9G11
  21351411.510    21351417.062   -24556716.915 8  22708706.360 8
  20775886.118    20775888.715    -1808595.753 9  -3727589.840 8
  21027746.897    21027750.950    27745555.496 8 -55844676.344 7
  24039917.778    24039923.526    53350377.682 6 -31602570.040 7
 86  6 19  2 28 17.0800000  0  4G12G13G 9G11
  21349460.743    21349463.466   -24566971.650 9  22700715.654 9
  20776559.836    20776563.142    -1805051.461 8  -3724828.060 8
  21030752.381    21030757.119    27761351.932 8 -55832367.433 7
  24042924.653    24042930.254    53366181.207 6 -31590255.612 6
 86  6 19  2 28 23.0800000  0  4G12G13G 9G11
  21347512.890    21347517.387   -24577204.808 9  22692741.773 8
  20777235.612    20777239.356    -1801495.912 9  -3722057.492 8
  21033764.473    21033767.166    27777169.651 9 -55820041.949 7
  24045931.922    24045938.895    53381982.752 7 -31577942.726 7
 86  6 19  2 28 29.0800000  0  4G12G13G 9G11
  21345570.069    21345573.589   -24587416.347 9  22684784.735 8
  20777915.282    20777918.364    -1797929.213 8  -3719278.256 7
  21036777.540    21036781.569    27793008.583 9 -55807699.918 8
  24048938.464    24048945.997    53397782.394 6 -31565631.327 8
 86  6 19  2 28 35.0800000  0  4G12G13G 9G11
  21343631.151    21343634.385   -24597606.182 9  22676844.598 9
  20778595.246    20778600.502    -1794351.351 9  -3716490.305 8
  21039796.150    21039798.527    27808868.613 8 -55795341.474 8
  24051945.396    24051950.076    53413580.098 6 -31553321.426 7
 86  6 19  2 28 41.0800000  0  4G12G13G 9G11
  21341695.907    21341699.661   -24607774.285 9  22668921.403 8
  20779279.489    20779282.853    -1790762.259 9  -3713693.605 9
  21042817.883    21042820.503    27824749.807 8 -55782966.503 7
  24054951.169    24054955.907    53429375.883 6 -31541013.022 8
 86  6 19  2 28 47.0800000  0  4G12G13G 9G11
  21339765.100    21339769.615   -24617920.571 9  22661015.206 8
  20779963.192    20779967.368    -1787161.843 9  -3710888.091 8
  21045843.984    21045847.482    27840652.169 9 -55770575.059 8
  24057954.922    24057962.318    53445169.832 6 -31528706.053 6
 86  6 19  2 28 53.0800000  0  4G12G13G 9G11
  21337838.292    21337843.006   -24628044.983 9  22653126.053 8
  20780651.079    20780654.618    -1783550.179 8  -3708073.818 8
  21048873.681    21048876.984    27856575.765 9 -55758167.070 7
  24060960.830    24060967.159    53460961.952 7 -31516400.520 7
 86  6 19  2 28 59.0800000  0  4G12G13G 9G11
  21335916.637    21335920.234   -24638147.538 8  22645253.942 9
  20781340.601    20781344.593    -1779927.311 8  -3705250.796 8
  21051907.176    21051911.104    27872520.452 8 -55745742.638 7
  24063967.190    24063972.366    53476752.217 5 -31504096.428 7
 86  6 19  2 29  5.0800000  0  4G12G13G 9G11
  21333999.612    21334001.589   -24648228.201 9  22637398.867 8
  20782032.556    20782036.033    -1776293.258 8  -3702419.054 8
  21054945.914    21054949.367    27888486.335 9 -55733301.693 8
  24066971.072    24066976.311    53492540.649 6 -31491793.760 8
 86  6 19  2 29 11.0800000  0  4G12G13G 9G11
  21332084.277    21332087.407   -24658287.010 9  22629560.840 8
  20782725.413    20782730.515    -1772648.053 9  -3699578.640 8
  21057988.138    21057991.511    27904473.369 8 -55720844.257 7
  24069977.435    24069981.199    53508327.150 6 -31479492.588 8
 86  6 19  2 29 17.0800000  0  4G12G13G 9G11
  21330174.685    21330177.092   -24668323.991 8  22621739.810 7
  20783421.721    20783425.632    -1768991.821 9  -3696729.631 8
  21061034.643    21061038.087    27920481.508 7 -55708370.393 7
  24072979.398    24072983.900    53524111.711 6 -31467192.934 8
 86  6 19  2 29 23.0800000  0  4G12G13G 9G11
  21328268.207    21328272.746   -24678339.079 9  22613935.849 8
  20784119.733    20784123.377    -1765324.416 8  -3693871.917 7
  21064084.835    21064088.646    27936510.632 8 -55695880.160 7
  24075982.658    24075987.579    53539894.343 7 -31454894.787 7
 86  6 19  2 29 29.0800000  0  4G12G13G 9G11
  21326366.574    21326370.162   -24688332.275 9  22606148.943 7
  20784819.249    20784823.519    -1761645.879 9  -3691005.520 9
  21067139.525    21067141.999    27952560.887 8 -55683373.483 6
  24078986.213    24078990.998    53555675.019 6 -31442598.164 7
 86  6 19  2 29 35.0800000  0  4G12G13G 9G11
  21324468.774    21324472.821   -24698303.574 9  22598379.101 8
  20785520.889    20785524.213    -1757956.175 9  -3688130.433 8
  21070197.174    21070199.581    27968632.087 9 -55670850.465 8
  24081986.841    24081993.399    53571453.720 7 -31430303.081 8
 86  6 19  2 29 41.0800000  0  4G12G13G 9G11
  21322575.874    21322579.766   -24708252.975 9  22590626.316 8
  20786225.032    20786229.001    -1754255.339 8  -3685246.665 8
  21073259.179    21073262.884    27984724.226 9 -55658311.159 7
  24084989.358    24084995.158    53587230.484 6 -31418009.507 8
 86  6 19  2 29 47.0800000  0  4G12G13G 9G11
  21320686.164    21320690.532   -24718180.497 9  22582890.577 8
  20786930.392    20786935.069    -1750543.417 9  -3682354.261 8
  21076325.156    21076330.448    28000837.419 8 -55645755.414 7
  24087991.806    24087997.656    53603005.205 7 -31405717.524 7
 86  6 19  2 29 53.0800000  0  4G12G13G 9G11
  21318801.935    21318805.344   -24728086.129 9  22575171.908 8
  20787640.510    20787643.864    -1746820.539 8  -3679453.312 8
  21079396.214    21079399.724    28016971.429 8 -55633183.466 7
  24090993.584    24090998.611    53618777.921 7 -31393427.103 9
 86  6 19  2 29 59.0800000  0  4G12G13G 9G11
  21316919.545    21316925.136   -24737969.884 9  22567470.290 8
  20788351.346    20788354.762    -1743086.799 9  -3676543.902 8
  21082470.354    21082474.533    28033126.345 8 -55620595.223 7
  24093994.920    24093999.108    53634548.600 6 -31381138.272 7
 86  6 19  2 30  5.0800000  0  4G12G13G 9G11
  21315043.672    21315047.675   -24747831.709 9  22559785.747 8
  20789061.966    20789067.020    -1739342.102 9  -3673625.955 8
  21085548.220    21085551.400    28049302.007 8 -55607990.816 7
  24096995.475    24097001.096    53650317.198 7 -31368851.058 8
 86  6 19  2 30 11.0800000  0  4G12G13G 9G11
  21313171.783    21313175.456   -24757671.569 9  22552118.319 8
  20789777.559    20789782.159    -1735586.495 8  -3670699.506 8
  21088630.116    21088633.957    28065498.517 8 -55595370.184 7
  24099995.868    24100001.707    53666083.761 7 -31356565.429 8
 86  6 19  2 30 17.0800000  0  4G12G13G 9G11
  21311304.425    21311307.974   -24767489.415 9  22544468.050 9
  20790494.669    20790497.878    -1731819.882 9  -3667764.493 8
  21091716.132    21091719.824    28081715.876 8 -55582733.278 7
  24102995.511    24103000.998    53681848.289 7 -31344281.376 8
 86  6 19  2 30 23.0800000  0  4G12G13G 9G11
  21309439.135    21309442.904   -24777285.190 9  22536834.979 8
  20791213.235    20791216.248    -1728042.290 8  -3664820.901 8
  21094806.705    21094809.099    28097954.020 8 -55570080.171 7
  24105996.151    24105999.268    53697610.838 8 -31331998.883 8
 86  6 19  2 30 29.0800000  0  4G12G13G 9G11
  21307579.684    21307583.701   -24787058.882 9  22529219.113 9
  20791934.352    20791938.203    -1724253.763 9  -3661868.802 7
  21097900.794    21097904.337    28114213.081 8 -55557410.789 7
  24108992.704    24108999.905    53713371.332 7 -31319717.979 9
 86  6 19  2 30 35.0800000  0  4G12G13G 9G11
  21305723.048    21305728.044   -24796810.464 9  22521620.476 9
  20792658.124    20792661.396    -1720454.278 8  -3658908.172 9
  21100998.097    21101002.512    28130493.024 8 -55544725.124 7
  24111992.347    24111998.493    53729129.851 7 -31307438.620 7
 86  6 19  2 30 41.0800000  0  4G12G13G 9G11
  21303871.681    21303877.139   -24806539.927 9  22514039.084 8
  20793383.590    20793386.805    -1716643.828 8  -3655938.997 9
  21104100.400    21104104.106    28146793.745 9 -55532023.259 8
  24114991.455    24114997.463    53744886.333 8 -31295160.862 8
 86  6 19  2 30 47.0800000  0  4G12G13G 9G11
  21302025.509    21302029.642   -24816247.252 9  22506474.928 8
  20794109.995    20794113.491    -1712822.462 8  -3652961.300 8
  21107206.471    21107209.378    28163115.120 7 -55519305.310 7
  24117989.209    24117993.893    53760640.812 9 -31282884.627 8
 86  6 19  2 30 53.0800000  0  4G12G13G 9G11
  21300181.867    21300185.950   -24825932.457 9  22498928.018 8
  20794838.994    20794843.462    -1708990.254 9  -3649975.182 8
  21110316.043    21110319.023    28179457.257 9 -55506571.183 7
  24120985.209    24120991.409    53776393.228 8 -31270610.033 8
 86  6 19  2 30 59.0800000  0  4G12G13G 9G11
  21298343.358    21298346.788   -24835595.436 9  22491398.423 8
  20795570.607    20795573.783    -1705147.232 9  -3646980.608 8
  21113430.231    21113433.842    28195820.173 9 -55493820.859 7
  24123983.080    24123990.238    53792143.610 7 -31258337.002 8
 86  6 19  2 31  5.0800000  0  4G12G13G 9G11
  21296509.609    21296514.203   -24845236.203 9  22483886.138 9
  20796304.768    20796307.637    -1701293.390 8  -3643977.606 8
  21116547.712    21116551.495    28212203.787 8 -55481054.418 8
  24126980.756    24126985.816    53807891.988 8 -31246065.550 8
 86  6 19  2 31 11.0800000  0  4G12G13G 9G11
  21294678.399    21294682.890   -24854854.736 9  22476391.161 8
  20797038.514    20797043.985    -1697428.693 9  -3640966.162 8
  21119669.071    21119672.474    28228608.088 9 -55468271.849 8
  24129977.258    24129982.626    53823638.303 7 -31233795.702 8
 86  6 19  2 31 17.0800000  0  4G12G13G 9G11
  21292852.598    21292856.217   -24864451.015 9  22468913.557 8
  20797776.230    20797780.482    -1693553.149 8  -3637946.247 8
  21122794.436    21122797.713    28245033.049 8 -55455473.170 9
  24132973.526    24132979.221    53839382.538 7 -31221527.464 8
 86  6 19  2 31 23.0800000  0  4G12G13G 9G11
  21291030.580    21291035.447   -24874025.041 8  22461453.267 8
  20798516.047    20798520.305    -1689666.703 9  -3634917.859 9
  21125924.593    21125927.013    28261478.663 8 -55442658.421 8
  24135968.953    24135974.679    53855124.680 8 -31209260.866 8
 86  6 19  2 31 29.0800000  0  4G12G13G 9G11
  21289212.018    21289216.877   -24883576.756 9  22454010.378 8
  20799258.942    20799261.831    -1685769.450 9  -3631881.023 9
  21129058.644    21129061.243    28277944.861 8 -55429827.619 8
  24138964.919    24138969.236    53870864.771 8 -31196995.868 9
 86  6 19  2 31 35.0800000  0  4G12G13G 9G11
  21287399.123    21287403.373   -24893106.160 8  22446584.865 8
  20800001.872    20800005.424    -1681861.359 8  -3628835.758 7
  21132194.901    21132198.764    28294431.733 9 -55416980.720 8
  24141958.801    24141964.506    53886602.797 8 -31184732.468 8
 86  6 19  2 31 41.0800000  0  4G12G13G 9G11
  21285590.265    21285594.386   -24902613.251 9  22439176.741 7
  20800747.079    20800751.399    -1677942.495 9  -3625782.099 8
  21135336.296    21135339.718    28310939.143 7 -55404117.800 8
  24144953.183    24144959.068    53902338.729 8 -31172470.714 9
 86  6 19  2 31 47.0800000  0  4G12G13G 9G11
  21283783.890    21283789.182   -24912098.058 9  22431785.980 8
  20801494.410    20801499.593    -1674012.863 9  -3622720.046 8
  21138482.090    21138483.537    28327467.074 9 -55391238.887 8
  24147948.730    24147953.104    53918072.589 9 -31160210.563 9
 86  6 19  2 31 53.0800000  0  4G12G13G 9G11
  21281984.120    21281989.094   -24921560.481 9  22424412.672 7
  20802244.752    20802249.422    -1670072.486 9  -3619649.616 9
  21141629.969    21141634.240    28344015.594 8 -55378343.950 8
  24150941.026    24150947.295    53933804.368 8 -31147952.056 8
 86  6 19  2 31 59.0800000  0  4G12G13G 9G11
  21280187.596    21280192.540   -24931000.539 8  22417056.775 8
  20802997.205    20803001.200    -1666121.327 9  -3616570.793 8
  21144783.257    21144786.838    28360584.604 9 -55365433.034 8
  24153935.176    24153939.841    53949533.998 8 -31135695.193 8
 86  6 19  2 32  5.0800000  0  4G12G13G 9G11
  21278396.544    21278401.150   -24940418.281 9  22409718.287 8
  20803750.537    20803755.668    -1662159.487 9  -3613483.642 9
  21147940.467    21147942.298    28377174.097 9 -55352506.161 7
  24156926.836    24156932.957    53965261.453 8 -31123440.038 8
 86  6 19  2 32 11.0800000  0  4G12G13G 9G11
  21276607.969    21276612.149   -24949813.646 9  22402397.221 8
  20804506.937    20804510.501    -1658186.985 8  -3610388.173 8
  21151101.567    21151104.876    28393783.922 8 -55339563.441 7
  24159918.200    24159925.251    53980986.713 9 -31111186.591 9
 86  6 19  2 32 17.0800000  0  4G12G13G 9G11
  21274823.555    21274828.449   -24959186.640 9  22395093.578 9
  20805264.351    20805269.151    -1654203.896 8  -3607284.477 8
  21154266.205    21154268.761    28410414.219 9 -55326604.778 7
  24162910.719    24162917.956    53996709.823 8 -31098934.824 8
 86  6 19  2 32 23.0800000  0  4G12G13G 9G11
  21273044.865    21273049.719   -24968537.311 8  22387807.352 8
  20806024.105    20806029.491    -1650210.080 9  -3604172.412 8
  21157434.187    21157439.628    28427064.940 8 -55313630.185 8
  24165902.619    24165908.557    54012430.766 8 -31086684.742 9
 86  6 19  2 32 29.0800000  0  4G12G13G 9G11
  21271269.576    21271275.512   -24977865.505 9  22380538.630 8
  20806787.355    20806789.564    -1646205.477 8  -3601051.947 8
  21160607.026    21160609.950    28443736.085 8 -55300639.685 8
  24168894.254    24168900.874    54028149.630 9 -31074436.282 9
 86  6 19  2 32 35.0800000  0  4G12G13G 9G11
  21269499.014    21269504.111   -24987171.225 9  22373287.426 8
  20807551.842    20807555.471    -1642190.213 9  -3597923.160 8
  21163783.502    21163786.964    28460427.600 9 -55287633.332 7
  24171884.437    24171890.889    54043866.320 8 -31062189.512 8
 86  6 19  2 32 41.0800000  0  4G12G13G 9G11
  21267732.046    21267736.743   -24996454.491 9  22366053.707 8
  20808318.079    20808321.558    -1638164.289 8  -3594786.071 8
  21166964.367    21166966.563    28477139.511 9 -55274611.054 8
  24174875.266    24174882.007    54059580.792 9 -31049944.467 8
 86  6 19  2 32 47.0800000  0  4G12G13G 9G11
  21265970.116    21265975.101   -25005715.279 9  22358837.503 8
  20809085.764    20809090.110    -1634127.706 9  -3591640.690 8
  21170147.950    21170150.409    28493871.676 9 -55261573.002 8
  24177864.570    24177871.137    54075293.134 9 -31037701.084 8
 86  6 19  2 32 53.0800000  0  4G12G13G 9G11
  21264211.470    21264217.065   -25014953.550 9  22351638.860 8
  20809855.401    20809859.538    -1630080.518 8  -3588487.025 7
  21173336.128    21173338.383    28510624.297 8 -55248519.020 7
  24180854.371    24180860.364    54091003.343 8 -31025459.373 8
 86  6 19  2 32 59.0800000  0  4G12G13G 9G11
  21262458.273    21262462.593   -25024169.260 8  22344457.784 7
  20810627.968    20810631.841    -1626022.703 8  -3585325.097 8
  21176527.364    21176529.880    28527397.316 7 -55235449.139 7
  24183844.287    24183850.574    54106711.410 9 -31013219.319 8
 86  6 19  2 33  5.0800000  0  4G12G13G 9G11
  21260709.473    21260714.243   -25033362.493 9  22337294.216 7
  20811401.787    20811406.390    -1621954.350 8  -3582154.962 8
  21179723.016    21179725.836    28544190.459 8 -55222363.571 8
  24186832.569    24186839.288    54122417.242 9 -31000981.006 8
 86  6 19  2 33 11.0800000  0  4G12G13G 9G11
  21258964.159    21258968.209   -25042533.202 8  22330148.218 8
  20812177.869    20812182.009    -1617875.479 9  -3578976.612 8
  21182922.821    21182926.013    28561003.896 8 -55209262.197 7
  24189820.950    24189826.780    54138120.867 8 -30988744.424 8
 86  6 19  2 33 17.0800000  0  4G12G13G 9G11
  21257223.532    21257227.183   -25051681.301 9  22323019.835 8
  20812955.610    20812961.381    -1613786.163 8  -3575790.134 8
  21186124.818    21186129.820    28577837.524 7 -55196145.085 7
  24192809.418    24192815.015    54153822.294 9 -30976509.546 8
 86  6 19  2 33 23.0800000  0  4G12G13G 9G11
  21255485.845    21255491.073   -25060806.858 9  22315908.998 8
  20813736.106    20813740.627    -1609686.362 9  -3572595.484 9
  21189332.754    21189336.539    28594691.390 8 -55183012.215 7
  24195797.099    24195802.277    54169521.510 9 -30964276.396 9
 86  6 19  2 33 29.0800000  0  4G12G13G 9G11
  21253753.449    21253757.867   -25069909.854 9  22308815.766 8
  20814518.173    20814522.754    -1605576.020 9  -3569392.630 9
  21192544.020    21192547.747    28611565.326 7 -55169863.701 8
  24198783.788    24198789.625    54185218.533 9 -30952044.954 9
 86  6 19  2 33 35.0800000  0  4G12G13G 9G11
  21252026.394    21252031.328   -25078990.266 9  22301740.112 8
  20815302.644    20815306.235    -1601455.270 8  -3566181.639 8
  21195758.404    21195760.723    28628459.305 8 -55156699.558 8
  24201771.118    24201775.835    54200913.292 8 -30939815.280 8
 86  6 19  2 33 41.0800000  0  4G12G13G 9G11
  21250303.177    21250307.815   -25088048.051 9  22294682.102 8
  20816089.523    20816092.981    -1597324.117 9  -3562962.567 8
  21198977.325    21198982.113    28645373.426 8 -55143519.725 7
  24204756.628    24204762.339    54216605.774 9 -30927587.366 9
 86  6 19  2 33 47.0800000  0  4G12G13G 9G11
  21248583.673    21248588.500   -25097083.204 9  22287641.725 8
  20816876.532    20816881.052    -1593182.490 8  -3559735.320 8
  21202200.251    21202202.689    28662307.679 8 -55130324.206 8
  24207741.810    24207748.403    54232295.932 9 -30915361.285 9
 86  6 19  2 33 53.0800000  0  4G12G13G 9G11
  21246868.171    21246873.838   -25106095.721 9  22280618.985 8
  20817666.997    20817671.004    -1589030.460 9  -3556499.976 8
  21205425.780    21205429.278    28679261.939 8 -55117113.109 6
  24210727.719    24210733.485    54247983.730 9 -30903137.033 9
 86  6 19  2 33 59.0800000  0  4G12G13G 9G11
  21245158.189    21245162.551   -25115085.603 9  22273613.890 7
  20818458.941    20818463.100    -1584868.032 9  -3553256.526 8
  21208654.343    21208659.658    28696236.210 7 -55103886.401 7
  24213712.206    24213717.948    54263669.245 9 -30890914.556 8
 86  6 19  2 34  5.0800000  0  4G12G13G 9G11
  21243451.286    21243455.466   -25124052.807 8  22266626.466 8
  20819253.142    20819257.887    -1580695.157 8  -3550004.941 9
  21211887.346    21211892.802    28713230.518 8 -55090644.088 7
  24216696.359    24216702.512    54279352.488 9 -30878693.840 9
 86  6 19  2 34 11.0800000  0  4G12G13G 9G11
  21241749.190    21241753.800   -25132997.297 9  22259656.733 9
  20820048.749    20820053.457    -1576511.907 8  -3546745.269 8
  21215126.060    21215130.193    28730244.868 7 -55077386.168 8
  24219680.410    24219686.528    54295033.473 8 -30866474.889 9
 86  6 19  2 34 17.0800000  0  4G12G13G 9G11
  21240051.261    21240056.996   -25141918.958 9  22252704.780 9
  20820847.851    20820851.223    -1572318.224 9  -3543477.464 8
  21218368.609    21218372.881    28747279.246 7 -55064112.636 7
  24222664.464    24222670.127    54310712.247 9 -30854257.668 9
 86  6 19  2 34 23.0800000  0  4G12G13G 9G11
  21238358.598    21238362.765   -25150817.823 9  22245770.597 9
  20821647.685    20821650.563    -1568114.133 9  -3540201.546 9
  21221613.962    21221618.834    28764333.544 7 -55050823.579 8
  24225647.324    24225653.794    54326388.763 9 -30842042.212 9
 86  6 19  2 34 29.0800000  0  4G12G13G 9G11
  21236668.890    21236674.285   -25159693.851 9  22238854.223 7
  20822449.717    20822453.282    -1563899.664 8  -3536917.542 8
  21224862.259    21224866.755    28781407.940 7 -55037518.865 8
  24228630.674    24228635.676    54342063.071 8 -30829828.459 9
 86  6 19  2 34 35.0800000  0  4G12G13G 9G11
  21234983.972    21234988.865   -25168546.940 9  22231955.704 8
  20823253.671    20823256.230    -1559674.742 9  -3533625.387 8
  21228116.011    21228120.093    28798502.406 8 -55024198.511 8
  24231612.125    24231618.497    54357735.152 9 -30817616.453 9
 86  6 19  2 34 41.0800000  0  4G12G13G 9G11
  21233304.169    21233308.871   -25177377.097 9  22225075.065 8
  20824059.810    20824062.526    -1555439.332 9  -3530325.068 7
  21231373.723    21231378.508    28815616.913 8 -55010862.523 8
  24234594.643    24234600.124    54373405.031 9 -30805406.163 9
 86  6 19  2 34 47.0800000  0  4G12G13G 9G11
  21231628.404    21231632.070   -25186184.370 8  22218212.254 8
  20824866.791    20824871.073    -1551193.506 9  -3527016.628 9
  21234634.040    21234637.255    28832751.319 7 -54997511.043 7
  24237575.837    24237580.641    54389072.674 8 -30793197.600 9
 86  6 19  2 34 53.0800000  0  4G12G13G 9G11
  21229955.487    21229961.198   -25194968.769 8  22211367.271 8
  20825677.226    20825680.557    -1546937.361 9  -3523700.158 8
  21237898.012    21237902.453    28849905.678 8 -54984144.026 7
  24240557.367    24240563.605    54404738.078 9 -30780990.803 9
 86  6 19  2 34 59.0800000  0  4G12G13G 9G11
  21228289.680    21228294.231   -25203730.267 9  22204540.137 8
  20826488.703    20826493.740    -1542670.834 8  -3520375.598 8
  21241166.604    21241169.582    28867079.927 8 -54970761.488 8
  24243537.150    24243542.342    54420401.170 8 -30768785.789 8
 86  6 19  2 35  5.0800000  0  4G12G13G 9G11
  21226626.277    21226631.179   -25212468.831 9  22197730.854 8
  20827302.862    20827307.301    -1538394.016 8  -3517043.000 8
  21244438.053    21244442.091    28884274.083 8 -54957363.458 8
  24246516.976    24246523.920    54436061.941 8 -30756582.590 9
 86  6 19  2 35 11.0800000  0  4G12G13G 9G11
  21224967.717    21224971.999   -25221184.521 8  22190939.403 8
  20828118.396    20828121.899    -1534106.897 9  -3513702.385 8
  21247714.450    21247719.018    28901488.046 8 -54943949.973 7
  24249497.073    24249502.929    54451720.391 9 -30744381.202 8
 86  6 19  2 35 17.0800000  0  4G12G13G 9G11
  21223312.954    21223318.354   -25229877.345 9  22184165.790 8
  20828937.503    20828939.988    -1529809.633 9  -3510353.873 8
  21250992.473    21250997.008    28918721.673 8 -54930521.182 7
  24252476.304    24252482.900    54467376.476 9 -30732181.658 8
 86  6 19  2 35 23.0800000  0  4G12G13G 9G11
  21221663.404    21221668.144   -25238547.354 9  22177409.923 8
  20829756.757    20829759.221    -1525502.282 9  -3506997.504 8
  21254275.566    21254279.992    28935975.019 8 -54917077.021 8
  24255455.792    24255461.681    54483030.122 9 -30719984.017 8
 86  6 19  2 35 29.0800000  0  4G12G13G 9G11
  21220017.835    21220022.683   -25247194.452 9  22170671.932 9
  20830578.391    20830580.575    -1521184.705 9  -3503633.145 9
  21257563.998    21257567.699    28953248.025 8 -54903617.534 7
  24258434.060    24258439.366    54498681.300 9 -30707788.289 8
 86  6 19  2 35 35.0800000  0  4G12G13G 9G11
  21218377.555    21218382.374   -25255818.624 8  22163951.797 8
  20831401.733    20831404.031    -1516856.878 9  -3500260.809 8
  21260855.861    21260858.298    28970540.680 7 -54890142.740 8
  24261411.363    24261417.364    54514330.167 8 -30695594.370 8
 86  6 19  2 35 41.0800000  0  4G12G13G 9G11
  21216739.931    21216743.701   -25264419.813 9  22157249.576 8
  20832227.415    20832230.494    -1512518.828 8  -3496880.515 8
  21264148.954    21264153.028    28987853.069 9 -54876652.578 8
  24264388.478    24264394.935    54529976.661 9 -30683402.295 9
 86  6 19  2 35 47.0800000  0  4G12G13G 9G11
  21215108.025    21215112.911   -25272997.969 9  22150565.298 8
  20833054.117    20833058.003    -1508170.590 9  -3493492.287 8
  21267447.280    21267451.371    29005185.201 8 -54863147.017 8
  24267366.411    24267372.202    54545620.808 8 -30671212.055 8
 86  6 19  2 35 53.0800000  0  4G12G13G 9G11
  21213479.845    21213484.490   -25281553.099 9  22143898.958 9
  20833882.800    20833886.827    -1503812.186 8  -3490096.126 8
  21270748.816    21270752.996    29022536.876 8 -54849626.235 8
  24270341.893    24270348.014    54561262.597 8 -30659023.645 8
 86  6 19  2 35 59.0800000  0  4G12G13G 9G11
  21211855.873    21211860.661   -25290085.205 9  22137250.570 8
  20834714.441    20834718.154    -1499443.647 8  -3486692.066 9
  21274053.675    21274058.561    29039908.199 9 -54836090.137 7
  24273319.666    24273324.462    54576902.071 9 -30646837.049 9
 86  6 19  2 36  5.0800000  0  4G12G13G 9G11
  21210236.759    21210241.433   -25298594.312 9  22130620.096 7
  20835547.755    20835552.067    -1495065.124 9  -3483280.230 8
  21277362.802    21277367.306    29057299.137 9 -54822538.764 8
  24276294.717    24276300.085    54592539.121 8 -30634652.326 9
 86  6 19  2 36 11.0800000  0  4G12G13G 9G11
  21208621.528    21208626.638   -25307080.362 9  22124007.591 8
  20836381.913    20836387.461    -1490676.490 9  -3479860.520 8
  21280677.342    21280681.133    29074709.694 8 -54808972.092 8
  24279269.961    24279275.506    54608173.764 7 -30622469.490 8
 86  6 19  2 36 17.0800000  0  4G12G13G 9G11
  21207011.531    21207017.008   -25315543.354 8  22117413.052 9
  20837220.077    20837224.155    -1486277.689 8  -3476432.875 8
  21283993.862    21283997.296    29092139.822 8 -54795390.189 8
  24282243.202    24282249.768    54623806.013 9 -30610288.507 9
 86  6 19  2 36 23.0800000  0  4G12G13G 9G11
  21205406.304    21205410.101   -25323983.252 9  22110836.516 8
  20838059.276    20838062.908    -1481868.764 9  -3472997.359 9
  21287314.486    21287318.859    29109589.375 8 -54781793.125 8
  24285218.119    24285224.480    54639435.855 8 -30598109.412 8
 86  6 19  2 36 29.0800000  0  4G12G13G 9G11
  21203803.932    21203809.438   -25332399.967 9  22104278.025 8
  20838899.372    20838903.345    -1477449.767 9  -3469553.977 8
  21290638.389    21290642.131    29127058.548 8 -54768180.800 8
  24288192.276    24288197.860    54655063.324 8 -30585932.166 7
 86  6 19  2 36 35.0800000  0  4G12G13G 9G11
  21202206.443    21202211.383   -25340793.614 9  22097737.525 8
  20839742.123    20839745.776    -1473020.791 8  -3466102.825 8
  21293966.768    21293971.874    29144547.210 9 -54754553.272 8
  24291164.827    24291170.582    54670688.372 8 -30573756.818 8
 86  6 19  2 36 41.0800000  0  4G12G13G 9G11
  21200613.440    21200618.811   -25349164.166 9  22091215.011 8
  20840586.756    20840591.517    -1468581.825 8  -3462643.895 8
  21297298.112    21297301.917    29162055.343 7 -54740910.592 8
  24294138.299    24294143.553    54686310.943 8 -30561583.363 8
 86  6 19  2 36 47.0800000  0  4G12G13G 9G11
  21199025.384    21199030.830   -25357511.585 9  22084710.535 8
  20841433.196    20841438.187    -1464132.830 9  -3459177.138 8
  21300633.114    21300637.865    29179582.910 8 -54727252.740 7
  24297111.855    24297116.449    54701931.050 8 -30549411.852 8
 86  6 19  2 36 53.0800000  0  4G12G13G 9G11
  21197441.362    21197445.563   -25365835.832 8  22078224.110 9
  20842281.050    20842286.326    -1459673.775 8  -3455702.551 8
  21303973.171    21303975.465    29197129.819 7 -54713579.829 8
  24300081.660    24300087.990    54717548.683 8 -30537242.272 8
 86  6 19  2 36 59.0800000  0  4G12G13G 9G11
  21195861.323    21195866.733   -25374136.787 8  22071755.831 7
  20843131.182    20843136.777    -1455204.696 9  -3452220.155 8
  21307315.108    21307320.084    29214696.244 9 -54699891.714 8
  24303054.121    24303058.344    54733163.979 8 -30525074.511 8
 86  6 19  2 37  5.0800000  0  4G12G13G 9G11
  21194285.985    21194290.811   -25382414.484 9  22065305.682 8
  20843984.503    20843988.985    -1450725.577 9  -3448729.943 8
  21310662.861    21310666.891    29232282.055 8 -54686188.501 8
  24306025.364    24306029.848    54748776.879 8 -30512908.605 8
 86  6 19  2 37 11.0800000  0  4G12G13G 9G11
  21192716.291    21192721.078   -25390668.898 9  22058873.654 8
  20844838.126    20844844.005    -1446236.491 8  -3445231.946 8
  21314011.565    21314017.329    29249887.267 8 -54672470.145 8
  24308994.713    24309001.039    54764387.357 7 -30500744.602 7
